     2              OBSERVATION DATA    GPS                 RINEX VERSION / TYPE
teqc 2000Feb29 20021017 22:05:29UTC                         PGM / RUN BY / DATE
                                                            COMMENT
L2: 1 -> 1; 5 -> 5; 60 -> 9                                 COMMENT
L2: 1 -> 1; 5 -> 5; 60 -> 9                                 COMMENT
L2: 1 -> 1; 5 -> 5; 60 -> 9                                 COMMENT
L2: 1 -> 1; 5 -> 5; 60 -> 9                                 COMMENT
L2: 1 -> 1; 5 -> 5; 60 -> 9                                 COMMENT
Original Marker Name: GW32                                  COMMENT
Campaign Name: Yolo County Subsidence 2002                  COMMENT
4-Character Station Name: GW32                              COMMENT
6-Character Antenna Code: TRMCMP                            COMMENT
Vertical Measurement Point: BPA                             COMMENT
Vertical Offset to Rinex Ref. Point: 0.0000                 COMMENT
Radial Measurement Point: RRP                               COMMENT
Radial Offset to Rinex Ref. Point: 0.0000                   COMMENT
Antenna Height from Field Measurement: 2.0000 m             COMMENT
Additional Antenna Identification Info.:                    COMMENT
Model 22020.00+GP                                           COMMENT
Original XYZ: -2652072.2001 -4216903.3482 3969849.8560      COMMENT
New XYZ position is based on association with SCEC monument COMMENT
E1O4G5Q0+0011. Position of that monument is believed to be  COMMENT
valid to within 1 m horizontally; vertical accuracy         COMMENT
should be no worse than 3-times this value.                 COMMENT
                                                            COMMENT
Revised Rinex header created by UCSD GPS archive for        COMMENT
GSAC on 27-Jun-2003 (2003:178) 16:33:31 GMT                 COMMENT
For assistance contact dagnew@ucsd.edu                      COMMENT
or anderson@python.ucsd.edu                                 COMMENT
                                                            COMMENT
GWM32                                                       MARKER NAME
GW32                                                        MARKER NUMBER
-Unknown- YOLO_COUNTY                                       OBSERVER / AGENCY
14631 TRIMBLE 4000 SSI NP 7.19; SP 3.04                     REC # / TYPE / VERS
50490 TR GEOD L1/L2 GP                                      ANT # / TYPE
 -2652074.4355 -4216903.2928  3969847.4692                  APPROX POSITION XYZ
        2.0000        0.0000        0.0000                  ANTENNA: DELTA H/E/N
     1     1     0                                          WAVELENGTH FACT L1/2
     7    C1    L1    L2    P1    P2    S1    S2            # / TYPES OF OBSERV
     0                                                      INTERVAL
  2002     7     2    18    56   15.000000                  TIME OF FIRST OBS
  2002     7     3     0     2   30.000000                  TIME OF LAST OBS
                                                            END OF HEADER
 02  7  2 18 56 15.0000000  0  6G 3G14G15G17G18G21
  21733490.1254      91256.75157     26333.38856                  21733496.1484
        25.5004         23.2504
  22795749.8594     -28226.54356    -15620.15556                  22795756.4344
        17.5004         16.5004
  21150074.6484     185716.33557    144717.11057                  21150080.6134
        26.7504         26.0004
  21780944.7114     201649.69356    150050.05356                  21780951.2274
        18.5004         20.0004
  21108542.4384     185085.86258    144225.74457                  21108547.2304
        28.0004         27.5004
  21244164.8134      99878.20757     77829.88357                  21244171.1174
        27.7504         25.7504
 02  7  2 18 56 30.0000000  0  7G31G 3G14G15G17G18G21
  23683252.1414
        99.32455         9.5004
  21739631.7194     123531.83047     51482.78646                  21739637.8014
        25.2504         23.2504
  22794112.4614     -36827.76646    -22322.34846                  22794118.9064
        17.0004         16.2504
  21162321.8134     250075.27547    194866.91447                  21162327.8134
        26.7504         25.7504
  21794222.7814     271425.77046    204420.98546                  21794229.5204
        19.2504         20.2504
  21120741.5164     249191.06948    194177.83847                  21120746.0744
        28.2504         27.5004
  21250835.3674     134932.78447    105145.13546                  21250841.3554
        27.7504         25.5004
 02  7  2 18 56 45.0000000  0  7G31G 3G14G15G17G18G21
  23683369.5394
       719.37445         9.2504
  21745876.4614     156348.14247     77053.92446                  21745882.6024
        24.7504         23.0004
  22792564.7034     -44963.01646    -28661.45246                  22792571.3134
        17.5004         16.5004
  21174660.5784     314917.44147    245393.25347                  21174666.8594
        26.2504         25.7504
  21807591.8204     341678.06246    259163.00046                  21807597.9734
        19.7504         20.0004
  21133028.3834     313759.42248    244490.82447                  21133033.0594
        28.0004         27.2504
  21257593.6804     170447.50847    132818.94646                  21257599.6564
        27.7504         25.5004
 02  7  2 18 57  0.0000000  0  7G31G 3G14G15G17G18G21
  23983368.0944
      1804.29445         8.7504
  21752219.4064     189680.52247    103027.19746                  21752225.7814
        24.5004         23.2504
  22791100.2424     -52657.38546    -34657.01646                  22791107.1374
        17.2504         16.2504
  21187086.8054     380217.47847    296276.37547                  21187093.2384
        26.2504         26.0004
  21821046.1334     412381.21046    314256.32946                  21821052.4964
        19.5004         20.0004
  21145398.3524     378765.40948    295144.81847                  21145403.1804
        28.0004         27.5004
  21264434.5634     206396.81847    160831.38946                  21264440.6094
        27.2504         25.2504
 02  7  2 18 57 15.0000000  0  7G31G 3G14G15G17G18G21
  23983661.2584
      3338.58745         8.5004
  21758657.5634     223513.18347    129390.29346                  21758664.1484
        25.2504         23.2504
  22789716.9064     -59926.46946    -40321.17946                  22789723.0704
        17.0004         16.5004
  21199596.8834     445959.69547    347504.05947                  21199603.0704
        25.5004         25.7504
  21834583.4224     483519.43146    369688.67846                  21834589.8094
        19.5004         19.7504
  21157848.7814     444193.09047    346127.41847                  21157853.8444
        27.2504         27.0004
  21271355.7114     242764.97348    189170.22246                  21271361.8284
        28.2504         25.5004
 02  7  2 18 57 30.0000000  0  7G31G 3G14G15G17G18G21
  23984034.0864       5305.79345
                         7.5004
  21765188.2114     257829.49147    156130.26046                  21765194.2704
        26.2504         23.5004
  22788411.2504     -66786.65346    -45666.72346                  22788417.6604
        17.5004         16.7504
  21212187.9844     512127.21047    399063.14346                  21212194.2544
        24.7504         25.2504
  21848199.6094     555075.82046    425446.86846                  21848206.5864
        18.2504         19.7504
  21170376.2894     510025.49347    397425.37147                  21170381.5514
        27.0004         27.0004
  21278352.5004     279535.08148    217822.26546                  21278358.4304
        28.2504         25.5004
 02  7  2 18 57 45.0010000  0  7G31G 3G14G15G17G18G21
  23984489.5134       7699.09445       529.50755                  23984496.7474
         7.5004          7.7504
  21771809.4354     292624.47047    183243.21946                  21771815.5054
        26.2504         24.0004
  22787182.6694     -73245.41146    -50699.46146                  22787189.4894
        18.5004         17.0004
  21224859.5914     578717.06647    450951.31746                  21224866.0244
        24.7504         25.5004
  21861896.1924     627048.02946    481529.08146                  21861902.3334
        19.2504         19.7504
  21182980.2714     576259.63447    449036.37547                  21182985.2864
        27.2504         27.2504
  21285425.3104     316702.13247    246783.60747                  21285431.2744
        27.7504         25.7504
 02  7  2 18 58  0.0010000  0  7G31G 3G14G15G17G18G21
  23985027.8174      10526.94345      2733.03145                  23985036.9384
         8.2504          8.7504
  21778522.8644     327902.03547    210732.22146                  21778529.2864
        26.5004         24.2504
  22786031.1224     -79293.06046    -55411.85646                  22786038.2044
        17.7504         17.0004
  21237611.7714     645728.89147    503168.30546                  21237618.4154
        25.2504         25.5004
  21875670.9894     699434.92646    537934.41746                  21875677.2944
        19.2504         19.5004
  21195660.7084     642894.85348    500959.91247                  21195665.5244
        28.0004         27.5004
  21292573.9664     354269.60847    276056.95946                  21292580.0604
        27.5004         25.5004
 02  7  2 18 58 15.0010000  0  7G31G 3G14G15G17G18G21
  23985649.5834      13789.66145      5275.42945                  23985658.1774
         8.7504          8.2504
  21785328.3024     363664.47647    238599.05546                  21785334.7124
        26.7504         24.0004
  22784958.7314     -84929.76546    -59804.05446                  22784965.7084
        17.7504         16.7504
  21250445.0834     713167.11847    555717.55447                  21250451.3174
        26.2504         25.7504
  21889525.6304     772241.10946    594666.47746                  21889531.9234
        19.2504         19.5004
  21208418.0834     709935.33248    553199.23647                  21208422.7594
        28.0004         27.2504
  21299799.6464     392239.80347    305644.13547                  21299805.6694
        27.5004         25.7504
 02  7  2 18 58 30.0010000  0  7G31G 3G14G15G17G18G21
  23986351.6924      17480.88645      8151.79145                  23986358.2084
         8.7504          7.7504
  21792224.3804     399905.16847    266838.54346                  21792230.8964
        26.0004         24.0004
  22783962.8174     -90161.85046    -63880.93646                  22783969.8534
        17.0004         16.2504
  21263358.1384     781024.96447    608593.77047                  21263364.3494
        27.0004         26.2504
  21903458.3024     845459.96246    651720.09246                  21903464.7714
        18.5004         19.7504
  21221251.2554     777374.14247    605748.94447                  21221255.8374
        27.7504         27.2504
  21307100.4274     430605.77648    335539.70346                  21307106.3804
        28.0004         25.5004
 02  7  2 18 58 45.0010000  0  7G31G 3G14G15G17G18G21
  23987134.0444      21589.39345     11353.20345                  23987141.9814
         9.2504          8.5004
  21799209.4274     436612.76747    295441.85746                  21799215.8024
        25.5004         23.5004
  22783042.2784     -95000.76446    -67651.47446                  22783048.6534
        17.7504         16.7504
  21276348.8174     849290.92447    661788.00347                  21276354.7594
        27.0004         26.0004
  21917467.9664     919079.79946    709086.16846                  21917474.3884
        19.2504         19.7504
  21234158.1774     845199.54148    658599.89647                  21234162.8764
        28.0004         27.2504
  21314474.0214     469355.92147    365734.62047                  21314479.9384
        27.2504         25.7504
 02  7  2 18 59  0.0010000  0  7G31G 3G14G15G17G18G21
  23987991.7634      26096.50645     14865.24545                  23987997.1774
         9.0004          7.7504
  21806279.7944     473768.26547    324394.18246                  21806286.0754
        25.2504         23.2504
  22782192.6924     -99465.14846    -71130.15746                  22782199.0324
        18.0004         16.2504
  21289413.3414     917946.01247    715285.45247                  21289419.2354
        26.7504         25.7504
  21931549.3564     993081.75846    766750.00346                  21931555.7084
        18.5004         20.0004
  21247134.4194     913392.52947    711737.27247                  21247139.3174
        27.0004         26.7504
  21321917.3804     508471.35647    396214.18646                  21321923.4624
        27.0004         25.5004
 02  7  2 18 59 15.0010000  0  7G31G 3G14G15G17G18G21
  23988921.5364      30988.99645     18677.61945                  23988929.2284
         8.7504          8.0004
  21813432.7004     511358.15247    353684.99046                  21813438.8994
        24.7504         23.5004
  22781411.6224    -103568.12946    -74327.22746                  22781417.6694
        17.5004         15.7504
  21302549.2394     986976.72847    769075.60246                  21302555.3454
        26.2504         25.5004
  21945701.7784    1067452.33746    824701.07746                  21945708.2594
        18.5004         19.7504
  21260178.9274     981939.27747    765150.31747                  21260183.8374
        27.7504         26.7504
  21329428.0914     547938.28647    426967.63746                  21329434.0444
        27.7504         25.5004
 02  7  2 18 59 30.0010000  0  7G31G 3G14G15G17G18G21
  23989922.9664      36245.91845     22773.97845                  23989931.3134
         9.5004          9.0004
  21820664.1924     549361.25147    383297.79246                  21820670.8724
        24.2504         23.7504
  22780695.5444    -107330.61146    -77258.98746                  22780701.7674
        17.0004         16.0004
  21315752.8104    1056361.79547    823141.86846                  21315758.8454
        26.0004         25.5004
  21959920.3104    1142170.28746    882922.81546                  21959926.8964
        18.7504         19.7504
  21273285.8804    1050818.45547    818822.38647                  21273291.1424
        27.2504         27.0004
  21337000.9194     587735.53247    457978.48246                  21337006.9314
        27.0004         25.0004
 02  7  2 18 59 45.0010000  0  7G31G 3G14G15G17G18G21
  23990990.6304      41856.75145     27146.06145                  23991001.2864
         9.7504          9.2504
  21827972.7244     587766.83747    413224.20646                  21827979.9114
        25.0004         23.7504
  22780042.5834    -110763.03246    -79933.52846                  22780048.8064
        17.7504         16.2504
  21329021.9354    1126090.34547    877475.78046                  21329027.8644
        26.2504         25.0004
  21974202.9354    1217224.65646    941406.71246                  21974209.5564
        19.0004         20.0004
  21286454.4814    1120019.07448    872744.94147                  21286459.4974
        28.0004         27.2504
  21344634.6464     627852.17847    489238.20846                  21344640.7044
        26.7504         25.2504
 02  7  2 19  0  0.0010000  0  7G31G 3G14G15G17G18G21
  23992123.4034      47811.04245     31785.83345                  23992131.5874
         9.7504          8.5004
  21835356.0444     626564.20247    443455.91146                  21835363.0444
        25.0004         24.0004
  22779450.5914    -113876.02146    -82359.17646                  22779457.0134
        18.2504         16.7504
  21342354.2714    1196151.59647    932068.94946                  21342360.2004
        26.5004         25.0004
  21988547.5524    1292604.66446   1000144.33946                  21988554.3374
        19.2504         20.0004
  21299681.6694    1189530.09747    926909.36847                  21299686.7674
        27.2504         27.2504
  21352327.8104     668277.37847    520738.37146                  21352333.7744
        27.7504         25.5004
 02  7  2 19  0 15.0010000  0  7G31G 3G14G15G17G18G21
  23993320.0674      54100.89245     36687.05445                  23993327.5244
         9.7504          8.7504
  21842812.0364     665745.18047    473986.53346                  21842818.7634
        25.5004         23.7504
  22778916.8724    -116677.33546    -84541.95946                  22778923.4464
        17.5004         16.5004
  21355748.2394    1266537.42747    986915.01946                  21355754.2744
        26.5004         25.2504
  22002952.4354    1368302.17447   1059129.37246                  22002959.4934
        20.0004         20.0004
  21312967.0444    1259343.12448    981309.11747                  21312972.0364
        28.0004         27.0004
  21360077.3024     709002.69147    552472.39346                  21360083.3494
        26.7504         25.2504
 02  7  2 19  0 30.0010000  0  7G31G 3G14G15G17G18G21
  23994579.1774      60720.59045     41845.28945                  23994586.6224
         9.2504          8.7504
  21850339.2554     705303.84247    504811.45146                  21850346.0524
        24.5004         23.7504
  22778442.0754    -119172.75646    -86486.38246                  22778449.1574
        16.7504         16.7504
  21369202.4354    1337241.79547   1042009.30746                  21369208.5054
        26.0004         25.2504
  22017416.4034    1444311.25947   1118357.20146                  22017423.2984
        20.2504         20.2504
  21326308.0674    1329451.99747   1035939.39347                  21326313.3764
        27.2504         27.2504
  21367882.7394     750022.16147    584435.62546                  21367888.7044
        26.2504         25.2504
 02  7  2 19  0 45.0010000  0  7G31G 3G14G15G17G18G21
  23995900.7864      67667.78645     47258.68145                  23995906.5524
         9.2504          7.0004
  21857938.7474     745237.57947    535928.63746                  21857945.2634
        24.7504         23.5004
  22778025.1384    -121364.69046    -88194.31846                  22778032.1034
        17.2504         16.2504
  21382717.3884    1408261.98647   1097349.69646                  21382723.2824
        26.7504         25.2504
  22031939.4584    1520629.03347   1177825.56246                  22031945.6814
        21.0004         20.0004
  21339705.2554    1399853.90348   1090798.00347                  21339710.4354
        28.0004         27.5004
  21375744.4424     791333.09247    616625.96746                  21375750.5014
        27.2504         25.5004
 02  7  2 19  1  0.0010000  0  7G31G 3G14G15G17G18G21
  23997284.9664      74942.32345     52927.18345                  23997291.6344
         8.7504          7.5004
  21865608.9664     785546.04247    567337.81346                  21865615.4234
        25.0004         23.5004
  22777665.6384    -123253.16446    -89665.79546                  22777672.6034
        17.0004         17.0004
  21396292.3964    1479597.64347   1152935.90146                  21396298.3964
        27.2504         25.5004
  22046520.8174    1597255.22947   1237534.25846                  22046526.9584
        20.7504         20.0004
  21353158.0284    1470548.25148   1145884.49947                  21353162.9624
        28.5004         27.5004
  21383661.1534     832934.89447    649042.95346                  21383667.1424
        27.7504         25.5004
 02  7  2 19  1 15.0010000  0  7G31G 3G14G15G17G18G21
  23998732.8644      82546.44745     58852.50645                  23998737.5634
         9.5004          8.0004
  21873350.9664     826231.06947    599040.43546                  21873357.4814
        24.0004         23.2504
  22777364.0674    -124835.98246    -90899.10546                  22777371.6884
        16.5004         17.0004
  21409927.5754    1551250.61047   1208769.35947                  21409933.5874
        27.7504         25.7504
  22061161.4664    1674191.70147   1297484.71546                  22061167.6424
        21.0004         19.7504
  21366666.8564    1541536.69848   1201200.16347                  21366671.6144
        28.7504         27.2504
  21391633.2474     874829.28247    681687.93747                  21391639.2594
        27.7504         25.7504
 02  7  2 19  1 30.0010000  0  7G31G 3G14G15G17G18G21
  24000242.9034      90483.14045     65036.94945                  24000249.6064
         9.5004          8.0004
  21881165.5364     867295.55147    631038.72946                  21881171.9584
        25.0004         23.2504
  22777121.8964    -126109.99946    -91891.77346                  22777129.3994
        17.0004         17.5004
  21423624.1614    1623223.68348   1264852.24947                  21423629.9624
        28.5004         25.7504
  22075861.1694    1751441.12347   1357679.03946                  22075867.4384
        20.0004         19.7504
  21380232.1694    1612821.81748   1256746.99747                  21380236.7164
        29.0004         27.5004
  21399661.5674     917018.98247    714563.04146                  21399667.7084
        27.0004         25.5004
 02  7  2 19  1 45.0010000  0  7G31G 3G14G15G17G18G21
  24001818.8254      98764.02745     71489.59545                  24001826.0604
         8.7504          7.5004
  21889054.4974     908750.73147    663341.45146                  21889060.9664
        25.7504         23.5004
  22776940.1304    -127063.81546    -92634.96646                  22776947.4234
        16.7504         17.0004
  21437382.8884    1695527.91147   1321193.18547                  21437388.8884
        27.7504         25.7504
  22090622.6384    1829014.66546   1418125.92446                  22090629.2004
        19.2504         19.5004
  21393855.7864    1684414.67248   1312533.62547                  21393860.3214
        29.0004         27.2504
  21407748.1464     959515.07247    747676.87746                  21407754.1464
        26.5004         25.5004
 02  7  2 19  2  0.0010000  0  7G31G 3G14G15G17G18G21
  24003460.7004     107401.64645     78220.23645                  24003470.5244
         7.5004          8.2504
  21897019.5054     950609.01747    695958.29946                  21897026.3374
        26.2504         24.0004
  22776822.1304    -127684.72846    -93118.72546                  22776829.0604
        16.7504         16.7504
  21451207.1304    1768175.77647   1377801.88546                  21451213.0714
        27.5004         25.2504
  22105449.3024    1906924.78947   1478835.07846                  22105455.9934
        20.2504         19.7504
  21407540.5214    1756327.46248   1368569.55447                  21407545.1494
        28.7504         27.2504
  21415895.4584    1002329.73947    781038.95646                  21415901.4704
        26.2504         25.2504
 02  7  2 19  2 15.0010000  0  7G31G 3G14G15G17G18G21
  24005175.6464     116412.07745     85241.36845                  24005183.5484
         7.7504          8.0004
  21905064.3724     992886.09047    728901.47046                  21905071.1464
        25.2504         24.0004
  22776770.2164    -127956.78646    -93330.66746                  22776776.6034
        16.7504         17.0004
  21465099.8724    1841182.88947   1434690.51546                  21465105.8134
        27.2504         25.0004
  22120341.8644    1985187.17247   1539818.72146                  22120348.7474
        20.2504         19.5004
  21421288.7004    1828575.70548   1424866.87747                  21421293.2944
        29.0004         27.5004
  21424106.5834    1045478.57347    814661.43846                  21424112.6184
        26.5004         25.5004
 02  7  2 19  2 30.0010000  0  7G31G 3G14G15G17G18G21
  24006965.5604     125816.79445     92569.68845                  24006973.3334
         7.5004          8.2504
  21913193.3644    1035603.20547    762187.52646                  21913200.0564
        25.0004         23.7504
  22776788.7244    -127858.55646    -93254.06946                  22776795.4504
        17.0004         17.2504
  21479065.0914    1914570.43747   1491875.59946                  21479071.1384
        27.2504         25.2504
  22135305.9194    2063822.87347   1601093.25546                  22135312.8024
        20.5004         20.0004
  21435104.6854    1901180.28848   1481441.86347                  21435109.1144
        29.0004         27.5004
  21432384.9354    1088982.89847    848560.92046                  21432390.9934
        26.2504         25.2504
 02  7  2 19  2 45.0010000  0  7G31G 3G14G15G17G18G21
  24008834.4034     135633.88945    100219.45845                  24008843.6184
         7.7504          8.0004
  21921409.1614    1078778.32847    795830.46546                  21921415.6884
        25.2504         23.7504
  22776881.0674    -127371.77446    -92874.70546                  22776888.1384
        16.7504         17.5004
  21493105.5604    1988356.31547   1549371.06446                  21493111.6534
        27.0004         25.5004
  22150344.2164    2142849.86647   1662672.69746                  22150351.0994
        20.2504         19.5004
  21448992.2314    1974158.97348   1538308.36647                  21448996.9314
        28.7504         27.2504
  21440734.9894    1132860.39247    882751.17646                  21440741.0834
        26.7504         25.5004
 02  7  2 19  3  0.0010000  0  7G31G 3G14G15G17G18G21
  24010783.2864     145875.85345    108200.20145                  24010792.3604
         7.5004          7.5004
  21929715.0674    1122423.47747    829839.66546                  21929721.2084
        25.5004         23.5004
  22777050.6614    -126484.05246    -92182.90646                  22777057.5444
        18.2504         18.0004
  21507224.9504    2062552.65147   1607186.36746                  21507230.8804
        27.7504         25.2504
  22165459.0834    2222280.14146   1724566.38446                  22165466.1184
        19.7504         19.7504
  21462952.8644    2047523.72448   1595475.69347                  21462957.6814
        28.2504         27.0004
  21449157.7714    1177123.09647    917241.60546                  21449163.7714
        27.0004         25.0004
 02  7  2 19  3 15.0010000  0  7G31G 3G14G15G17G18G21
  24012814.3884     156551.10545    116518.66245                  24012822.6064
         8.0004          8.0004
  21938111.3104    1166546.93547    864221.57246                  21938117.5444
        25.0004         23.5004
  22777296.9114    -125186.93746    -91172.11246                  22777303.8994
        18.2504         18.5004
  21521423.6144    2137167.57447   1665327.83846                  21521429.7084
        27.0004         25.0004
  22180651.9974    2302121.85446   1786780.67946                  22180658.9274
        19.2504         19.5004
  21476989.0364    2121282.46848   1652950.02647                  21476993.5244
        29.0004         27.2504
  21457655.4664    1221779.13447    952038.53046                  21457661.5364
        26.7504         25.5004
 02  7  2 19  3 30.0010000  0  7G31G 3G14G15G17G18G21
  24014927.8334     167654.56945    125170.77645                  24014931.5364
         8.2504          7.5004
  21946597.8334    1211143.50947    898972.14146                  21946604.2784
        25.2504         23.2504
  22777620.9504    -123485.33246    -89846.12546                  22777628.0444
        18.5004         18.2504
  21535700.7314    2212195.75447   1723791.33646                  21535706.7784
        27.5004         25.0004
  22195922.7474    2382369.68946   1849311.42446                  22195929.6534
        19.2504         19.5004
  21491098.4744    2195429.81348   1710727.16747                  21491103.0914
        28.5004         27.0004
  21466227.4974    1266823.13747    987137.75546                  21466233.6384
        27.2504         25.2504
 02  7  2 19  3 45.0010000  0  7G31G 3G14G15G17G18G21
  24017119.8494     179171.27245    134144.84245                  24017126.1424
         9.2504          7.5004
  21955171.1534    1256197.79947    934079.37846                  21955177.8104
        25.0004         23.2504
  22778018.7714    -121394.37446    -88216.74246                  22778025.5214
        19.0004         18.2504
  21550054.3334    2287621.70147   1782564.77746                  21550060.3214
        27.0004         24.5004
  22211268.0214    2463008.33746   1912146.69446                  22211274.6424
        19.7504         19.7504
  21505278.9114    2269950.04847   1768794.87347                  21505284.0094
        27.2504         26.7504
  21474869.6144    1312239.60147   1022527.21046                  21474875.6734
        27.2504         25.5004
 02  7  2 19  4  0.0010000  0  7G31G 3G14G15G17G18G21
  24019386.1924     191082.33245    143426.24645                  24019392.8134
         9.5004          8.2504
  21963828.1694    1301690.70947    969528.39346                  21963834.6854
        24.7504         23.2504
  22778487.2394    -118932.90946    -86298.66346                  22778494.1344
        19.7504         18.2504
  21564479.4664    2363426.33347   1841633.29146                  21564485.4784
        26.2504         24.5004
  22226684.1534    2544018.54847   1975271.50046                  22226690.8924
        20.0004         19.5004
  21519526.9034    2344823.93847   1827138.14947                  21519532.0604
        27.5004         26.7504
  21483579.0914    1358009.24047   1058191.87646                  21483585.0444
        27.2504         25.5004
 02  7  2 19  4 15.0010000  0  7G31G 3G14G15G17G18G21
  24021723.4584     203364.26345    152996.60345                  24021728.7314
         9.2504          8.0004
  21972564.3104    1347598.51147   1005300.69946                  21972570.8964
        25.7504         23.5004
  22779021.7474    -116124.44946    -84110.19746                  22779028.5794
        19.5004         18.2504
  21578972.0524    2439585.87147   1900978.36346                  21578978.0404
        26.2504         24.7504
  22242166.1144    2625376.67446   2038667.39846                  22242172.2784
        19.7504         19.5004
  21533838.0134    2420027.53748   1885738.34447                  21533843.1104
        28.2504         26.7504
  21492351.4354    1404108.17047   1094113.12347                  21492357.3994
        26.7504         25.7504
 02  7  2 19  4 30.0010000  0  7G31G 3G14G15G17G18G21
  24024125.2474     215991.00045    162835.67745                  24024130.8844
         8.7504          8.0004
  21981374.8024    1393894.83747   1041375.75446                  21981381.0954
        26.7504         24.0004
  22779617.3494    -112994.99446    -81671.59746                  22779624.2434
        19.2504         18.2504
  21593527.2474    2516073.94447   1960579.43446                  21593533.2944
        26.5004         24.7504
  22257709.2784    2707056.14146   2102313.70546                  22257715.6654
        19.5004         19.5004
  21548206.3024    2495534.29748   1944574.77347                  21548211.3294
        28.0004         27.0004
  21501181.4034    1450510.00447   1130270.40246                  21501187.4154
        27.0004         25.2504
 02  7  2 19  4 45.0010000  0  7G31G 3G14G15G17G18G21
  24026590.0524     228938.51945    172924.61345                  24026597.2744
         9.0004          8.7504
  21990253.9194    1440555.36447   1077734.60646                  21990262.6884
        26.5004         23.0004
  22780269.6464    -109568.53846    -79001.57346                  22780275.9854
        19.2504         17.5004
  21608140.3414    2592866.20547   2020417.54446                  21608146.3994
        26.0004         24.5004
  22273308.4814    2789032.68946   2166191.50246                  22273314.7514
        18.7504         19.2504
  21562628.1384    2571319.72748   2003628.35447                  21562633.0014
        28.5004         27.0004
  21510064.2244    1497190.16547   1166644.57146                  21510070.2244
        26.7504         24.5004
 02  7  2 19  5  0.0010000  0  7G31G 3G14G15G17G18G21
  24029111.1384     242186.36645    183247.68545                  24029119.0524
         9.2504          8.5004
  21999197.9814    1487559.49047   1114361.18846                  21999205.0054
        26.0004         24.2504
  22780974.2244    -105865.58546    -76116.10346                  22780980.6924
        19.0004         17.2504
  21622807.7474    2669941.92647   2080476.52846                  21622814.0284
        26.5004         25.0004
  22288960.9114    2871285.59646   2230284.64146                  22288967.5914
        19.2504         19.0004
  21577098.7714    2647362.90448   2062882.76347                  21577103.1064
        29.2504         27.0004
  21518996.2394    1544128.01647   1203219.51646                  21519002.1814
        26.7504         25.5004
 02  7  2 19  5 15.0010000  0  7G31G 3G14G15G17G18G21
  24031686.7554     255721.83445    193794.82945                  24031694.0244
         9.2504          8.7504
  22008205.5284    1534894.15247   1151245.34346                  22008212.5284
        25.0004         24.0004
  22781728.8564    -101898.83846    -73025.08046                  22781735.1494
        19.0004         17.2504
  21637525.9034    2747288.03447   2140746.20546                  21637531.9504
        26.5004         24.7504
  22304663.4354    2953801.79246   2294582.93946                  22304670.1384
        19.7504         19.0004
  21591615.9974    2723650.64448   2122327.74647                  21591620.5094
        29.0004         27.2504
  21527974.6534    1591310.36747   1239984.99646                  21527980.7004
        27.0004         25.5004
 02  7  2 19  5 30.0010000  0  8G31G 3G 9G14G15G17G18G21
  24034313.4194     269529.49645    204554.10845                  24034323.5244
         8.2504          8.5004
  22017272.5214    1582543.81947   1188374.94346                  22017279.3644
        24.5004         23.7504
  24460732.8494       9441.43255
         9.0004
  22782530.6534     -97683.58846    -69740.43446                  22782536.6064
        19.0004         17.2504
  21652293.0604    2824888.80447   2201214.31246                  21652299.2824
        26.5004         24.7504
  22320412.9744    3036565.57446   2359074.16146                  22320419.4424
        19.2504         19.0004
  21606176.2944    2800167.16248   2181950.99747                  21606181.1104
        28.7504         27.0004
  21536997.0364    1638721.37347   1276928.64246                  21537002.9894
        27.5004         25.5004
 02  7  2 19  5 45.0010000  0  8G31G 3G 9G14G15G17G18G21
  24036991.2084     283603.10045    215520.61645                  24036999.4854
         8.0004          8.5004
  22026398.3104    1630501.88847   1225744.85246                  22026404.7674
        23.7504         23.2504
  24466158.7944      37951.42045
         9.5004
  22783379.1144     -93226.21746    -66267.09646                  22783385.0914
        19.5004         17.2504
  21667106.7314    2902737.59047   2261875.68646                  21667112.7204
        25.7504         24.7504
  22336208.4424    3119570.47946   2423753.27146                  22336215.0524
        19.7504         19.0004
  21620779.0134    2876905.67648   2241747.23547                  21620783.8064
        28.2504         27.0004
  21546061.3564    1686354.46547   1314045.34146                  21546067.4154
        27.5004         25.2504
 02  7  2 19  6  0.0020000  0  8G31G 3G 9G14G15G17G18G21
  24039718.9084     297936.06145    226689.18045                  24039727.7134
         9.0004          8.0004
  22035582.7364    1678763.68247   1263351.43346                  22035589.1824
        24.5004         23.5004
  24471634.2054      66726.16645
        10.0004
  22784271.4714     -88534.10446    -62610.86146                  22784277.7524
        18.7504         17.7504
  21681967.8224    2980831.82747   2322728.31946                  21681973.9634
        25.5004         24.5004
  22352049.0964    3202813.99746   2488618.31446                  22352055.3654
        19.7504         19.0004
  21635423.5884    2953863.21748   2301714.14347                  21635428.5104
        28.5004         27.0004
  21555166.9794    1734204.77447   1351331.30247                  21555172.9324
        27.7504         25.7504
 02  7  2 19  6 15.0020000  0  8G31G 3G 9G14G15G17G18G21
  24042495.3934     312521.69445    238054.61245                  24042503.3544
         9.7504          8.7504
  22044822.4244    1727317.71947   1301185.73246                  22044828.8574
        25.0004         23.5004
  24477158.8544      95757.06645
        11.2504
  22785208.2294     -83612.41646    -58775.73446                  22785214.6744
        18.2504         17.5004
  21696872.1894    3059155.97347   2383760.09346                  21696878.2604
        25.2504         24.5004
  22367932.2524    3286279.98846   2553656.71746                  22367938.2174
        19.7504         18.5004
  21650106.8854    3031024.38248   2361839.72147                  21650112.0294
        28.5004         27.2504
  21564311.6744    1782260.90647   1388777.64147                  21564317.7914
        27.2504         25.7504
 02  7  2 19  6 30.0020000  0  8G31G 3G 9G14G15G17G18G21
  24045319.1114     327357.22145    249614.79445                  24045327.3654
        10.5004          9.2504
  22054117.3464    1776163.23647   1339247.16746                  22054123.8734
        25.0004         23.2504
  24482731.7054     125042.41245
        11.5004
  22786188.1974     -78464.45346    -54764.28546                  22786194.4794
        19.0004         18.0004
  21711821.1044    3137711.33647   2444972.05146                  21711827.1864
        25.5004         24.0004
  22383857.9944    3369970.02046   2618869.70646                  22383864.0534
        19.7504         18.5004
  21664829.1354    3108390.06548   2422124.66347                  21664834.2444
        28.5004         27.0004
  21573495.3614    1830522.04947   1426383.73946                  21573501.2684
        27.5004         25.5004
 02  7  2 19  6 45.0020000  0  8G31G 3G 9G14G15G17G18G21
  24048189.6744     342441.86045    261369.05645                  24048196.3074
        10.7504          9.7504
  22063467.9394    1825299.13147   1377534.87146                  22063474.0334
        25.0004         22.7504
  24488352.5574     154581.44345      6154.44255                  24488360.0614
        11.5004         10.0004
  22787210.2214     -73091.24446    -50577.30746                  22787216.5844
        19.2504         18.0004
  21726813.7684    3216496.71447   2506363.22646                  21726819.9554
        26.2504         24.2504
  22399826.0964    3453883.00046   2684256.41046                  22399832.3654
        19.2504         18.5004
  21679589.7604    3185958.91648   2482567.92047                  21679594.7994
        28.5004         27.2504
  21582717.7684    1878986.80647   1464148.49246                  21582723.8034
        27.2504         25.2504
 02  7  2 19  7  0.0020000  0  8G31G 3G 9G14G15G17G18G21
  24051104.6114     357771.67545    273314.38445                  24051110.9394
         9.5004          8.5004
  22072872.4714    1874721.32747   1416045.67646                  22072878.4364
        24.7504         22.2504
  24494019.5574     184370.39345     29366.63545                  24494026.4514
         9.7504          9.5004
  22788274.6974     -67496.53046    -46217.73846                  22788280.9204
        19.5004         18.7504
  21741849.3224    3295507.94547   2567930.39446                  21741855.2294
        26.7504         24.2504
  22415835.7214    3538014.68446   2749813.52046                  22415842.3894
        18.5004         18.2504
  21694388.9554    3263726.68448   2543166.17047                  21694393.7834
        29.0004         27.2504
  21591978.6194    1927651.07347   1502068.70246                  21591984.3964
        27.7504         25.5004
 02  7  2 19  7 15.0020000  0  8G31G 3G 9G14G15G17G18G21
  24054068.0334     373342.80545    285447.79645                  24054075.5964
         9.7504          8.7504
  22082330.6744    1924425.64747   1454776.31046                  22082336.8034
        24.7504         22.5004
  24499736.0414     214405.30845     52770.45945                  24499745.4434
        11.2504         10.0004
  22789380.7054     -61684.17946    -41688.58746                  22789387.1504
        19.7504         19.0004
  21756926.6664    3374740.78947   2629670.25446                  21756932.7364
        26.5004         24.2504
  22431885.6894    3622360.81246   2815537.74346                  22431892.1234
        18.0004         18.0004
  21709224.5104    3341689.05148   2603916.06447                  21709229.3614
        28.2504         27.0004
  21601276.4164    1976510.52148   1540141.00247                  21601282.2874
        28.5004         25.7504
 02  7  2 19  7 30.0020000  0  8G31G 3G 9G14G15G17G18G21
  24057078.0574     389159.61445    297772.59745                  24057084.9864
        10.0004          8.5004
  22091843.6194    1974416.17647   1493729.96246                  22091849.9474
        24.2504         22.5004
  24505499.1434     244690.52846     76369.39345                  24505507.4324
        12.0004          9.7504
  22790529.2134     -55649.88047    -36986.48946                  22790535.9864
        21.0004         19.7504
  21772046.8464    3454199.38947   2691586.02846                  21772053.0334
        25.5004         24.5004
  22447978.4324    3706925.55346   2881432.31446                  22447984.7254
        18.5004         18.0004
  21724097.8694    3419849.86848   2664820.58747                  21724102.7914
        28.0004         26.7504
  21610611.7364    2025568.93348   1578368.34047                  21610617.7134
        28.0004         25.7504
 02  7  2 19  7 45.0020000  0  8G31G 3G 9G14G15G17G18G21
  24060133.6354     405217.64945    310285.34145                  24060141.8304
         9.5004          9.0004
  22101410.3774    2024688.22647   1532902.98446                  22101416.7524
        24.7504         22.7504
  24511309.9324     275221.59246    100159.83445                  24511316.9084
        12.7504          9.5004
  22791718.8464     -49398.16247    -32114.97046                  22791725.3854
        21.0004         19.7504
  21787209.6664    3533878.89447   2753673.93246                  21787215.6544
        25.5004         24.0004
  22464111.1274    3791704.08246   2947493.47246                  22464117.3964
        18.0004         18.0004
  21739008.4554    3498204.16348   2725875.87947                  21739013.3654
        28.5004         27.0004
  21619983.9084    2074821.70147   1616747.13046                  21619990.0024
        27.2504         25.5004
 02  7  2 19  8  0.0020000  0  8G31G 3G 9G14G15G17G18G21
  24063234.1354     421513.08045    322983.12945                  24063240.9434
         9.2504          8.2504
  22111029.9164    2075237.72147   1572292.19046                  22111036.2684
        26.0004         23.2504
  24517165.2134     305994.85646    124139.02845                  24517172.3304
        13.0004         10.5004
  22792949.7684     -42932.74447    -27076.93146                  22792955.6864
        22.2504         19.7504
  21802413.2524    3613775.26747   2815930.82346                  21802419.0764
        25.2504         24.0004
  22480283.5964    3876692.30146   3013718.01646                  22480289.9824
        17.5004         17.5004
  21753954.8934    3576747.82948   2787078.73247                  21753959.9794
        28.7504         27.2504
  21629392.5024    2124264.56247   1655274.04246                  21629398.6664
        26.2504         25.5004
 02  7  2 19  8 15.0020000  0  8G31G 3G 9G14G15G17G18G21
  24066382.1584     438050.33245    335869.30145                  24066390.4004
         9.2504          8.2504
  22120702.6744    2126068.76247   1611900.79246                  22120709.2484
        25.7504         23.5004
  24523068.2914     337014.65346    148310.30845                  24523076.4634
        13.0004         11.0004
  22794221.0494     -36249.27147    -21868.98346                  22794227.3424
        21.5004         19.7504
  21817658.6354    3693892.50647   2878359.81846                  21817664.7874
        24.2504         24.0004
  22496497.1194    3961894.13146   3080109.03046                  22496503.6234
        17.7504         17.5004
  21768938.0804    3655484.62048   2848432.06847                  21768943.2014
        29.0004         27.2504
  21638838.4554    2173901.68247   1693952.32246                  21638844.3854
        27.2504         25.2504
 02  7  2 19  8 30.0020000  0  8G31G 3G 9G14G15G17G18G21
  24069575.1584     454827.37245    348942.37145                  24069581.2994
         9.7504          7.7504
  22130428.4004    2177178.98947   1651726.94446                  22130435.0214
        25.5004         23.5004
  24529017.3694     368279.01246    172672.19045                  24529025.4594
        12.7504         10.7504
  22795534.2364     -29349.67147    -16492.61446                  22795540.4004
        22.0004         19.7504
  21832946.0184    3774228.39647   2940959.18546                  21832952.2404
        23.7504         24.0004
  22512750.5104    4047307.50946   3146664.87446                  22512757.0254
        17.7504         17.5004
  21783957.3144    3734412.16748   2909934.04247                  21783962.5534
        28.5004         27.0004
  21648320.5334    2223730.67247   1732780.11546                  21648326.4634
        27.2504         25.0004
 02  7  2 19  8 45.0020000  0  8G31G 3G 9G14G15G17G18G21
  24072812.7444     471843.91545    362202.06345                  24072818.8964
         9.5004          8.7504
  22140207.0334    2228567.84947   1691770.21046                  22140213.3384
        24.5004         23.2504
  24535013.5334     399787.65846    197224.39145                  24535021.8574
        12.5004         11.0004
  22796888.5724     -22234.20647    -10948.04246                  22796894.7364
        22.2504         20.0004
  21848274.8854    3854782.22847   3003728.38246                  21848281.1074
        24.2504         24.2504
  22529045.0104    4132931.66546   3213384.96446                  22529051.0454
        18.0004         17.5004
  21799012.5644    3813529.71348   2971584.07647                  21799017.6974
        28.2504         27.2504
  21657839.2524    2273750.81747   1771756.85046                  21657845.1234
        27.5004         25.0004
 02  7  2 19  9  0.0020000  0  8G31G 3G 9G14G15G17G18G21
  24076095.9864     489097.25245    375646.22445                  24076101.8464
         9.0004          8.0004
  22150038.4004    2280232.34347   1732028.25546                  22150045.1274
        24.0004         23.7504
  24541055.5804     431538.00646    221964.96145                  24541063.4824
        12.7504         10.7504
  22798282.7604     -14905.63847     -5237.42946                  22798288.9244
        21.5004         19.7504
  21863644.4084    3935550.97147   3066665.05046                  21863650.8654
        23.7504         24.0004
  22545378.8694    4218763.58246   3280266.94246                  22545384.9864
        18.7504         17.7504
  21814103.9794    3892834.15448   3033379.74147                  21814109.0644
        28.5004         26.7504
  21667393.4864    2323958.95847   1810880.08646                  21667399.2994
        27.5004         25.0004
 02  7  2 19  9 15.0020000  0  8G31G 3G 9G14G15G17G18G21
  24079423.1584     506586.23045    389274.06645                  24079432.9714
         8.5004          8.7504
  22159922.1974    2332171.09247   1772499.99446                  22159928.9244
        23.7504         23.7504
  24547142.7054     463528.91246    246892.97445                  24547150.0684
        12.2504         11.0004
  22799717.4244      -7365.11647       638.34846                  22799723.5884
        21.5004         19.7504
  21879054.9554    4016533.25847   3129768.10746                  21879061.4714
        24.0004         24.0004
  22561750.7444    4304801.93746   3347309.77946                  22561756.9794
        18.0004         17.7504
  21829230.2054    3972323.79248   3095319.71347                  21829235.0334
        28.5004         26.7504
  21676983.2364    2374353.58247   1850148.62946                  21676989.0254
        27.7504         25.2504
 02  7  2 19  9 30.0020000  0  8G31G 3G 9G14G15G17G18G21
  24082796.3304     524313.00845    403087.16745                  24082805.4754
         8.0004          9.2504
  22169858.1894    2384385.88347   1813186.82946                  22169865.1314
        24.2504         23.7504
  24553276.7604     495762.47545    272010.05245                  24553284.8264
        11.7504         10.7504
  22801193.2444        389.54947      6681.00046                  22801199.7364
        21.2504         19.5004
  21894506.6194    4097730.80147   3193038.89846                  21894513.1114
        24.5004         24.2504
  22578162.9004    4391048.41746   3414514.79046                  22578169.8074
        18.0004         18.0004
  21844392.1354    4052000.23748   3157405.24947                  21844396.9754
        28.7504         26.5004
  21686608.4164    2424936.52647   1889563.91146                  21686614.2874
        26.7504         25.0004
 02  7  2 19  9 45.0020000  0  8G31G 3G 9G14G15G17G18G21
  24086215.2604     542280.67145    417087.97545                  24086224.1114
         8.2504          9.2504
  22179847.6744    2436879.55347   1854090.97246                  22179854.6864
        24.2504         24.0004
  24559457.4474     528241.90246    297318.73645                  24559464.9514
        12.5004         10.2504
  22802710.0804       8361.54047     12892.99246                  22802716.3734
        21.2504         19.5004
  21909999.9084    4179146.51047   3256479.68446                  21910006.1544
        25.5004         24.0004
  22594615.4474    4477505.93546   3481884.25146                  22594622.4824
        18.5004         18.0004
  21859590.1274    4131866.24848   3219638.49947                  21859595.1664
        28.0004         26.5004
  21696270.2214    2475710.55347   1929128.09046                  21696276.3034
        26.0004         24.5004
 02  7  2 19 10  0.0020000  0  8G31G 3G 9G14G15G17G18G21
  24089678.6824     560482.58445    431271.32445                  24089687.2994
         8.5004          9.7504
  22189888.6584    2489645.20747   1895207.05346                  22189896.0684
        23.5004         23.5004
  24565683.0024     560960.56045    322813.81245                  24565691.7484
        11.7504         11.0004
  22804267.2914      16544.08647     19269.04946                  22804273.2214
        21.0004         19.7504
  21925533.2364    4260773.43547   3320085.04846                  21925539.3654
        26.0004         24.5004
  22611106.5644    4564167.49446   3549412.69546                  22611113.7054
        18.2504         17.7504
  21874823.3934    4211914.74148   3282013.94247                  21874828.1624
        29.7504         27.0004
  21705967.4864    2526668.48247   1968835.57446                  21705973.4044
        27.0004         25.0004
 02  7  2 19 10 15.0020000  0  8G31G 3G 9G14G15G17G18G21
  24093187.9714     578918.01945    445636.57245                  24093195.4984
         9.0004         10.0004
  22199981.0574    2542681.81947   1936534.28046                  22199988.0104
        24.0004         23.2504
  24571954.0964     593917.61245    348494.66345                  24571961.4594
        11.5004         10.7504
  22805863.5964      24936.48947     25808.63546                  22805869.9594
        20.5004         19.7504
  21941106.6274    4342610.54347   3383854.19746                  21941112.6044
        27.0004         24.5004
  22627635.5494    4651032.01046   3617099.31046                  22627642.4554
        17.0004         17.5004
  21890090.6974    4292144.40148   3344530.55747                  21890095.1864
        29.7504         27.0004
  21715699.3854    2577809.20547   2008685.49846                  21715705.4674
        26.5004         24.7504
 02  7  2 19 10 30.0020000  0  8G31G 3G 9G14G15G17G18G21
  24096741.3544     597590.77745    460186.82045                  24096748.9634
         9.0004         10.0004
  22210125.9864    2595993.04947   1978075.49446                  22210132.3964
        24.5004         23.2504
  24578272.1114     627117.05045    374364.39645                  24578278.7914
        11.0004         10.0004
  22807501.7604      33542.60547     32514.73946                  22807508.1584
        20.2504         19.7504
  21956720.1114    4424661.27247   3447789.80946                  21956726.1584
        26.5004         24.7504
  22644204.8934    4738102.90246   3684946.71946                  22644212.1154
        17.0004         17.0004
  21905393.0574    4372558.80748   3407191.13147                  21905397.5684
        29.7504         27.0004
  21725466.8614    2629136.28047   2048680.62146                  21725472.8384
        27.2504         25.2504
 02  7  2 19 10 45.0020000  0  8G31G 3G 9G14G15G17G18G21
  24100338.4714     616495.11645    474917.47545                  24100347.2754
         9.2504          9.5004
  22220321.8614    2649572.78047   2019825.93546                  22220328.3074
        24.5004         23.0004
  24584635.2604     660553.05645    400418.45245                  24584642.4244
        11.5004         10.2504
  22809178.4394      42356.74146     39382.95046                  22809185.0844
        19.5004         19.5004
  21972373.2754    4506919.60047   3511887.18146                  21972379.5924
        26.0004         24.5004
  22660812.2294    4825374.27646   3752950.36246                  22660818.8854
        16.5004         16.5004
  21920729.1584    4453151.66048   3469990.74947                  21920733.9984
        29.0004         26.7504
  21735268.1504    2680643.62147   2088816.21246                  21735274.2444
        26.7504         25.2504
 02  7  2 19 11  0.0020000  0  8G31G 3G 9G14G15G17G18G21
  24103981.0574     635635.56245    489832.11645                  24103990.6704
         9.2504          9.5004
  22230570.2214    2703425.17647   2061788.83346                  22230576.3734
        25.2504         23.2504
  24591043.5254     694230.18745    426660.40545                  24591051.5804
        10.0004         10.5004
  22810896.2834      51383.42846     46416.78646                  22810903.2134
        19.7504         19.5004
  21988067.0184    4589389.86647   3576149.70246                  21988073.2754
        26.0004         24.5004
  22677458.0964    4912850.22346   3821113.39546                  22677465.3074
        16.0004         16.7504
  21936100.4324    4533926.95248   3532932.53847                  21936105.1784
        29.7504         27.0004
  21745104.8854    2732335.35747   2129095.49746                  21745110.7794
        26.7504         24.7504
 02  7  2 19 11 15.0020000  0  8G31G 3G 9G14G15G17G18G21
  24107666.6584     655004.49645    504924.78845                  24107677.2684
         9.7504         10.0004
  22240868.2054    2757542.42047   2103958.11946                  22240874.1824
        26.2504         23.2504
  24597496.9474     728140.97145    453084.40245                  24597506.6434
        10.2504         10.0004
  22812653.1044      60614.97447     53610.25746                  22812659.8184
        20.0004         19.5004
  22003799.4394    4672064.04447   3640571.11046                  22003805.5574
        25.7504         24.5004
  22694142.1044    5000522.83146   3889429.66646                  22694148.9754
        16.2504         16.5004
  21951504.6744    4614876.67948   3596010.23847                  21951509.4794
        29.5004         27.0004
  21754974.8614    2784203.51547   2169512.24246                  21754980.9434
        27.0004         25.2504
 02  7  2 19 11 30.0020000  0  8G31G 3G 9G14G15G17G18G21
  24111395.8614     674602.93345    520196.32245                  24111405.3574
         9.5004         10.0004
  22251216.8774    2811925.20447   2146334.31846                  22251222.9474
        26.2504         23.5004
  24603993.4324     762286.37445    479691.24945                  24604001.6274
         8.0004          9.5004
  22814449.2604      70052.42647     60964.17746                  22814456.1194
        20.2504         19.7504
  22019570.4864    4754942.81547   3705151.94646                  22019576.6274
        25.5004         24.5004
  22710863.7834    5088392.93846   3957899.83846                  22710870.0294
        16.7504         16.5004
  21966941.9714    4696001.48648   3659224.37247                  21966946.4824
        28.7504         26.7504
  21764878.9864    2836248.71147   2210066.94246                  21764885.0574
        27.0004         25.0004
 02  7  2 19 11 45.0020000  0  8G31G 3G 9G14G15G17G18G21
  24115169.1274     694431.57145    535647.24445                  24115178.6584
         9.5004         10.2504
  22261616.2054    2866573.98447   2188917.77346                  22261622.3114
        25.5004         23.2504
  24610536.0104     796667.19845    506481.52145                  24610544.4754
         8.0004         10.0004
  22816284.4554      79696.51747     68479.10046                  22816291.0414
        21.5004         20.0004
  22035380.9864    4838026.66047   3769892.57846                  22035387.0684
        26.0004         24.2504
  22727622.0964    5176460.88746   4026524.17546                  22727629.0964
        16.2504         16.7504
  21982412.9474    4777301.52648   3722575.04847                  21982417.5064
        29.0004         26.7504
  21774816.1824    2888471.29347   2250759.86646                  21774822.1584
        26.2504         25.0004
 02  7  2 19 12  0.0020000  0  8G31G 3G 9G14G15G17G18G21
  24118984.8464     714489.18745    551276.55645                  24118994.3544
         8.7504          9.7504
  22272065.2364    2921487.08447   2231707.19846                  22272071.9394
        24.0004         23.7504
  24617123.5104     831282.08845    533454.21445                  24617131.0254
         8.7504          9.7504
  22818158.2604      89546.02647     76154.09246                  22818164.7994
        21.0004         19.7504
  22051230.0414    4921313.95647   3834791.74546                  22051236.1354
        25.7504         24.5004
  22744418.3304    5264725.03746   4095301.39846                  22744424.8694
        16.5004         16.7504
  21997916.8144    4858775.22048   3786061.03547                  21997921.4904
        28.7504         26.5004
  21784787.2604    2940869.66647   2291589.77146                  21784793.2604
        26.2504         24.5004
 02  7  2 19 12 15.0020000  0  8G31G 3G 9G14G15G17G18G21
  24122847.7054     734781.60745    567088.85045                  24122856.2644
         9.0004          9.2504
  22282566.4634    2976670.14547   2274706.98446                  22282573.1664
        24.5004         23.7504
  24623755.0334     866136.92645    560613.83845                  24623762.7364
         7.5004          9.5004
  22820072.8224      99606.79647     83993.69546                  22820078.9284
        22.0004         20.0004
  22067118.4864    5004810.22047   3899853.74546                  22067124.4394
        25.2504         24.2504
  22761253.1194    5353190.97646   4164235.85546                  22761259.9394
        16.5004         17.0004
  22013454.7604    4940427.84548   3849686.45147                  22013459.5064
        28.5004         26.5004
  21794792.9794    2993449.30747   2332560.92546                  21794799.0844
        26.2504         24.5004
 02  7  2 19 12 30.0020000  0  8G31G 3G 9G14G15G17G18G21
  24126751.7444     755301.24645    583078.23145                  24126759.4124
         9.2504          9.2504
  22293117.4084    3032115.30047   2317911.00046                  22293123.9364
        25.2504         24.2504
  24630433.3074     901224.22245    587954.65945                  24630442.1464
         7.7504          9.0004
  22822026.2604     109871.24247     91992.00246                  22822032.2014
        22.2504         20.2504
  22083045.2994    5088507.48047   3965072.36346                  22083051.4394
        24.5004         24.0004
  22778123.5884    5441850.75746   4233321.35446                  22778130.1394
        15.7504         16.2504
  22029024.7214    5022251.39847   3913445.06347                  22029029.7254
        27.2504         26.0004
  21804831.3304    3046202.22847   2373667.09346                  21804837.3424
        26.0004         24.5004
 02  7  2 19 12 45.0020000  0  8G31G 3G 9G14G15G17G18G21
  24130701.8694     776056.25045    599250.97145                  24130710.3694
         9.7504          9.2504
  22303719.4864    3087830.37047   2361325.32746                  22303725.9204
        25.5004         24.5004
  24637155.8854     936552.20845    615482.98645                  24637164.3964
         7.7504          9.2504
  22824019.9944     120347.57947    100155.43046                  22824025.8544
        23.2504         20.5004
  22099012.4714    5172413.70447   4030453.81046                  22099018.6004
        25.2504         24.0004
  22795033.5254    5530712.28646   4302564.07046                  22795040.6314
        15.2504         16.2504
  22044629.4164    5104253.63047   3977342.89747                  22044634.6664
        27.7504         25.7504
  21814904.5104    3099136.27947   2414914.40846                  21814910.4754
        26.2504         24.7504
 02  7  2 19 13  0.0020000  0  8G31G 3G 9G14G15G17G18G21
  24134694.0334     797037.99745    615600.40045                  24134702.8964
         9.7504          9.0004
  22314371.5884    3143806.52247   2404943.10446                  22314377.9044
        25.5004         24.2504
  24643921.4004     972112.23244    643192.11645                  24643930.9904
         6.7504          9.0004
  22826052.3144     131027.13947    108477.19346                  22826058.3384
        23.5004         20.5004
  22115017.4634    5256519.95247   4095991.11946                  22115023.3814
        25.2504         24.0004
  22811980.2054    5619766.66446   4371957.05146                  22811987.3694
        15.0004         15.7504
  22060266.1274    5186425.54047   4041372.95247                  22060271.1314
        27.7504         26.0004
  21825010.6744    3152242.24947   2456295.68546                  21825016.8504
        27.0004         24.7504
 02  7  2 19 13 15.0030000  0  8G31G 3G 9G14G15G17G18G21
  24138730.6324     818250.62245    632129.74245                  24138738.2654
         9.2504          9.0004
  22325074.2964    3200049.87647   2448769.08746                  22325080.4834
        25.2504         24.0004
  24650734.5624    1007909.38244    671086.04845                  24650742.8154
         7.2504          8.7504
  22828123.8124     141913.43947    116960.09046                  22828129.8704
        23.2504         20.7504
  22131062.3274    5340834.21447   4161690.51946                  22131068.4334
        26.2504         24.0004
  22828964.8664    5709022.08146   4441506.68646                  22828971.4294
        14.7504         16.0004
  22075936.7104    5268774.72847   4105541.14747                  22075941.6444
        27.2504         25.7504
  21835149.8274    3205526.09547   2497815.56446                  21835155.8864
        26.5004         24.7504
 02  7  2 19 13 30.0030000  0  8G31G 3G 9G14G15G17G18G21
  24142809.1164     839687.10945    648833.51045                  24142817.6284
         8.7504          8.7504
  22335826.1634    3256548.48947   2492793.97246                  22335832.6554
        26.5004         24.2504
  24657589.1474    1043934.69144    699157.73545                  24657598.0464
         7.2504          9.5004
  22830233.7804     153000.76847    125599.61446                  22830239.4994
        23.2504         20.7504
  22147143.9294    5425340.81147   4227539.79146                  22147149.8584
        27.0004         24.2504
  22845984.9994    5798462.36346   4511200.36546                  22845991.5384
        15.0004         15.7504
  22091638.1944    5351285.69947   4169835.40247                  22091643.4334
        27.7504         25.7504
  21845321.0934    3258976.04347   2539464.88646                  21845327.1164
        26.0004         24.2504
 02  7  2 19 13 45.0030000  0  8G31G 3G 9G14G15G17G18G21
  24146932.1874     861348.25845    665712.36745                  24146939.7024
         9.5004          8.7504
  22346626.2184    3313305.17047   2537019.95646                  22346632.2184
        26.0004         24.5004
  24664487.6324    1080189.99044    727408.66745                  24664495.8864
         7.2504          9.0004
  22832381.5624     164289.34447    134395.95646                  22832387.6204
        23.2504         21.0004
  22163261.9214    5510044.48447   4293542.62646                  22163268.0504
        25.7504         24.2504
  22863040.9604    5888092.44846   4581041.93946                  22863047.8904
        15.0004         15.5004
  22107370.9604    5433962.90647   4234259.20046                  22107376.2804
        27.0004         25.5004
  21855524.1324    3312594.99247   2581245.88646                  21855530.0974
        26.2504         24.2504
 02  7  2 19 14  0.0030000  0  8G31G 3G 9G14G15G17G18G21
  24151095.5464     883230.30745    682763.37145                  24151103.8704
         9.2504          9.2504
  22357475.1554    3370315.79347   2581443.81846                  22357481.5424
        26.2504         24.2504
  24671430.4214    1116671.46145    755835.79345                  24671439.4484
         7.5004          9.5004
  22834567.1554     175775.28647    143346.09246                  22834573.5074
        22.5004         20.5004
  22179417.1404    5594941.16447   4359695.86446                  22179423.3044
        25.5004         24.2504
  22880133.2884    5977908.25146   4651028.24646                  22880140.1834
        15.5004         16.0004
  22123134.8974    5516802.06747   4298809.18546                  22123139.9604
        27.5004         25.5004
  21865758.8824    3366378.75447   2623155.31246                  21865764.8124
        25.7504         24.2504
 02  7  2 19 14 15.0030000  0  8G31G 3G 9G14G15G17G18G21
  24155300.7024     905333.95045    699987.01945                  24155308.2294
         8.7504          9.2504
  22368372.0774    3427580.82447   2626065.91246                  22368378.6874
        26.0004         24.5004
  24678417.2414    1153379.87145    784439.77645                  24678425.3904
         8.7504          9.7504
  22836789.9294     187459.34747    152450.60846                  22836796.6794
        21.0004         20.5004
  22195609.0384    5680031.17247   4425999.73446                  22195615.7884
        25.0004         24.2504
  22897259.7264    6067910.15146   4721159.54546                  22897266.3234
        16.0004         16.0004
  22138929.3434    5599803.40647   4363485.54647                  22138934.5584
        27.5004         25.7504
  21876025.0384    3420327.72947   2665193.47946                  21876031.1324
        25.5004         24.5004
 02  7  2 19 14 30.0030000  0  8G31G 3G 9G14G15G17G18G21
  24159551.3124     927661.90645    717385.46045                  24159558.6874
        10.2504          9.7504
  22379317.9914    3485102.78747   2670888.21746                  22379324.7064
        25.2504         24.2504
  24685446.7414    1190318.07645    813222.80545                  24685454.6444
         9.5004          9.5004
  22839051.7884     199344.31847    161711.67946                  22839058.3864
        21.0004         20.5004
  22211838.5224    5765317.00647   4492456.19446                  22211845.0034
        25.0004         24.2504
  22914422.2964    6158100.60846   4791437.78146                  22914428.9174
        16.2504         16.2504
  22154755.2414    5682969.30948   4428290.14047                  22154760.2924
        28.0004         25.7504
  21886323.2264    3474444.42647   2707362.33746                  21886329.1554
        25.7504         24.2504
 02  7  2 19 14 45.0030000  0  8G31G 3G 9G14G15G17G18G21
  24163842.9374     950213.30645    734958.00745                  24163850.0894
        11.0004          9.7504
  22390312.6324    3542880.39247   2715909.72246                  22390319.3004
        25.0004         24.0004
  24692519.1794    1227485.23045    842184.23945                  24692526.5654
         9.7504          9.5004
  22841351.3904     211429.22747    171128.53546                  22841357.8124
        21.2504         20.5004
  22228105.5464    5850797.48947   4559064.33846                  22228111.9684
        25.5004         24.0004
  22931620.8044    6248478.44846   4861862.02446                  22931627.4014
        16.2504         16.2504
  22170612.9764    5766298.52448   4493221.98747                  22170617.7694
        29.0004         26.2504
  21896653.2964    3528727.45547   2749660.80846                  21896659.2844
        26.2504         24.2504
 02  7  2 19 15  0.0030000  0  8G31G 3G 9G14G15G17G18G21
  24168176.9294     972985.70745    752702.74945                  24168182.6364
        11.5004         10.2504
  22401355.7654    3600910.82347   2761128.22946                  22401362.1284
        25.5004         23.7504
  24699633.3904    1264878.78245    871322.10745                  24699642.2294
         9.0004          9.7504
  22843689.0074     223711.69047    180699.32846                  22843695.1244
        21.7504         20.0004
  22244408.1084    5936469.80047   4625821.95146                  22244414.4254
        25.2504         24.0004
  22948854.0154    6339040.77746   4932430.04246                  22948860.7184
        16.0004         16.0004
  22186500.1164    5849788.05348   4558278.75547                  22186504.7334
        28.7504         26.2504
  21907013.5694    3583174.07547   2792086.74946                  21907019.5584
        25.2504         24.0004
 02  7  2 19 15 15.0030000  0  8G31G 3G 9G14G15G17G18G21
  24172552.1164     995980.37345    770620.68645                  24172558.7374
        10.7504          9.5004
  22412446.8124    3659195.08847   2806544.53246                  22412453.1754
        25.5004         24.0004
  24706793.6554    1302500.13945    900637.46745                  24706801.9334
        10.0004          9.7504
  22846064.4134     236193.03747    190425.09146                  22846070.4254
        22.2504         20.2504
  22260747.4684    6022334.95647   4692729.84246                  22260753.5154
        25.0004         24.0004
  22966122.7414    6429788.62946   5003142.60846                  22966130.1754
        16.0004         16.0004
  22202418.3974    5933438.70148   4623461.07247                  22202423.1904
        29.0004         26.5004
  21917405.7654    3637785.24747   2834640.91046                  21917411.6834
        25.0004         24.0004
 02  7  2 19 15 30.0030000  0  8G31G 3G 9G14G15G17G18G21
  24176968.7414    1019194.52745    788709.63645                  24176975.2694
        10.5004          8.7504
  22423585.6404    3717730.29347   2852156.37146                  22423591.9334
        25.0004         23.5004
  24713995.0934    1340346.43745    930128.11245                  24714003.3824
         9.7504          9.5004
  22848476.7724     248870.51747    200303.68746                  22848482.5154
        22.7504         20.7504
  22277123.2964    6108389.91547   4759785.63146                  22277129.3084
        24.7504         23.2504
  22983426.2264    6520719.08046   5073997.47646                  22983433.3194
        15.7504         15.7504
  22218367.0774    6017247.41648   4688766.55547                  22218371.6714
        30.2504         26.7504
  21927828.3194    3692557.57747   2877320.65846                  21927834.3314
        25.0004         24.0004
 02  7  2 19 15 45.0030000  0  8G31G 3G 9G14G15G17G18G21
  24181428.9134    1042626.95645    806968.74245                  24181434.1284
        11.2504          9.5004
  22434771.7804    3776514.87547   2897962.52746                  22434778.3434
        24.7504         23.5004
  24721238.1014    1378416.59245    959793.19445                  24721246.1204
         8.2504          9.0004
  22850925.8354     261742.95147    210334.21046                  22850931.8704
        21.7504         21.0004
  22293534.9604    6194633.15547   4826988.13246                  22293541.0194
        24.5004         23.2504
  23000763.8354    6611830.38646   5144993.26046                  23000771.1044
        15.2504         16.2504
  22234344.7964    6101212.50548   4754193.88747                  22234349.6124
        29.0004         26.2504
  21938282.2414    3747489.69147   2920124.90646                  21938288.2294
        26.0004         24.2504
 02  7  2 19 16  0.0030000  0  8G31G 3G 9G14G15G17G18G21
  24185928.5224    1066274.89845    825395.72245                  24185934.0074
        10.7504          9.2504
  22446004.7804    3835545.62447   2943960.51446                  22446011.1084
        24.7504         23.7504
  24728524.4444    1416707.66645    989630.43545                  24728532.3944
         8.7504          8.7504
  22853411.8744     274807.46047    220514.39446                  22853418.0624
        21.7504         21.0004
  22309981.5224    6281061.46547   4894334.84446                  22309987.5344
        24.7504         23.5004
  23018136.1324    6703119.61946   5216127.68946                  23018143.1904
        15.7504         16.0004
  22250351.8434    6185330.75248   4819740.57147                  22250356.6474
        28.7504         26.2504
  21948765.3584    3802578.38947   2963051.16646                  21948771.3124
        26.5004         24.2504
 02  7  2 19 16 15.0030000  0  8G31G 3G 9G14G15G17G18G21
  24190470.5304    1090139.67645    843991.66845                  24190476.1204
        11.0004          9.0004
  22457285.2264    3894823.56147   2990151.10346                  22457291.7064
        24.7504         23.5004
  24735854.3434    1455221.10845   1019640.93645                  24735862.6674
         9.0004          9.5004
  22855934.2654     288065.41047    230845.31746                  22855940.4054
        21.2504         20.7504
  22326464.2494    6367675.94947   4961826.62246                  22326470.2494
        25.2504         23.5004
  23035542.1014    6794587.71946   5287401.48846                  23035549.0654
        15.7504         16.0004
  22266388.5694    6269603.07548   4885407.31247                  22266393.3044
        29.2504         26.0004
  21959277.9604    3857824.52647   3006100.10746                  21959284.0194
        26.0004         24.2504
 02  7  2 19 16 30.0030000  0  8G31G 3G 9G14G15G17G18G21
  24195053.0224    1114224.70345    862759.24745                  24195060.2224
        11.0004         10.2504
  22468613.3584    3954351.96147   3036536.85746                  22468619.8974
        25.5004         24.0004
  24743225.5304    1493960.29445   1049827.32845                  24743233.8904
         9.2504          9.0004
  22858495.0544     301520.31347    241329.70146                  22858501.3584
        21.7504         21.0004
  22342982.1874    6454479.72047   5029465.88546                  22342988.1874
        25.2504         23.5004
  23052982.3354    6886237.76846   5358817.06746                  23052989.4174
        15.7504         15.7504
  22282454.8044    6354032.42348   4951196.40147                  22282459.4444
        28.7504         26.0004
  21969821.5464    3913231.10747   3049274.07446                  21969827.5344
        26.2504         24.5004
 02  7  2 19 16 45.0030000  0  8G31G 3G 9G14G15G17G18G21
  24199677.0074    1138527.71845    881696.68145                  24199684.5114
        10.0004          9.7504
  22479988.5624    4014128.10847   3083115.66646                  22479995.0074
        26.2504         24.0004
  24750641.5304    1532923.11245   1080188.02545                  24750648.8584
        10.5004         10.2504
  22861092.5074     315169.92647    251965.80946                  22861098.5074
        21.7504         21.0004
  22359536.0074    6541470.18347   5097250.63946                  22359542.1124
        25.0004         23.5004
  23070456.4764    6978067.35846   5430372.53346                  23070463.7804
        15.2504         15.7504
  22298550.4524    6438616.04548   5017105.71247                  22298555.0814
        28.2504         26.0004
  21980394.9524    3968795.59347   3092571.07546                  21980401.0224
        25.5004         24.2504
 02  7  2 19 17  0.0030000  0  8G31G 3G 9G14G15G17G18G21
  24204342.7964    1163042.72745    900799.31145                  24204349.6404
        10.0004         10.0004
  22491409.6634    4074145.79747   3129882.68646                  22491416.0264
        27.0004         24.7504
  24758095.3744    1572103.63645   1110718.31845                  24758102.9954
         9.2504          9.5004
  22863725.8664     329008.23847    262748.94846                  22863732.3824
        21.7504         20.7504
  22376124.0074    6628641.14347   5165176.04646                  22376130.1244
        24.2504         23.0004
  23087963.7264    7070070.10246   5502062.94046                  23087971.4874
        14.7504         16.5004
  22314674.5384    6523347.66848   5083130.34547                  22314679.0154
        28.7504         25.7504
  21990997.2654    4024511.77847   3135986.29646                  21991003.4524
        25.2504         24.2504
 02  7  2 19 17 15.0030000  0  8G31G 3G 9G14G15G17G18G21
  24209050.5544    1187776.01145    920072.04345                  24209056.1084
        11.2504          9.2504
  22502877.5774    4134410.96647   3176842.55546                  22502883.9054
        26.5004         24.5004
  24765593.6794    1611508.05445   1141423.06445                  24765602.6714
         9.2504         10.0004
  22866396.3044     343041.53047    273684.02546                  22866402.5624
        22.0004         21.0004
  22392747.7024    6715998.47247   5233246.66646                  22392753.6794
        24.5004         22.7504
  23105506.3744    7162251.89746   5573892.87846                  23105513.3394
        15.7504         16.2504
  22330827.8664    6608233.03748   5149274.78147                  22330832.2024
        29.5004         25.7504
  22001629.6324    4080385.66047   3179524.39446                  22001635.5264
        25.2504         24.2504
 02  7  2 19 17 30.0030000  0  8G31G 3G 9G14G15G17G18G21
  24213798.3664    1212726.37246    939513.91245                  24213804.0854
        12.2504          9.5004
  22514392.5694    4194922.09147   3223994.07546                  22514398.9794
        26.7504         24.7504
  24773135.7024    1651135.18445   1172301.41045                  24773144.1324
        10.7504         10.5004
  22869103.6014     357268.58847    284770.08146                  22869109.9644
        22.0004         21.2504
  22409406.2414    6803540.70847   5301461.37146                  22409412.3824
        24.2504         22.7504
  23123081.9524    7254611.33046   5645861.22646                  23123089.5034
        16.2504         16.5004
  22347009.4054    6693270.56148   5215537.77746                  22347013.7064
        28.0004         25.2504
  22012292.1474    4136415.57847   3223184.06946                  22012298.0074
        25.7504         24.2504
 02  7  2 19 17 45.0030000  0  8G31G 3G 9G14G15G17G18G21
  24218584.7414    1237886.10445    959118.92445                  24218590.8004
        11.5004          9.2504
  22525952.9134    4255671.21247   3271331.04546                  22525959.4054
        26.7504         24.7504
  24780717.4134    1690977.31045   1203347.23145                  24780724.8704
        10.7504         10.7504
  22871846.0934     371681.77247    296001.17846                  22871852.3274
        21.7504         21.5004
  22426099.0304    6891259.84847   5369813.91746                  22426105.0894
        25.0004         23.2504
  23140689.3904    7347140.39146   5717961.75646                  23140696.6714
        16.2504         16.2504
  22363218.9374    6778452.15848   5281913.04846                  22363223.6834
        28.0004         25.5004
  22022982.6474    4192593.46847   3266959.05246                  22022988.4014
        26.2504         24.2504
 02  7  2 19 18  0.0030000  0  8G31G 3G 9G14G15G17G18G21
  24223412.6944    1263257.36645    978888.75445                  24223420.8084
        11.0004          9.7504
  22537558.3044    4316660.11347   3318854.85446                  22537564.9724
        26.0004         24.7504
  24788340.7574    1731036.58745   1234562.32545                  24788348.0974
        10.7504         11.7504
  22874624.4764     386283.24947    307378.99946                  22874630.7574
        21.5004         21.5004
  22442825.5544    6979157.86147   5438305.85346                  22442831.5544
        25.2504         23.2504
  23158329.6714    7439840.87546   5790195.85846                  23158337.0464
        16.2504         16.5004
  22379456.3744    6863779.57748   5348401.93847                  22379461.3194
        28.2504         25.7504
  22033701.5074    4248921.21647   3310850.81646                  22033707.4484
        26.5004         24.5004
 02  7  2 19 18 15.0030000  0  8G31G 3G 9G14G15G17G18G21
  24228281.7724    1288841.47545    998824.44945                  24228289.0774
        11.2504         10.0004
  22549209.8584    4377889.77947   3366566.26646                  22549216.6554
        25.5004         24.5004
  24796005.2414    1771314.46145   1265947.72145                  24796012.1594
        10.2504         11.0004
  22877439.4764     401074.39347    318904.60246                  22877445.8044
        22.2504         21.7504
  22459586.2884    7067235.65447   5506937.87246                  22459592.4054
        24.7504         23.0004
  23176002.7264    7532713.89046   5862564.40446                  23176010.0544
        15.7504         16.7504
  22395721.5774    6949253.69248   5415005.14046                  22395726.7924
        28.2504         25.5004
  22044449.0074    4305399.88747   3354860.15946                  22044455.0194
        26.5004         24.5004
 02  7  2 19 18 30.0030000  0  8G31G 3G 9G14G15G17G18G21
  24233191.5934    1314641.43845   1018928.34845                  24233198.8974
        11.5004         10.2504
  22560907.8194    4439362.91147   3414467.39446                  22560914.5694
        25.5004         24.7504
  24803711.6634    1811813.82745   1297505.71645                  24803719.7884
        11.0004         11.2504
  22880290.3434     416058.11547    330580.27646                  22880296.8824
        21.2504         21.2504
  22476381.2804    7155495.94247   5575712.09846                  22476387.5974
        25.2504         23.2504
  23193709.2414    7625761.94746   5935069.33546                  23193716.5114
        15.7504         16.2504
  22412015.0074    7034877.08747   5481724.66546                  22412020.4684
        27.7504         25.5004
  22055225.4054    4362031.81547   3398988.94346                  22055231.3704
        26.2504         24.5004
 02  7  2 19 18 45.0030000  0  8G31G 3G 9G14G15G17G18G21
  24238141.3904    1340656.44945   1039199.84445                  24238149.3744
        10.7504         10.5004
  22572652.3124    4501078.54047   3462557.48446                  22572658.8624
        26.2504         25.0004
  24811461.1944    1852533.95345   1329235.71045                  24811469.7064
        10.5004         11.0004
  22883178.0624     431233.71447    342405.46446                  22883184.6594
        21.5004         21.5004
  22493210.7804    7243937.67747   5644627.71746                  22493217.0154
        24.2504         23.2504
  23211448.6794    7718984.16946   6007709.98246                  23211455.4174
        15.2504         15.7504
  22428336.7104    7120648.47648   5548559.49846                  22428341.9014
        28.0004         25.5004
  22066031.2964    4418816.16147   3443236.48746                  22066037.2264
        26.7504         24.5004
 02  7  2 19 19  0.0030000  0  8G31G 3G 9G14G15G17G18G21
  24243131.0464    1366881.24145   1059634.74445                  24243138.9834
        10.0004         10.5004
  22584440.9914    4563030.88447   3510832.02446                  22584447.6124
        25.7504         24.7504
  24819250.2884    1893469.56045   1361133.63045                  24819257.7694
        11.0004         11.5004
  22886101.4914     446595.83447    354375.99046                  22886107.7494
        21.7504         21.0004
  22510074.1714    7332555.20447   5713680.32446                  22510080.2294
        24.0004         23.0004
  23229220.5304    7812374.77446   6080481.84046                  23229227.3154
        16.0004         16.2504
  22444685.6554    7206562.17348   5615505.23146                  22444690.5894
        28.0004         25.5004
  22076864.6324    4475747.27947   3487598.40246                  22076870.5734
        26.0004         24.2504
 02  7  2 19 19 15.0030000  0  8G31G 3G 9G14G15G17G18G21
  24248161.9374    1393315.82545   1080233.13945                  24248170.7764
        10.5004         10.0004
  22596275.2334    4625219.91147   3559290.99446                  22596281.9604
        25.0004         24.2504
  24827081.6554    1934620.83545   1393199.61145                  24827089.6044
        10.0004         11.0004
  22889060.3904     462144.66847    366492.00746                  22889066.6714
        22.0004         21.2504
  22526971.5304    7421348.43047   5782869.82746                  22526977.6474
        24.5004         22.7504
  23247024.3044    7905933.79146   6153384.91946                  23247031.8544
        16.0004         16.2504
  22461061.4914    7292617.98648   5682561.70046                  22461066.5894
        28.0004         25.5004
  22087726.6084    4532824.75447   3532074.36546                  22087732.4444
        26.7504         24.5004
 02  7  2 19 19 30.0030000  0  8G31G 3G 9G14G15G17G18G21
  24253232.4834    1419959.70045   1100994.64745                  24253240.0814
        11.2504         10.5004
  22608154.2884    4687644.57047   3607933.57746                  22608160.5694
        25.0004         24.0004
  24834953.8584    1975987.00945   1425433.01645                  24834960.8124
        10.7504         11.0004
  22892054.2724     477879.56747    378753.01146                  22892060.4014
        21.7504         21.2504
  22543901.5934    7510316.29247   5852195.41546                  22543907.7334
        24.7504         23.0004
  23264859.8514    7999660.07746   6226418.34846                  23264866.9794
        16.0004         15.7504
  22477464.2804    7378814.79248   5749728.03446                  22477469.0854
        28.2504         25.5004
  22098616.0304    4590047.81847   3576663.76846                  22098621.7614
        27.7504         24.7504
 02  7  2 19 19 45.0030000  0  8G31G 3G 9G14G15G17G18G21
  24258342.4604    1446817.39345   1121922.73845                  24258350.6904
        11.0004         10.2504
  22620079.1014    4750309.16747   3656763.12846                  22620085.5814
        25.0004         24.0004
  24842864.8584    2017572.83745   1457837.62745                  24842873.6514
         9.7504         11.0004
  22895085.1554     493805.17047    391162.61046                  22895091.0624
        22.2504         21.0004
  22560865.7654    7599463.17047   5921660.49346                  22560871.9764
        24.2504         23.0004
  23282727.7574    8093558.00646   6299585.51646                  23282734.4254
        16.0004         16.0004
  22493894.7334    7465156.81247   5817007.52446                  22493900.1014
        27.7504         25.0004
  22109533.4684    4647420.67847   3621369.89546                  22109539.2334
        27.2504         24.7504
 02  7  2 19 20  0.0040000  0  8G31G 3G 9G14G15G17G18G21
  24263492.5824    1473884.16945   1143013.75545                  24263500.1094
        10.2504         10.0004
  22632048.8244    4813211.11747   3705777.61746                  22632055.4344
        25.0004         23.7504
  24850821.6374    2059374.46845   1490410.34245                  24850829.8914
        11.0004         11.2504
  22898151.2854     509915.97447    403716.52246                  22898157.3444
        23.0004         21.5004
  22577863.3324    7688788.15647   5991264.34746                  22577869.5784
        23.5004         23.0004
  23300629.1604    8187627.02646   6372886.03146                  23300636.3484
        16.7504         16.5004
  22510352.2934    7551642.85047   5884399.23446                  22510357.5314
        27.7504         25.0004
  22120478.7154    4704940.10147   3666190.22646                  22120484.7034
        26.7504         24.5004
 02  7  2 19 20 15.0040000  0  8G31G 3G 9G14G15G17G18G21
  24268684.0664    1501160.06145   1164267.69545                  24268691.7584
        10.7504         10.7504
  22644063.4804    4876345.31747   3754973.08646                  22644070.1484
        26.0004         24.0004
  24858815.9024    2101390.08745   1523149.85545                  24858823.6994
        10.7504         11.0004
  22901252.6524     526213.52847    416415.95746                  22901258.7694
        23.0004         21.7504
  22594893.6524    7778282.71547   6061000.33946                  22594899.9804
        23.5004         23.0004
  23318561.1054    8281857.96746   6446312.68846                  23318567.9024
        17.7504         16.5004
  22526836.0194    7638264.65047   5951896.73046                  22526840.9884
        27.5004         24.7504
  22131451.5194    4762601.86047   3711121.46946                  22131457.5664
        26.7504         24.5004
 02  7  2 19 20 30.0040000  0  8G31G 3G 9G14G15G17G18G21
  24273914.1994    1528643.91045   1185683.71745                  24273922.1254
        11.0004         10.2504
  22656121.0904    4939712.59147   3804350.16946                  22656127.4184
        24.7504         24.0004
  24866853.6604    2143619.43045   1556055.86345                  24866861.3754
        11.5004         11.5004
  22904388.7934     542695.87447    429259.39246                  22904394.6054
        23.5004         22.2504
  22611956.4024    7867949.40147   6130870.46846                  22611962.8124
        22.7504         22.7504
  23336523.7694    8376253.66946   6519867.75046                  23336530.8984
        17.0004         16.2504
  22543346.0664    7725024.43147   6019501.74246                  22543351.0124
        27.7504         24.7504
  22142451.3874    4820406.36347   3756163.93946                  22142457.2694
        27.0004         24.7504
 02  7  2 19 20 45.0040000  0  8G31G 3G 9G14G15G17G18G21
  24279183.7694    1556336.73345   1207262.53245                  24279192.8794
        11.0004         10.5004
  22668224.0514    5003313.77647   3853909.52646                  22668230.5664
        24.5004         24.0004
  24874930.1054    2186063.58346   1589129.27545                  24874938.4654
        12.2504         11.2504
  22907560.7624     559364.18647    442247.72446                  22907566.7384
        23.2504         22.0004
  22629052.2544    7957789.08147   6200875.38546                  22629058.7234
        23.0004         23.0004
  23354518.0194    8470815.09546   6593551.93646                  23354525.2424
        16.5004         16.5004
  22559882.0744    7811922.86847   6087214.80246                  22559887.0194
        27.7504         24.7504
  22153478.6604    4878354.42347   3801318.27446                  22153484.7544
        27.0004         24.5004
 02  7  2 19 21  0.0040000  0  8G31G 3G 9G14G15G17G18G21
  24284492.3404    1584236.49545   1229002.60945                  24284501.5784
        10.0004         11.2504
  22680371.0194    5067146.40847   3903649.22346                  22680377.3714
        24.5004         23.7504
  24883046.9734    2228720.47146   1622368.45545                  24883053.7234
        12.5004         11.2504
  22910767.5274     576216.39147    455379.35246                  22910773.4224
        23.2504         22.0004
  22646180.9264    8047799.26547   6271013.17146                  22646187.4884
        23.5004         23.0004
  23372543.4734    8565539.60946   6667363.20146                  23372550.8484
        16.5004         16.0004
  22576444.1844    7898957.47547   6155033.95846                  22576449.1644
        27.2504         24.7504
  22164532.4184    4936443.55547   3846582.53846                  22164538.3944
        27.0004         24.7504
 02  7  2 19 21 15.0040000  0  8G31G 3G 9G14G15G17G18G21
  24289840.7544    1612342.99545   1250903.81645                  24289850.6844
         9.7504         10.7504
  22692561.9494    5131210.05747   3953568.93846                  22692568.4534
        24.5004         23.5004
  24891204.3944    2271590.03945   1655773.35745                  24891211.3944
        11.7504         11.5004
  22914009.3634     593252.31747    468654.14046                  22914015.2934
        23.5004         22.0004
  22663342.0744    8137979.63847   6341283.56546                  22663348.3324
        24.7504         23.2504
  23390599.8094    8660426.95246   6741301.35346                  23390607.1254
        16.2504         16.5004
  22593031.9804    7986127.76447   6222958.85046                  22593036.9844
        26.5004         24.5004
  22175613.6374    4994673.30447   3891956.37446                  22175619.5314
        27.2504         24.7504
 02  7  2 19 21 30.0040000  0  8G31G 3G 9G14G15G17G18G21
  24295227.7074    1640652.49545   1272963.17945                  24295236.6874
        10.0004         10.5004
  22704796.3634    5195500.54947   4003665.41346                  22704803.1134
        24.7504         23.5004
  24899401.6374    2314668.44746   1689340.97845                  24899409.2234
        12.0004         11.2504
  22917284.9804     610468.22347    482069.17446                  22917290.9344
        22.2504         21.7504
  22680534.6524    8228326.08947   6411683.38346                  22680541.1684
        25.2504         23.5004
  23408686.6214    8755472.94646   6815363.11446                  23408694.1484
        16.2504         16.2504
  22609645.0434    8073429.63247   6290986.27046                  22609650.3524
        26.5004         24.5004
  22186720.1844    5053039.77347   3937436.73846                  22186726.1134
        26.7504         24.7504
 02  7  2 19 21 45.0040000  0  8G31G 3G 9G14G15G17G18G21
  24300654.6764    1669167.49445   1295182.67945                  24300663.2584
        10.2504         10.2504
  22717074.0124    5260020.11747   4053940.38446                  22717080.7034
        25.0004         23.5004
  24907639.6524    2357958.22546   1723073.32045                  24907647.6604
        12.5004         11.5004
  22920595.9964     627866.67147    495626.44946                  22920601.9614
        22.0004         21.5004
  22697759.5354    8318840.98247   6482214.44546                  22697765.5704
        26.2504         23.2504
  23426803.7234    8850679.84446   6889550.26046                  23426810.8874
        16.2504         16.5004
  22626283.3484    8160865.13247   6359117.81446                  22626288.8444
        26.2504         24.2504
  22197853.0434    5111545.07147   3983025.28146                  22197859.0084
        26.5004         24.2504
 02  7  2 19 22  0.0040000  0  8G31G 3G 9G14G15G17G18G21
  24306119.2774    1697887.58145   1317561.96945                  24306126.8874
         9.7504         10.0004
  22729395.0194    5324767.98647   4104393.25746                  22729401.5944
        24.7504         23.5004
  24915917.5744    2401458.97946   1756970.01045                  24915924.3124
        13.0004         11.5004
  22923941.4804     645447.21747    509325.62046                  22923947.2344
        22.2504         21.7504
  22715015.2624    8409523.49447   6552876.12046                  22715021.5434
        25.0004         23.0004
  23444952.4494    8946046.92846   6963862.24246                  23444959.1414
        16.7504         16.2504
  22642946.8714    8248433.44547   6427352.85546                  22642952.2154
        26.2504         24.0004
  22209012.5594    5170188.41447   4028721.39946                  22209018.6414
        26.2504         24.2504
 02  7  2 19 22 15.0040000  0  8G31G 3G 9G14G15G17G18G21
  24311623.1764    1726808.48445   1340097.74845                  24311631.2304
        10.5004         10.7504
  22741758.9264    5389739.74147   4155020.59046                  22741765.2424
        26.0004         23.7504
  24924235.0594    2445166.44346   1791027.84545                  24924242.1174
        13.2504         11.0004
  22927320.7074     663205.59147    523163.33846                  22927326.6724
        22.7504         21.7504
  22732302.7464    8500369.12847   6623664.89546                  22732308.9104
        24.5004         22.5004
  23463129.8874    9041569.73746   7038295.55846                  23463136.8634
        16.5004         15.7504
  22659635.0664    8336129.92147   6495687.76846                  22659640.3634
        25.7504         24.2504
  22220197.6054    5228965.20047   4074521.49346                  22220203.7344
        26.5004         24.7504
 02  7  2 19 22 30.0040000  0  8G31G 3G 9G14G15G17G18G21
  24317165.5124    1755931.47245   1362791.00045                  24317173.8594
        11.2504         10.7504
  22754165.1524    5454936.17347   4205822.99246                  22754171.3634
        25.0004         23.7504
  24932592.0124    2489081.92246   1825247.69945                  24932599.2344
        14.0004         11.5004
  22930734.2624     681142.95447    537140.54846                  22930740.1684
        22.7504         21.5004
  22749620.6374    8591378.70247   6694581.41946                  22749626.9884
        23.2504         22.2504
  23481336.4654    9137249.02046   7112850.80046                  23481343.3364
        16.0004         16.2504
  22676347.6524    8423955.37647   6564123.17546                  22676353.0314
        26.0004         24.0004
  22231408.1914    5287876.38447   4120426.31346                  22231414.1094
        27.5004         24.7504
 02  7  2 19 22 45.0040000  0  8G31G 3G 9G14G15G17G18G21
  24322746.3944    1785256.54245   1385641.71245                  24322754.1804
        11.7504         10.7504
  22766614.3484    5520356.92947   4256800.19046                  22766620.9574
        25.0004         24.0004
  24940987.9264    2533205.39346   1859629.64245                  24940994.1844
        12.7504         11.5004
  22934181.8484     699259.45347    551257.33746                  22934188.0704
        23.5004         22.0004
  22766970.5044    8682551.97447   6765625.50046                  22766976.6684
        23.2504         22.0004
  23499573.0824    9233084.62646   7187527.84946                  23499580.2584
        15.2504         16.0004
  22693085.0824    8511909.30647   6632658.69846                  22693090.3324
        27.0004         24.0004
  22242644.0194    5346921.63747   4166435.60246                  22242649.7974
        27.2504         24.7504
 02  7  2 19 23  0.0040000  0  8G31G 3G 9G14G15G17G18G21
  24328363.1524    1814780.83345   1408647.68345                  24328369.9964
        11.2504         11.0004
  22779105.5274    5585998.90947   4307949.77646                  22779112.5044
        25.0004         24.0004
  24949423.0514    2577534.00246   1894171.43645                  24949430.0864
        12.5004         11.2504
  22937662.7234     717552.28447    565511.53646                  22937668.4774
        23.2504         22.0004
  22784350.2304    8773885.88547   6836794.75746                  22784356.6524
        22.2504         22.2504
  23517839.1994    9329073.38046   7262324.24346                  23517845.7974
        15.5004         16.0004
  22709845.7854    8599988.71047   6701291.98646                  22709850.8944
        26.2504         24.0004
  22253904.7464    5406097.71047   4212546.82946                  22253910.6874
        26.7504         24.7504
 02  7  2 19 23 15.0040000  0  8G31G 3G 9G14G15G17G18G21
  24334020.1994    1844504.07845   1431808.67445                  24334026.9494
        11.5004         10.7504
  22791638.9414    5651861.47847   4359271.24146                  22791645.8594
        25.2504         24.0004
  24957897.2464    2622067.53846   1928872.93045                  24957904.3524
        12.2504         10.7504
  22941176.6684     736021.16347    579902.90646                  22941182.7624
        22.2504         22.0004
  22801761.7854    8865379.81547   6908088.69946                  22801768.2544
        24.0004         22.5004
  23536134.6994    9425214.69846   7337239.50046                  23536141.8984
        15.7504         16.0004
  22726630.8164    8688192.79547   6770022.42646                  22726635.8794
        26.7504         24.2504
  22265189.9654    5465404.06847   4258759.58546                  22265196.0354
        26.2504         24.5004
 02  7  2 19 23 30.0040000  0  8G31G 3G 9G14G15G17G18G21
  24339715.2624    1874427.64146   1455125.76445                  24339721.9184
        13.0004         10.5004
  22804213.8944    5717945.74947   4410765.46446                  22804220.8594
        24.5004         23.7504
  24966411.8094    2666807.33946   1963735.15545                  24966418.1374
        12.5004         10.5004
  22944725.2384     754667.52047    594432.57846                  22944731.3094
        23.2504         22.5004
  22819203.2074    8957034.79547   6979508.13746                  22819209.5824
        24.0004         22.5004
  23554458.9734    9521509.65746   7412274.48346                  23554466.3244
        15.7504         15.7504
  22743439.1604    8776522.42447   6838850.69546                  22743444.1644
        26.7504         24.2504
  22276501.0744    5524841.68947   4305074.61146                  22276507.0864
        26.7504         24.5004
 02  7  2 19 23 45.0040000  0  8G31G 3G 9G14G15G17G18G21
  24345446.7544    1904547.65846   1478595.91945                  24345453.6374
        13.0004         11.0004
  22816830.9024    5784247.59747   4462429.23046                  22816837.9264
        25.0004         24.0004
  24974963.7544    2711749.62345   1998755.14945                  24974971.8444
        11.7504         10.0004
  22948306.5434     773487.43047    609097.47846                  22948312.7894
        23.5004         23.0004
  22836674.8014    9048846.80947   7051049.94446                  22836681.2584
        24.2504         22.5004
  23572811.5664    9617954.21946   7487426.03446                  23572818.7664
        16.0004         16.0004
  22760271.0904    8864973.56847   6907773.65046                  22760276.1054
        27.0004         24.2504
  22287835.7934    5584406.42547   4351488.69246                  22287841.7114
        26.7504         24.5004
 02  7  2 19 24  0.0040000  0  8G31G 3G 9G14G15G17G18G21
  24351216.1604    1934870.88045   1502224.39745                  24351222.8054
        11.5004         10.5004
  22829490.4264    5850773.28347   4514267.41446                  22829497.6134
        24.5004         23.7504
  24983554.7854    2756900.99145   2033938.03745                  24983562.7464
        11.2504         10.5004
  22951922.0194     792487.67447    623902.90346                  22951927.9844
        23.5004         23.0004
  22854176.7934    9140822.23647   7122719.07946                  22854183.0864
        24.0004         22.5004
  23591194.9024    9714554.57546   7562698.98546                  23591201.9964
        16.5004         16.2504
  22777127.1524    8953552.35547   6976796.06146                  22777131.8054
        27.0004         24.0004
  22299195.8324    5644104.58147   4398006.73746                  22299201.7384
        26.2504         24.2504
 02  7  2 19 24 15.0040000  0  8G31G 3G 9G14G15G17G18G21
  24357023.6764    1965390.28145   1526005.79845                  24357030.2974
        11.2504         10.7504
  22842190.7304    5917515.65047   4566274.43446                  22842197.5514
        23.7504         23.5004
  24992186.9024    2802254.57446   2069278.52145                  24992194.2664
        12.2504         10.2504
  22955570.8484     811661.39447    638843.48846                  22955576.7774
        24.5004         22.7504
  22871708.7304    9232953.75947   7194509.84246                  22871715.1644
        23.7504         22.5004
  23609605.6374    9811303.67746   7638087.84846                  23609612.9534
        16.7504         15.7504
  22794006.0904    9042251.46847   7045912.24146                  22794010.6604
        27.0004         24.0004
  22310579.6844    5703929.15047   4444623.28346                  22310585.6954
        25.7504         24.2504
 02  7  2 19 24 30.0040000  0  8G31G 3G 9G14G15G17G18G21
  24362868.8324    1996106.27945   1549940.32845                  24362875.8674
        11.5004         10.2504
  22854932.9884    5984474.58347   4618450.21146                  22854939.9064
        24.2504         23.7504
  25000854.7934    2847810.54645   2104776.75145                  25000861.7584
        11.2504          9.7504
  22959252.5274     831008.91147    653919.52046                  22959258.3164
        24.5004         23.0004
  22889270.4574    9325241.31947   7266422.21146                  22889276.8094
        23.7504         22.2504
  23628043.9024    9908201.41646   7713592.51846                  23628051.0664
        16.2504         16.0004
  22810907.9804    9131070.92547   7115122.19346                  22810912.9964
        26.7504         24.2504
  22321988.5274    5763879.99147   4491338.22146                  22321994.5044
        27.0004         24.7504
 02  7  2 19 24 45.0040000  0  8G31G 3G 9G14G15G17G18G21
  24368751.8874    2027017.78345   1574027.23845                  24368758.4614
        11.5004          9.5004
  22867715.8714    6051648.75847   4670793.70746                  22867722.8124
        24.7504         24.0004
  25009563.2694    2893568.01945   2140431.92545                  25009571.0194
        11.2504         10.2504
  22962967.1134     850529.03547    669130.03946                  22962972.7154
        24.7504         23.2504
  22906861.9184    9417683.67947   7338455.19346                  22906868.2464
        23.7504         22.2504
  23646511.7074   10005246.52346   7789212.04946                  23646518.8714
        16.0004         15.7504
  22827832.0354    9220009.31747   7184424.82546                  22827837.0274
        26.5004         24.2504
  22333420.2624    5823955.71247   4538150.47546                  22333426.3674
        26.2504         24.7504
 02  7  2 19 25  0.0040000  0  8G31G 3G 9G14G15G17G18G21
  24374670.6764    2058122.54545   1598264.74645                  24374677.0864
        11.5004         10.0004
  22880539.3634    6119035.54747   4723302.87746                  22880546.2464
        25.0004         23.7504
  25018308.8874    2939524.77945   2176242.44045                  25018315.5784
        11.5004          9.5004
  22966714.3244     870219.65947    684473.42746                  22966720.2194
        25.2504         23.2504
  22924482.1914    9510278.35947   7410606.87346                  22924488.3554
        23.7504         22.0004
  23665005.8094   10102436.49346   7864944.43146                  23665013.3834
        16.0004         16.0004
  22844778.8404    9309064.02747   7253818.09246                  22844783.8444
        26.7504         24.0004
  22344875.8794    5884153.71747   4585058.02046                  22344881.7624
        27.0004         24.5004
 02  7  2 19 25 15.0040000  0  8G31G 3G 9G14G15G17G18G21
  24380627.5824    2089425.13446   1622656.39545                  24380634.2034
        12.0004         10.2504
  22893403.8404    6186639.24447   4775981.06546                  22893410.5084
        25.0004         23.5004
  25027092.8874    2985685.44045   2212211.81345                  25027100.8364
        11.0004         10.5004
  22970494.6294     890085.27747    699953.17546                  22970500.4414
        25.5004         23.2504
  22942131.9734    9603029.58447   7482880.51846                  22942138.2894
        23.5004         21.7504
  23683529.1684   10199775.46546   7940792.93746                  23683537.2694
        16.2504         15.7504
  22861748.4344    9398239.19247   7323305.22346                  22861753.4024
        27.0004         24.2504
  22356355.0664    5944478.33647   4632064.22546                  22356361.1024
        27.0004         24.7504
 02  7  2 19 25 30.0040000  0  8G31G 3G 9G14G15G17G18G21
  24386620.0904    2120925.54045   1647202.16245                  24386627.3714
        11.0004         10.5004
  22906309.8554    6254459.40247   4828827.93346                  22906316.3944
        25.5004         23.7504
  25035915.3324    3032049.80545   2248339.92045                  25035923.5514
        11.5004         10.7504
  22974308.0274     910126.00447    715569.36946                  22974313.8874
        25.2504         23.2504
  22959811.5664    9695937.07547   7555275.93746                  22959817.8594
        22.7504         21.5004
  23702080.5354   10297263.30046   8016757.43146                  23702088.3674
        16.2504         15.7504
  22878740.7154    9487534.41847   7392885.90946                  22878745.6374
        27.0004         24.0004
  22367858.3554    6004929.12647   4679168.73646                  22367864.3444
        26.2504         24.5004
 02  7  2 19 25 45.0040000  0  8G31G 3G 9G14G15G17G18G21
  24392652.5124    2152622.45445   1671901.06445                  24392659.2734
        11.2504         10.7504
  22919256.4184    6322494.55147   4881842.30846                  22919262.6764
        25.5004         24.0004
  25044775.9964    3078616.81845   2284625.95845                  25044783.6644
        11.5004         11.0004
  22978154.7544     930340.63847    731321.07246                  22978160.4494
        25.2504         23.5004
  22977520.6914    9788999.35047   7627791.97446                  22977526.9494
        22.7504         21.7504
  23720659.5744   10394898.23246   8092836.55346                  23720667.0554
        16.0004         15.7504
  22895755.2074    9576948.02147   7462558.82546                  22895760.1994
        26.0004         24.0004
  22379385.5594    6065504.70647   4726370.49546                  22379391.4414
        27.0004         24.5004
 02  7  2 19 26  0.0040000  0  8G31G 3G 9G14G15G17G18G21
  24398721.5904    2184514.11946   1696751.73445                  24398729.1764
        12.2504         11.0004
  22932243.7074    6390742.49647   4935022.52346                  22932249.8484
        26.0004         23.7504
  25053674.7234    3125384.45145   2321068.28245                  25053681.8874
        11.5004         11.0004
  22982034.4024     950727.26747    747206.79646                  22982040.2624
        25.2504         23.5004
  22995258.9414    9882214.20247   7700426.88446                  22995265.0474
        23.0004         21.5004
  23739266.5274   10492678.32146   8169028.79046                  23739273.7854
        15.7504         15.0004
  22912791.7304    9666477.77647   7532322.26646                  22912796.9104
        25.5004         23.7504
  22390936.3944    6126202.88147   4773667.77746                  22390942.2424
        27.2504         25.0004
 02  7  2 19 26 15.0040000  0  8G31G 3G 9G14G15G17G18G21
  24404827.3484    2216595.73846   1721750.41745                  24404834.4884
        13.0004         11.2504
  22945270.4344    6459198.22947   4988364.63946                  22945276.4804
        26.2504         23.7504
  25062612.4734    3172348.12746   2357663.40845                  25062619.7774
        12.0004         10.2504
  22985945.1764     971281.20847    763222.89746                  22985950.7894
        24.5004         23.0004
  23013025.7624    9975576.64747   7773176.80946                  23013031.8794
        23.5004         21.7504
  23757900.2854   10590598.48746   8245330.17146                  23757907.5194
        15.5004         15.2504
  22929850.1844    9756118.57347   7602172.22746                  22929855.3404
        26.0004         23.7504
  22402508.9494    6187018.49747   4821056.57046                  22402514.8444
        27.0004         24.7504
 02  7  2 19 26 30.0050000  0  8G31G 3G 9G14G15G17G18G21
  24410969.1034    2248875.56646   1746903.52645                  24410975.5244
        12.2504         11.2504
  22958339.0094    6527872.05647   5041876.70346                  22958344.9744
        26.5004         24.0004
  25071587.5484    3219517.08345   2394418.44245                  25071594.7354
        11.2504         11.0004
  22989889.9234     992010.05247    779375.27946                  22989895.7474
        24.2504         22.5004
  23030822.4464   10069098.76547   7846051.16246                  23030828.5054
        24.7504         21.7504
  23776562.7984   10688671.06946   8321750.30546                  23776570.1964
        15.2504         15.2504
  22946931.7284    9845882.28347   7672117.96546                  22946937.0604
        26.2504         23.7504
  22414106.1964    6247961.64947   4868544.74446                  22414112.1964
        27.0004         25.0004
 02  7  2 19 26 45.0050000  0  8G31G 3G 9G14G15G17G18G21
  24417149.7674    2281346.50046   1772205.57445                  24417156.1774
        13.2504         10.7504
  22971445.8844    6596751.65147   5095549.10246                  22971452.3884
        25.7504         24.0004
  25080601.9234    3266882.07646   2431326.26345                  25080608.8764
        12.2504         10.7504
  22993866.8374    1012908.10147    795659.52546                  22993872.6384
        24.5004         22.7504
  23048646.6574   10162764.89147   7919037.71946                  23048652.7984
        24.7504         21.7504
  23795251.3604   10786879.88546   8398276.60746                  23795258.9354
        15.2504         15.2504
  22964033.7594    9935753.52647   7742147.48546                  22964038.8214
        26.7504         24.0004
  22425725.5564    6309020.69047   4916123.22446                  22425731.5094
        27.2504         25.0004
 02  7  2 19 27  0.0050000  0  8G31G 3G 9G14G15G17G18G21
  24423364.8994    2314011.62346   1797658.95945                  24423371.7434
        13.0004         11.0004
  22984593.0794    6665842.25147   5149385.91746                  22984599.9384
        25.0004         24.0004
  25089652.7984    3314447.35346   2468390.12245                  25089659.4074
        12.5004         11.2504
  22997876.0484    1033977.77847    812077.49346                  22997881.9074
        24.2504         22.7504
  23066499.5794   10256581.92247   7992141.87546                  23066505.6964
        25.0004         21.7504
  23813967.1264   10885232.10846   8474914.64346                  23813975.1694
        15.7504         15.7504
  22981157.8534   10025738.98647   7812266.00946                  22981162.4704
        27.5004         24.5004
  22437367.8454    6370200.68447   4963795.95146                  22437373.5874
        27.7504         25.0004
 02  7  2 19 27 15.0050000  0  8G31G 3G 9G14G15G17G18G21
  24429617.8064    2346870.51346   1823263.29846                  24429624.8294
        13.2504         12.0004
  22997780.4704    6735143.10947   5203386.57446                  22997787.3134
        25.0004         23.7504
  25098742.7744    3362212.51746   2505609.74045                  25098751.0404
        12.2504         11.5004
  23001917.6654    1055218.71447    828628.91346                  23001923.6654
        23.5004         22.7504
  23084380.8454   10350549.27847   8065363.16546                  23084386.8684
        24.2504         21.5004
  23832710.1574   10983727.01646   8551663.87446                  23832718.7284
        15.7504         15.7504
  22998303.1104   10115837.93447   7882472.97046                  22998307.7284
        27.2504         24.2504
  22449032.4854    6431500.72847   5011562.21646                  22449038.1574
        27.2504         25.0004
 02  7  2 19 27 30.0050000  0  8G31G 3G 9G14G15G17G18G21
  24435906.8454    2379921.31246   1849017.19545                  24435914.1964
        13.2504         11.7504
  23011007.8454    6804651.93947   5257549.28446                  23011014.4314
        24.7504         23.7504
  25107869.4784    3410175.45945   2542983.50645                  25107877.3334
        11.7504         11.5004
  23005992.1344    1076628.88947    845312.20346                  23005997.8994
        24.2504         23.2504
  23102290.0714   10444664.64547   8138699.78146                  23102296.1534
        23.2504         21.5004
  23851480.1104   11082362.43146   8628522.57946                  23851488.4234
        15.5004         15.2504
  23015469.5324   10206047.97147   7952766.48446                  23015474.2084
        26.7504         24.0004
  22460720.0484    6492918.52747   5059420.24646                  22460725.5564
        27.5004         24.7504
 02  7  2 19 27 45.0050000  0  8G31G 3G 9G14G15G17G18G21
  24442233.0714    2413166.10746   1874922.24945                  24442239.2124
        12.7504         11.7504
  23024274.8294    6874370.68747   5311875.56746                  23024281.2984
        25.0004         24.0004
  25117033.8064    3458338.55345   2580513.20645                  25117040.8994
        11.5004         11.0004
  23010098.8684    1098210.49147    862129.07846                  23010104.7284
        24.5004         23.2504
  23120227.9154   10538929.95147   8212153.23546                  23120234.2554
        23.0004         21.2504
  23870276.4934   11181140.21446   8705492.22946                  23870283.4814
        15.5004         15.0004
  23032657.2124   10296370.97647   8023148.03146                  23032661.7824
        27.2504         24.0004
  22472429.7904    6554455.99647   5107371.52546                  22472435.8134
        27.0004         24.7504
 02  7  2 19 28  0.0050000  0  8G31G 3G 9G14G15G17G18G21
  24448595.6184    2446601.34045   1900975.68245                  24448602.8994
        11.7504         11.7504
  23037580.8374    6944295.26447   5366362.24146                  23037587.3764
        24.5004         23.7504
  25126236.0484    3506698.17545   2618196.04945                  25126244.0794
        11.0004         10.5004
  23014237.8214    1119959.97347    879076.77646                  23014243.7284
        24.7504         23.2504
  23138194.1654   10633341.35847   8285720.53146                  23138200.4584
        23.5004         21.5004
  23889100.1264   11280056.54146   8782569.85446                  23889107.4424
        15.7504         15.2504
  23049865.6494   10386802.90547   8093614.46446                  23049870.5834
        27.0004         24.2504
  22484162.4314    6616109.33547   5155413.09446                  22484168.3494
        27.2504         25.0004
 02  7  2 19 28 15.0050000  0  8G31G 3G 9G14G15G17G18G21
  24454995.8064    2480233.45645   1927182.52945                  24455004.2594
        11.7504         11.5004
  23050927.1264    7014431.90047   5421014.15046                  23050933.8764
        24.2504         24.0004
  25135478.2204    3555260.70545   2656036.98345                  25135486.2284
        11.2504         10.2504
  23018410.2124    1141883.89847    896160.38746                  23018415.7084
        26.2504         24.0004
  23156188.6964   10727904.97647   8359406.43646                  23156194.8604
        23.0004         21.2504
  23907950.5174   11379117.51046   8859760.15846                  23907957.5054
        15.2504         15.0004
  23067096.0954   10477349.75647   8164170.43946                  23067101.3684
        26.2504         23.7504
  22495917.9854    6677884.72048   5203549.75946                  22495923.9034
        28.2504         25.2504
 02  7  2 19 28 30.0050000  0  8G31G 3G 9G14G15G17G18G21
  24461430.7744    2514060.29345   1953541.14345                  24461439.8024
        10.5004         11.5004
  23064314.0094    7084778.03947   5475829.30246                  23064320.8804
        25.0004         24.2504
  25144757.4154    3604023.97845   2694034.34645                  25144763.3564
        11.2504          9.5004
  23022614.6654    1163980.13747    913378.28046                  23022620.0794
        26.0004         24.0004
  23174212.6184   10822618.35547   8433209.03746                  23174218.7124
        23.7504         21.2504
  23926828.1884   11478320.64746   8937061.25946                  23926835.7864
        15.0004         15.2504
  23084348.1264   10568009.12747   8234814.09946                  23084353.2594
        26.7504         23.7504
  22507696.1654    6739779.66847   5251779.58846                  22507701.9314
        27.7504         25.2504
 02  7  2 19 28 45.0050000  0  8G31G 3G 9G14G15G17G18G21
  24467904.8134    2548071.27546   1980043.22245                  24467912.6104
        12.5004         11.2504
  23077738.2044    7155322.79247   5530799.21146                  23077745.1574
        24.7504         24.2504
  25154072.3924    3652977.42245   2732179.91345                  25154079.6964
        10.5004          9.5004
  23026849.7284    1186238.01247    930722.12146                  23026855.8104
        25.5004         24.2504
  23192262.4234   10917470.67347   8507119.88746                  23192268.3994
        24.0004         21.2504
  23945731.8064   11577655.12446   9014464.71346                  23945739.2164
        15.7504         15.5004
  23101619.7514   10658770.05947   8305536.89346                  23101624.5204
        27.0004         23.7504
  22519494.8294    6801783.39047   5300094.18246                  22519500.7824
        27.0004         24.5004
 02  7  2 19 29  0.0050000  0  8G31G 3G 9G14G15G17G18G21
  24474411.7824    2582271.51746   2006692.80145                  24474419.6144
        12.5004         11.7504
  23091201.3294    7226070.93747   5585927.62746                  23091208.2824
        25.2504         24.5004
  25163425.2284    3702126.01245   2770477.54945                  25163432.0714
         9.5004          8.7504
  23031117.2044    1208662.70647    948195.94846                  23031122.9354
        26.5004         25.0004
  23210339.7204   11012466.66247   8581142.70646                  23210345.8954
        23.7504         21.5004
  23964660.1264   11677125.73646   9091974.22246                  23964667.6534
        15.0004         14.7504
  23118911.1344   10749637.18247   8376342.43046                  23118915.3534
        27.2504         23.5004
  22531315.2354    6863900.65347   5348497.24246                  22531321.1654
        27.0004         24.5004
 02  7  2 19 29 15.0050000  0  8G31G 3G 9G14G15G17G18G21
  24480956.5094    2616660.97446   2033489.77846                  24480964.3294
        12.5004         12.2504
  23104703.1964    7297022.12147   5641214.25146                  23104709.7244
        26.2504         24.5004
  25172814.9934    3751469.89645   2808927.34445                  25172821.9464
         9.5004          9.0004
  23035416.0874    1231254.35347    965799.86646                  23035421.9234
        26.2504         24.7504
  23228444.0014   11107606.06247   8655277.26946                  23228450.2244
        24.2504         21.5004
  23983614.8374   11776732.24646   9169589.63446                  23983622.6924
        14.2504         14.7504
  23136222.7674   10840610.26247   8447230.53046                  23136227.1964
        26.7504         23.2504
  22543157.1734    6926131.01647   5396988.43346                  22543163.2204
        26.7504         24.7504
 02  7  2 19 29 30.0050000  0  8G31G 3G 9G14G15G17G18G21
  24487537.1814    2651238.31946   2060433.18046                  24487544.7084
        14.0004         12.5004
  23118243.0794    7368174.68047   5696657.79146                  23118249.6774
        26.0004         24.7504
  25182241.9624    3801007.66345   2847528.20345                  25182249.7004
         9.2504          8.7504
  23039746.8534    1254011.43447    983532.69746                  23039752.8174
        26.5004         24.7504
  23246575.6034   11202887.19447   8729522.27646                  23246581.7314
        23.7504         21.2504
  24002593.9624   11876472.90546   9247309.59046                  24002601.7704
        13.2504         14.2504
  23153553.8604   10931687.59647   8518199.86446                  23153558.4194
        26.5004         23.5004
  22555020.5094    6988472.78747   5445566.45146                  22555026.5324
        26.7504         24.5004
 02  7  2 19 29 45.0050000  0  8G31G 3G 9G14G15G17G18G21
  24494151.9314    2686007.57746   2087526.12945                  24494158.1654
        13.0004         11.5004
  23131822.1494    7439532.41147   5752261.19846                  23131828.5014
        26.5004         25.0004
  25191706.6574    3850743.39345   2886283.31645                  25191714.8294
         9.0004          9.7504
  23044109.7044    1276938.13547   1001397.70346                  23044115.5994
        26.5004         24.7504
  23264734.4624   11298313.95347   8803880.75746                  23264740.6734
        24.0004         21.5004
  24021600.2204   11976351.66946   9325137.12846                  24021607.5484
        12.7504         14.2504
  23170905.6964   11022872.91547   8589253.34746                  23170910.7824
        26.0004         23.5004
  22566906.1884    7050929.76548   5494234.22646                  22566911.8494
        28.2504         25.2504
 02  7  2 19 30  0.0050000  0  8G31G 3G 9G14G15G17G18G21
  24500806.5094    2720967.10146   2114767.33146                  24500813.3294
        15.2504         12.2504
  23145439.3294    7511093.19547   5808022.83746                  23145445.6224
        25.2504         24.2504
  25201208.3994    3900675.40645   2925191.43245                  25201216.6184
         9.2504          9.5004
  23048504.3844    1300032.71347   1019393.51946                  23048509.9274
        26.5004         25.0004
  23282920.6814   11393884.35547   8878351.16946                  23282927.1614
        23.5004         21.2504
  24040632.9544   12076366.36146   9403070.60246                  24040639.6574
        13.2504         14.5004
  23188277.6264   11114164.06447   8660389.29446                  23188282.8064
        25.7504         23.0004
  22578812.6884    7113499.97348   5542990.23046                  22578818.1494
        28.0004         25.5004
 02  7  2 19 30 15.0050000  0  8G31G 3G 9G14G15G17G18G21
  24507494.0094    2756114.24446   2142154.73246                  24507499.7744
        14.2504         12.2504
  23159095.2674    7582854.08047   5863940.39746                  23159101.9464
        25.5004         24.7504
  25210746.9074    3950801.06545   2964250.37945                  25210754.0714
         9.5004         10.2504
  23052930.3604    1323292.60347   1037518.14646                  23052935.7044
        26.2504         24.5004
  23301133.9074   11489595.50447   8952931.25046                  23301140.6574
        23.5004         21.7504
  24059690.7124   12176514.19546   9481107.82746                  24059698.5674
        14.0004         14.7504
  23205669.8604   11205558.09547   8731605.41946                  23205674.9584
        26.2504         23.0004
  22590740.0404    7176180.60847   5591832.28246                  22590745.8174
        27.2504         25.0004
 02  7  2 19 30 30.0050000  0  8G31G 3G 9G14G15G17G18G21
  24514218.0564    2791451.48846   2169690.27246                  24514225.7704
        13.0004         12.5004
  23172789.1884    7654817.25347   5920015.57746                  23172795.8564
        25.2504         24.5004
  25220323.1184    4001122.83845   3003462.15345                  25220329.2944
         9.7504          9.2504
  23057388.7434    1346720.30747   1055773.53846                  23057394.0404
        26.2504         24.5004
  23319374.4384   11585449.59047   9027622.71246                  23319381.4384
        23.0004         21.2504
  24078773.8134   12276797.36246   9559250.50546                  24078782.1614
        13.5004         14.7504
  23223081.3764   11297056.95947   8802903.22346                  23223086.2864
        26.2504         23.2504
  22602689.4784    7238973.85847   5640762.09246                  22602695.5714
        27.2504         24.7504
 02  7  2 19 30 45.0050000  0  8G31G 3G 9G14G15G17G18G21
  24520978.4154    2826980.61446   2197375.34645                  24520987.0094
        12.2504         11.7504
  23186521.8214    7726984.09747   5976249.47246                  23186528.4894
        25.0004         24.7504
  25229934.5634    4051642.66745   3042828.29045                  25229942.2434
         8.2504         10.2504
  23061879.0794    1370317.67847   1074161.13446                  23061884.6104
        25.5004         24.2504
  23337642.6184   11681448.11247   9102426.72646                  23337649.2634
        23.2504         21.2504
  24097882.4624   12377217.24646   9637499.70546                  24097890.7044
        12.7504         14.5004
  23240513.2434   11388662.30047   8874283.99846                  23240518.0714
        26.5004         23.5004
  22614660.0094    7301881.04447   5689780.68346                  22614666.0094
        27.0004         25.0004
 02  7  2 19 31  0.0050000  0  8G31G 3G 9G14G15G17G18G21
  24527773.9074    2862694.89546   2225204.63945                  24527781.6694
        12.0004         11.5004
  23200292.4074    7799347.46447   6032636.49246                  23200299.1924
        24.7504         24.0004
  25239585.9854    4102353.64345   3082343.34745                  25239594.0524
        10.0004         11.2504
  23066399.8764    1394077.88047   1092675.62246                  23066405.8994
        24.5004         24.0004
  23355936.7284   11777583.98447   9177337.76446                  23355943.5244
        23.0004         21.2504
  24117016.5174   12477766.87646   9715850.00246                  24117024.7944
        12.7504         14.5004
  23257964.4784   11480367.00147   8945742.18946                  23257969.4814
        27.0004         23.7504
  22626651.1734    7364895.19247   5738882.61546                  22626657.0794
        26.7504         24.7504
 02  7  2 19 31 15.0050000  0  8G31G 3G 9G14G15G17G18G21
  24534607.1654    2898598.68546   2253181.62145                  24534614.0604
        12.0004         10.2504
  23214100.8134    7871911.53347   6089179.90846                  23214107.6734
        24.7504         24.0004
  25249273.4464    4153260.22045   3122010.81945                  25249280.8334
        11.0004         11.5004
  23070952.9934    1418005.43747   1111320.51146                  23070959.0754
        23.7504         23.7504
  23374257.3764   11873861.39047   9252359.09646                  23374264.1264
        23.0004         21.2504
  24136176.5874   12578450.55746   9794304.77446                  24136184.6424
        13.2504         14.0004
  23275434.8374   11572175.08047   9017280.93646                  23275439.9114
        27.0004         24.0004
  22638663.6034    7428020.55847   5788071.21546                  22638669.5444
        27.0004         24.7504
 02  7  2 19 31 30.0050000  0  8G31G 3G 9G14G15G17G18G21
  24541475.1264    2934691.00346   2281305.52945                  24541482.9814
        12.7504         11.0004
  23227947.1494    7944674.82947   6145878.56546                  23227954.0444
        24.5004         23.7504
  25258997.8064    4204361.27145   3161829.83245                  25259004.1104
        11.2504         11.2504
  23075537.7744    1442099.26847   1130094.95946                  23075543.8684
        23.2504         23.7504
  23392605.1264   11970278.89847   9327489.58746                  23392611.5714
        22.7504         21.0004
  24155360.9234   12679266.61946   9872862.70746                  24155368.8954
        13.5004         14.0004
  23292924.8214   11664085.06847   9088899.10146                  23292929.7084
        26.7504         24.0004
  22650697.1494    7491255.79347   5837345.42546                  22650703.0914
        27.7504         25.0004
 02  7  2 19 31 45.0050000  0  8G31G 3G 9G14G15G17G18G21
  24548379.6264    2970970.53446   2309575.32545                  24548385.9784
        13.5004         10.7504
  23241831.0954    8017635.91647   6202731.34746                  23241837.8104
        24.2504         23.7504
  25268759.8994    4255655.63446   3201799.49345                  25268767.2744
        12.2504         11.5004
  23080154.7434    1466358.22847   1148998.08246                  23080160.6034
        24.7504         23.7504
  23410979.4854   12066835.18147   9402728.22246                  23410985.7674
        22.7504         21.0004
  24174571.3214   12780213.83746   9951522.82046                  24174578.9194
        13.5004         13.7504
  23310433.6104   11756095.39447   9160595.44846                  23310438.5564
        26.7504         23.7504
  22662751.4314    7554599.32948   5886704.02446                  22662757.1384
        28.0004         25.2504
 02  7  2 19 32  0.0050000  0  8G31G 3G 9G14G15G17G18G21
  24555318.8374    3007439.50846   2337992.71745                  24555325.1064
        13.0004         10.7504
  23255753.5564    8090796.52847   6259739.59646                  23255760.1774
        24.5004         23.5004
  25278556.3994    4307145.50945   3241921.49645                  25278562.2354
        10.5004         10.7504
  23084803.0324    1490784.48147   1168031.56046                  23084808.6104
        24.7504         24.2504
  23429380.2124   12163531.99647   9478076.35246                  23429386.2594
        22.5004         20.2504
  24193806.4314   12881294.05046  10030286.57046                  24193813.9114
        14.0004         14.0004
  23327961.9384   11848208.02347   9232371.50346                  23327967.3294
        26.2504         23.7504
  22674825.6494    7618052.91047   5936148.37346                  22674831.4384
        27.5004         25.2504
 02  7  2 19 32 15.0050000  0  8G31G 3G 9G14G15G17G18G21
  24562293.0404    3044093.62746   2366554.38745                  24562298.8994
        12.0004         10.5004
  23269712.4234    8164152.12647   6316899.78446                  23269718.6574
        24.5004         23.5004
  25288391.1104    4358826.69245   3282192.57245                  25288399.1424
        10.2504         11.0004
  23089482.3534    1515373.87847   1187192.17546                  23089487.7314
        25.0004         24.0004
  23447806.9464   12260364.95247   9553530.57546                  23447813.1814
        22.2504         20.5004
  24213065.3924   12982502.64046  10109150.33046                  24213072.7314
        13.5004         14.0004
  23345509.0634   11940418.34747   9304223.69446                  23345514.4074
        26.2504         23.0004
  22686920.4704    7681612.24447   5985675.13046                  22686926.4234
        26.7504         25.0004
 02  7  2 19 32 30.0050000  0  8G31G 3G 9G14G15G17G18G21
  24569304.8764    3080937.92346   2395264.27845                  24569312.7904
        12.5004         10.7504
  23283709.2284    8237707.25047   6374215.45846                  23283715.7084
        24.0004         23.5004
  25298263.0794    4410703.99545   3322616.42645                  25298271.1104
        10.0004         11.0004
  23094193.1264    1540131.31947   1206483.72546                  23094198.7634
        24.2504         24.0004
  23466260.3844   12357338.68947   9629094.50146                  23466266.7244
        21.7504         20.5004
  24232350.5244   13083844.31846  10188117.81646                  24232357.8534
        14.7504         14.2504
  23363075.4464   12032731.02647   9376155.63446                  23363081.0244
        25.5004         22.7504
  22699036.5484    7745282.08547   6035287.99346                  22699042.5954
        27.0004         25.0004
 02  7  2 19 32 45.0050000  0  8G31G 3G 9G14G15G17G18G21
  24576351.3684    3117969.39646   2424119.94645                  24576358.5794
        12.7504         11.0004
  23297743.6574    8311458.65947   6431684.07246                  23297750.2554
        24.2504         23.2504
  25308171.6654    4462774.44045   3363190.83845                  25308178.6304
         9.7504         10.7504
  23098935.2904    1565053.81947   1225903.89446                  23098941.4314
        23.7504         24.0004
  23484739.5404   12454449.91347   9704765.55646                  23484746.1734
        21.5004         21.0004
  24251659.8064   13185315.72946  10267186.39346                  24251666.7824
        14.2504         14.0004
  23380660.8294   12125142.59747   9448164.64146                  23380666.1854
        25.2504         23.0004
  22711172.8994    7809058.84847   6084984.17046                  22711178.9234
        27.2504         25.2504
 02  7  2 19 33  0.0060000  0  8G31G 3G 9G14G15G17G18G21
  24583435.2874    3155190.55746   2453123.45645                  24583442.5104
        14.0004         11.7504
  23311816.6394    8385410.91247   6489309.18246                  23311823.2834
        23.7504         23.2504
  25318118.5374    4515041.54345   3403918.43045                  25318126.6154
        10.2504         10.5004
  23103710.2644    1590143.25647   1245454.14946                  23103716.1704
        24.7504         24.2504
  23503246.4594   12551704.85747   9780548.59546                  23503253.3894
        21.0004         20.5004
  24270994.5144   13286923.52646  10346361.25446                  24271001.3734
        14.0004         14.2504
  23398266.4364   12217658.98347   9520255.32246                  23398271.4634
        26.2504         23.0004
  22723330.4594    7872946.88247   6134767.05646                  22723336.3774
        27.2504         25.0004
 02  7  2 19 33 15.0060000  0  8G31G 3G 9G14G15G17G18G21
  24590552.7874    3192593.55746   2482268.67546                  24590559.0104
        14.7504         12.2504
  23325925.4124    8459550.99247   6547080.66046                  23325932.0804
        24.7504         23.5004
  25328100.0924    4567495.52245   3444791.71345                  25328108.2404
         9.5004         10.5004
  23108514.8734    1615393.31547   1265129.54846                  23108520.5214
        24.7504         24.2504
  23521778.2564   12649087.45947   9856431.12146                  23521785.2444
        21.5004         20.7504
  24290353.2254   13388651.07746  10425629.41646                  24290360.2954
        14.7504         14.2504
  23415888.8814   12310264.62447   9592415.55346                  23415893.7564
        26.5004         23.2504
  22735506.7404    7936934.25547   6184627.34846                  22735512.7054
        27.0004         25.0004
 02  7  2 19 33 30.0060000  0  8G31G 3G 9G14G15G17G18G21
  24597705.7014    3230182.07846   2511558.46846                  24597711.9714
        15.0004         12.2504
  23340069.9514    8533884.68047   6605002.98946                  23340076.6784
        23.7504         23.5004
  25338117.8264    4620141.11445   3485814.26445                  25338126.5374
        10.0004         10.5004
  23113351.0684    1640807.02247   1284932.47946                  23113356.6004
        25.0004         24.5004
  23540334.7954   12746605.12647   9932418.88046                  23540341.6894
        20.5004         20.2504
  24309735.4594   13490505.98546  10504996.84446                  24309743.1624
        14.7504         14.0004
  23433529.3114   12402966.68447   9664650.91946                  23433534.3034
        26.5004         23.5004
  22747703.0684    8001026.27047   6234569.17946                  22747709.0804
        27.0004         25.0004
 02  7  2 19 33 45.0060000  0  8G31G 3G 9G14G15G17G18G21
  24604893.8504    3267957.69446   2540994.03146                  24604901.0024
        14.5004         12.7504
  23354252.2324    8608413.24447   6663077.18546                  23354259.1624
        23.5004         23.2504
  25348171.8894    4672979.79645   3526987.25245                  25348179.7684
         9.7504         10.2504
  23118218.4754    1666385.82347   1304864.05546                  23118224.2644
        24.7504         23.7504
  23558918.0534   12844259.22847  10008512.96246                  23558924.9124
        21.0004         20.2504
  24329142.5144   13592489.51346  10584464.46046                  24329150.3814
        15.2504         14.5004
  23451188.7094   12495766.23947   9736962.25146                  23451193.3614
        27.2504         23.5004
  22759919.4904    8065224.41447   6284593.70946                  22759925.5254
        27.0004         25.0004
 02  7  2 19 34  0.0060000  0  8G31G 3G 9G14G15G17G18G21
  24612116.9124    3305915.45946   2570571.53946                  24612124.0064
        14.2504         13.2504
  23368470.5764    8683131.35647   6721299.07246                  23368477.1504
        23.2504         22.7504
  25358263.4984    4726006.53745   3568306.79745                  25358271.8114
        10.5004          9.7504
  23123116.2874    1692124.82147   1324920.45546                  23123121.7604
        24.7504         24.0004
  23577525.7174   12942044.44747  10084709.19046                  23577532.5494
        20.2504         20.0004
  24348572.4824   13694596.47146  10664028.26546                  24348580.1624
        14.5004         14.5004
  23468865.7714   12588657.94247   9809345.38446                  23468869.8034
        27.7504         23.5004
  22772155.2484    8129523.06147   6334696.55346                  22772161.2484
        27.0004         25.0004
 02  7  2 19 34 15.0060000  0  8G31G 3G 9G14G15G17G18G21
  24619375.1624    3344054.75046   2600290.46346                  24619382.9474
        14.0004         13.2504
  23382725.2174    8758038.09747   6779667.94846                  23382731.8734
        23.5004         22.7504
  25368389.8344    4779220.82845   3609772.47045                  25368397.0454
        10.5004          9.7504
  23128044.8654    1718023.57647   1345101.34346                  23128050.1034
        25.2504         24.7504
  23596159.1784   13039959.93147  10161006.94846                  23596165.7284
        21.2504         19.7504
  24368026.3504   13796825.96646  10743687.55346                  24368034.0884
        14.2504         14.5004
  23486559.6154   12681641.05047   9881799.73446                  23486564.1744
        27.0004         23.5004
  22784410.0064    8193921.62747   6384877.25646                  22784415.9714
        26.7504         25.0004
 02  7  2 19 34 30.0060000  0  8G31G 3G 9G14G15G17G18G21
  24626667.2874    3382380.50646   2630154.70146                  24626674.8504
        13.5004         13.0004
  23397016.1934    8833138.16347   6838187.46346                  23397022.6154
        23.5004         22.5004
  25378553.2174    4832627.57445   3651388.12745                  25378561.2834
        11.5004         10.2504
  23133004.5924    1744086.97647   1365410.52746                  23133009.8074
        25.5004         24.7504
  23614817.4904   13138010.42447  10237409.89346                  23614824.1464
        21.5004         20.0004
  24387503.7954   13899182.75746  10823446.03446                  24387511.2994
        14.2504         14.0004
  23504271.4904   12774720.12247   9954328.87346                  23504275.9904
        26.0004         23.5004
  22796684.3184    8258424.77947   6435139.46046                  22796690.2714
        26.7504         24.7504
 02  7  2 19 34 45.0060000  0  8G31G 3G 9G14G15G17G18G21
  24633996.9124    3420893.65946   2660164.94746                  24634003.9474
        14.0004         12.7504
  23411344.2714    8908431.93447   6896857.92646                  23411350.8574
        23.7504         22.7504
  25388752.8654    4886227.68345   3693154.44645                  25388759.5334
        11.5004         10.5004
  23137995.7404    1770315.85147   1385848.64646                  23138001.0964
        25.7504         25.0004
  23633501.7094   13236196.51747  10313918.50046                  23633508.8504
        21.0004         20.0004
  24407006.2014   14001667.31846  10903304.06746                  24407013.7754
        13.2504         14.0004
  23522002.0374   12867895.63347  10026933.15646                  23522007.2874
        25.2504         23.0004
  22808978.9044    8323033.02947   6485483.55046                  22808984.9394
        27.0004         24.7504
 02  7  2 19 35  0.0060000  0  8G31G 3G 9G14G15G17G18G21
  24641359.6234    3459589.53246   2690317.59546                  24641366.2684
        13.0004         12.2504
  23425708.0684    8983914.49447   6955675.48446                  23425714.5254
        23.7504         22.7504
  25398987.4284    4940016.54045   3735067.85745                  25398995.2364
        11.0004          9.7504
  23143017.3184    1796705.69647   1406412.20646                  23143023.1314
        25.2504         24.7504
  23652210.2564   13334513.26447  10390528.92846                  23652216.7604
        20.5004         20.0004
  24426532.2094   14104274.71746  10983257.82846                  24426540.3574
        13.7504         14.0004
  23539750.4594   12961162.82147  10099608.87646                  23539755.8384
        25.5004         22.7504
  22821292.6314    8387741.51147   6535905.74146                  22821298.6434
        26.7504         24.7504
 02  7  2 19 35 15.0060000  0  8G31G 3G 9G14G15G17G18G21
  24648758.4674    3498466.00346   2720610.94546                  24648764.9474
        13.2504         12.5004
  23440107.7324    9059583.38847   7014638.23646                  23440114.3304
        24.2504         22.7504
  25409260.1864    4993991.94545   3777126.60345                  25409268.2644
        11.7504         10.2504
  23148069.0214    1823254.32547   1427099.48746                  23148074.9514
        25.0004         25.2504
  23670944.3114   13432958.24147  10467239.26546                  23670950.8854
        21.0004         20.0004
  24446080.6394   14207002.70546  11063305.54146                  24446088.6704
        13.0004         13.7504
  23557515.2484   13054518.94947  10172353.88646                  23557520.6274
        25.0004         22.7504
  22833624.9514    8452547.82847   6586404.17846                  22833631.0334
        27.2504         25.0004
 02  7  2 19 35 30.0060000  0  8G31G 3G 9G14G15G17G18G21
  24656191.6934    3537527.69746   2751048.63046                  24656198.7754
        13.2504         12.7504
  23454543.3034    9135442.84047   7073749.48046                  23454549.7714
        24.0004         22.7504
  25419567.1074    5048158.55245   3819334.36645                  25419574.4474
        11.5004         10.7504
  23153152.4364    1849966.47347   1447914.19046                  23153158.3654
        25.5004         25.5004
  23689702.5924   13531535.79447  10544052.91246                  23689709.2954
        21.0004         20.0004
  24465653.6624   14309855.52846  11143450.54246                  24465661.2484
        14.0004         13.2504
  23575298.5214   13147968.38947  10245171.61946                  23575303.9124
        26.0004         23.2504
  22845976.2644    8517456.43647   6636982.31546                  22845982.2754
        26.7504         25.2504
 02  7  2 19 35 45.0060000  0  8G31G 3G 9G14G15G17G18G21
  24663659.2484    3576773.10646   2781629.47346                  24663667.0684
        13.2504         12.5004
  23469014.5684    9211491.06247   7133007.81846                  23469021.2134
        23.5004         22.5004
  25429910.3894    5102514.82245   3861689.90445                  25429917.5644
        11.0004         11.0004
  23158266.4044    1876840.62647   1468855.12446                  23158272.2524
        26.0004         25.5004
  23708486.6154   13630244.20747  10620968.51946                  23708493.0844
        21.0004         19.7504
  24485248.0924   14412831.44646  11223691.47346                  24485255.1034
        12.7504         13.5004
  23593098.8654   13241509.49147  10318060.77546                  23593104.1034
        26.5004         23.5004
  22858347.0064    8582465.40947   6687638.65546                  22858353.0414
        26.5004         25.0004
 02  7  2 19 36  0.0060000  0  8G31G 3G 9G14G15G17G18G21
  24671162.0684    3616203.96746   2812354.84446                  24671169.8424
        12.7504         12.7504
  23483522.3894    9287729.41247   7192414.30846                  23483528.9164
        23.2504         22.5004
  25440290.4284    5157062.51745   3904194.62145                  25440298.2484
        10.5004         10.7504
  23163411.6234    1903878.58647   1489923.69446                  23163417.2254
        26.2504         25.5004
  23727294.6004   13729084.97947  10697987.26946                  23727301.1504
        20.2504         19.5004
  24504867.8894   14515931.88846  11304029.42246                  24504876.1074
        12.5004         13.0004
  23610916.9824   13335143.58547  10391022.39046                  23610922.0454
        26.7504         23.5004
  22870737.2644    8647576.35247   6738374.46046                  22870743.1824
        26.5004         24.7504
 02  7  2 19 36 15.0060000  0  8G31G 3G 9G14G15G17G18G21
  24678701.4364    3655819.38446   2843224.00246                  24678709.0924
        13.2504         12.7504
  23498065.8184    9364156.64747   7251967.98246                  23498072.4984
        23.0004         22.2504
  25450706.7174    5211800.74945   3946847.79045                  25450714.5724
        10.7504         11.0004
  23168587.9594    1931079.43347   1511119.19347                  23168593.5254
        26.5004         25.7504
  23746128.7484   13828056.96047  10775108.25646                  23746135.4634
        20.0004         19.5004
  24524510.6624   14619155.82946  11384463.60946                  24524518.4824
        12.2504         12.2504
  23628752.5684   13428869.43247  10464055.50646                  23628757.5614
        26.7504         23.5004
  22883146.6784    8712788.15047   6789188.85246                  22883152.5494
        26.7504         24.7504
 02  7  2 19 36 30.0060000  0  8G31G 3G 9G14G15G17G18G21
  24686273.6154    3695616.30546   2874234.59146                  24686282.1974
        12.5004         13.0004
  23512645.1394    9440769.38647   7311666.20846                  23512651.9244
        23.5004         22.2504
  25461158.5924    5266726.37445   3989646.99645                  25461165.5334
        10.2504         10.7504
  23173794.2714    1958440.13347   1532439.25647                  23173799.7324
        26.2504         25.7504
  23764986.7094   13927156.78447  10852328.86546                  23764993.1664
        20.0004         19.2504
  24544176.1704   14722499.76945  11464991.28445                  24544183.6624
        11.7504         11.7504
  23646604.5214   13522683.56247  10537157.41846                  23646609.4084
        26.5004         23.5004
  22895574.6394    8778097.51147   6840079.26446                  22895580.4754
        26.7504         25.0004
 02  7  2 19 36 45.0060000  0  8G31G 3G 9G14G15G17G18G21
  24693882.4364    3735600.28446   2905390.94846                  24693890.9364
        13.0004         12.7504
  23527259.9514    9517572.85647   7371513.04546                  23527266.7134
        23.0004         22.5004
  25471647.0844    5321844.91845   4032596.56445                  25471654.4364
        10.2504         10.5004
  23179032.2404    1985966.34347   1553888.29146                  23179037.5964
        26.0004         25.2504
  23783870.4284   14026389.73647  10929653.21446                  23783876.6154
        21.0004         19.5004
  24563866.6154   14825969.05746  11545616.65845                  24563873.4004
        12.2504         11.7504
  23664474.6784   13616591.22247  10610332.21246                  23664479.5414
        27.0004         23.7504
  22908022.3814    8843509.63347   6891049.75546                  22908028.1004
        27.5004         25.2504
 02  7  2 19 37  0.0060000  0  8G31G 3G 9G14G15G17G18G21
  24701526.2484    3775765.05746   2936688.18846                  24701533.5294
        14.5004         12.5004
  23541909.8964    9594560.38047   7431503.29446                  23541916.8504
        23.0004         22.5004
  25482171.3894    5377150.13745   4075691.53445                  25482179.0104
        10.2504         10.7504
  23184300.4674    2013651.85147   1575461.44446                  23184305.9284
        26.0004         25.5004
  23802778.4674   14125749.25647  11007076.18646                  23802784.6194
        21.5004         19.7504
  24583578.6074   14929557.19546  11626334.64046                  24583585.0184
        12.5004         12.2504
  23682361.5294   13710585.92747  10683574.82846                  23682365.9474
        27.2504         23.5004
  22920488.0294    8909017.97947   6942095.22046                  22920494.0884
        27.2504         25.0004
 02  7  2 19 37 15.0060000  0  8G31G 3G 9G14G15G17G18G21
  24709204.2484    3816113.37446   2968128.44646                  24709210.8814
        14.7504         12.5004
  23556596.1464    9671734.40947   7491638.88146                  23556603.1114
        23.7504         22.7504
  25492730.8894    5432644.78645   4118934.12145                  25492739.2484
        10.0004         10.7504
  23189599.5144    2041499.38347   1597160.84947                  23189604.9044
        25.7504         25.7504
  23821710.2404   14225237.90447  11084599.78146                  23821716.8384
        21.2504         19.7504
  24603313.5374   15033266.60645  11707147.12645                  24603319.4324
        11.5004         11.5004
  23700265.2254   13804670.14147  10756887.18846                  23700269.7714
        27.7504         23.5004
  22932972.7644    8974625.09747   6993217.65946                  22932978.7054
        26.5004         25.0004
 02  7  2 19 37 30.0060000  0  8G31G 3G 9G14G15G17G18G21
  24716916.7094    3856644.15246   2999710.88646                  24716924.0374
        14.7504         12.2504
  23571316.7954    9749093.50447   7551918.68246                  23571323.7604
        24.0004         23.0004
  25503328.6544    5488327.84445   4162323.54045                  25503336.8264
        11.5004         11.2504
  23194929.7564    2069507.81847   1618985.63446                  23194935.3224
        26.0004         25.5004
  23840666.4754   14324854.35947  11162222.94946                  23840673.3184
        21.0004         19.7504
  24623071.4674   15137095.99945  11788053.07845                  24623078.4434
        11.5004         11.5004
  23718185.6004   13898842.47147  10830268.21246                  23718190.3464
        27.0004         23.2504
  22945476.1464    9040329.65447   7044416.01846                  22945482.0414
        27.0004         25.0004
 02  7  2 19 37 45.0060000  0  8G31G 3G 9G14G15G17G18G21
  24724664.4904    3897358.77746   3031436.58846                  24724671.2524
        14.5004         12.5004
  23586073.2714    9826638.74247   7612343.53246                  23586080.1784
        24.2504         23.0004
  25513960.8964    5544200.70045   4205860.83145                  25513969.0214
        11.5004         11.0004
  23200290.0684    2097678.61747   1640936.94147                  23200295.6704
        25.7504         25.7504
  23859647.3504   14424599.68747  11239946.54646                  23859654.0764
        20.5004         19.2504
  24642852.9514   15241046.48445  11869053.38446                  24642860.6194
        11.5004         12.2504
  23736122.2404   13993103.91847  10903718.68046                  23736127.3964
        25.2504         23.0004
  22957998.0534    9106132.81847   7095691.21346                  22958003.8654
        26.7504         24.7504
 02  7  2 19 38  0.0060000  0  8G31G 3G 9G14G15G17G18G21
  24732446.6314    3938254.11646   3063303.08346                  24732453.1824
        14.7504         12.7504
  23600864.3504    9904366.66047   7672910.72446                  23600871.3384
        24.2504         23.2504
  25524628.2404    5600260.14345   4249543.51745                  25524635.9784
        11.2504         11.0004
  23205681.3034    2126008.78047   1663012.42546                  23205686.8574
        26.0004         25.5004
  23878651.9824   14524470.54547  11317767.94846                  23878658.9124
        20.5004         19.5004
  24662656.3034   15345114.59745  11950145.36446                  24662664.9434
        11.2504         12.2504
  23754076.0144   14087451.08247  10977235.94046                  23754081.5804
        25.0004         22.5004
  22970537.7714    9172031.10047   7147040.53246                  22970543.7714
        26.5004         24.7504
 02  7  2 19 38 15.0060000  0  8G31G 3G 9G14G15G17G18G21
  24740263.8734    3979333.60046   3095313.07346                  24740270.2954
        15.2504         13.0004
  23615690.6394    9982280.35647   7733622.66846                  23615697.4984
        24.2504         23.0004
  25535332.2174    5656509.60645   4293374.27545                  25535339.3934
        11.7504         11.2504
  23211103.5454    2154501.73247   1685214.76447                  23211108.9244
        26.0004         25.7504
  23897681.5454   14624470.14647  11395689.68446                  23897688.0844
        21.0004         19.2504
  24682482.4124   15449303.51745  12031331.47846                  24682490.9244
        11.5004         13.2504
  23772046.5614   14181887.05647  11050822.39546                  23772052.1274
        25.0004         22.5004
  22983096.5214    9238027.87647   7198466.59546                  22983102.4754
        26.2504         24.7504
 02  7  2 19 38 30.0060000  0  8G31G 3G 9G14G15G17G18G21
  24748116.7874    4020596.96246   3127466.36546                  24748123.5024
        16.2504         13.0004
  23630552.5614   10060379.24247   7794478.92946                  23630559.6074
        24.2504         23.0004
  25546072.2714    5712948.85346   4337352.90845                  25546079.5414
        12.5004         11.0004
  23216556.2874    2183157.11047   1707543.66247                  23216561.7714
        26.5004         26.0004
  23916735.7014   14724597.95847  11473711.33046                  23916742.1934
        21.2504         19.2504
  24702332.3424   15553612.74745  12112611.34446                  24702340.2444
        11.7504         13.0004
  23790034.6544   14276411.35447  11124477.68246                  23790039.8114
        26.0004         23.0004
  22995674.0534    9304122.67047   7249969.03246                  22995680.0294
        26.0004         24.5004
 02  7  2 19 38 45.0060000  0  8G31G 3G 9G14G15G17G18G21
  24756003.2564    4062041.98846   3159761.19746                  24756009.5024
        16.0004         13.2504
  23645449.1074   10138660.73747   7855477.47346                  23645455.7994
        24.0004         22.7504
  25556849.2014    5769575.53446   4381477.61945                  25556856.7174
        12.7504         10.5004
  23222039.3344    2211972.83547   1729997.50247                  23222045.1824
        25.5004         26.0004
  23935813.1074   14824851.47947  11551830.90746                  23935819.3424
        21.5004         19.2504
  24722204.0064   15658039.81246  12193983.03246                  24722212.2954
        12.2504         13.5004
  23808038.0684   14371021.47447  11198199.83646                  23808042.7444
        26.5004         23.2504
  23008269.8574    9370312.82447   7301545.78246                  23008275.6824
        26.2504         24.7504
 02  7  2 19 39  0.0070000  0  8G31G 3G 9G14G15G17G18G21
  24763924.8784    4103671.21046   3192199.57646                  24763931.1474
        16.2504         13.7504
  23660381.2764   10217129.43647   7916621.89846                  23660387.8974
        23.7504         22.7504
  25567660.4644    5826393.18046   4425751.09845                  25567667.0974
        12.5004         11.0004
  23227554.3314    2240950.63647   1752577.64047                  23227559.8974
        26.5004         26.2504
  23954916.3234   14925236.90947  11630053.29446                  23954922.5224
        22.0004         19.7504
  24742099.8784   15762591.14346  12275451.52946                  24742107.6754
        12.7504         13.2504
  23826059.1284   14465723.05047  11271993.26546                  23826063.6984
        25.7504         22.7504
  23020884.2764    9436602.37847   7353199.99146                  23020890.1364
        26.7504         24.7504
 02  7  2 19 39 15.0070000  0  8G31G 3G 9G14G15G17G18G21
  24771880.5264    4145479.43346   3224777.42346                  24771887.3004
        15.2504         13.2504
  23675346.9484   10295774.91647   7977904.07146                  23675353.8544
        23.2504         22.5004
  25578507.8944    5883394.68646   4470167.86745                  25578514.6554
        13.2504         11.0004
  23233098.6514    2270087.07047   1775281.38747                  23233103.9834
        26.7504         26.5004
  23974041.2294   15025741.03947  11708368.16346                  23974047.4524
        22.0004         19.2504
  24762015.8544   15867252.88046  12357006.07646                  24762023.6044
        12.2504         13.0004
  23844094.7534   14560503.59847  11345848.22246                  23844099.9794
        24.5004         22.2504
  23033516.0734    9502982.42147   7404924.70646                  23033521.6754
        26.5004         24.5004
 02  7  2 19 39 30.0070000  0  8G31G 3G 9G14G15G17G18G21
  24779871.0504    4187468.02646   3257495.82946                  24779877.5424
        16.0004         13.5004
  23690347.1904   10374600.61347   8039326.66946                  23690354.1324
        23.7504         23.0004
  25589389.3394    5940582.38646   4514729.70545                  25589396.2334
        12.0004         11.2504
  23238673.3084    2299382.66147   1798109.15247                  23238678.6404
        26.5004         26.5004
  23993190.1044   15126368.82547  11786779.40146                  23993196.6204
        22.0004         19.2504
  24781955.2534   15972030.55846  12438650.97146                  24781962.1244
        12.5004         13.2504
  23862147.0114   14655367.73347  11419768.31546                  23862152.1204
        24.7504         22.0004
  23046164.9874    9569455.72347   7456722.09046                  23046170.9524
        26.0004         24.5004
 02  7  2 19 39 45.0070000  0  8G31G 3G 9G14G15G17G18G21
  24787897.4254    4229640.77946   3290357.72046                  24787903.9404
        17.5004         14.0004
  23705381.9564   10453609.97847   8100892.38146                  23705388.7064
        23.5004         22.7504
  25600307.4484    5997959.91745   4559439.47345                  25600314.8824
        11.7504         11.2504
  23244279.3784    2328841.17747   1821063.86647                  23244284.6514
        26.7504         26.5004
  24012363.3624   15227123.66547  11865289.61846                  24012370.1014
        21.7504         19.5004
  24801916.3234   16076927.39846  12520388.70146                  24801923.5224
        12.7504         13.0004
  23880215.4334   14750318.84847  11493756.17946                  23880220.6714
        24.5004         22.5004
  23058833.1124    9636025.86847   7508594.93446                  23058838.9254
        26.0004         24.2504
 02  7  2 19 40  0.0070000  0  8G31G 3G 9G14G15G17G18G21
  24795956.6204    4271996.31246   3323362.03846                  24795963.4644
        16.2504         13.7504
  23720451.5504   10532801.37047   8162599.93346                  23720458.0544
        23.2504         22.5004
  25611263.1834    6055525.99946   4604296.15945                  25611270.7334
        12.7504         11.2504
  23249915.2374    2358461.36147   1844144.55747                  23249920.8154
        25.2504         26.2504
  24031559.7454   15328004.11647  11943897.72046                  24031566.3084
        21.0004         19.5004
  24821899.4644   16181941.94846  12602218.16246                  24821907.0264
        12.2504         12.5004
  23898300.4094   14845355.27547  11567810.52946                  23898305.7654
        24.7504         22.5004
  23071519.1904    9702691.47147   7560542.16546                  23071525.0974
        26.2504         24.5004
 02  7  2 19 40 15.0070000  0  8G31G 3G 9G14G15G17G18G21
  24804050.0894    4314530.85646   3356505.86246                  24804057.1944
        15.2504         13.5004
  23735555.2224   10612170.69547   8224446.14446                  23735561.8784
        23.5004         22.5004
  25622253.0264    6113276.91246   4649296.88245                  25622260.4134
        13.0004         11.5004
  23255581.7764    2388239.38047   1867348.23247                  23255587.6474
        24.7504         25.7504
  24050779.8234   15429006.10047  12022600.53346                  24050786.3744
        20.7504         19.2504
  24841905.2924   16287070.01946  12684136.09746                  24841912.1124
        12.2504         12.2504
  23916400.6044   14940473.20547  11641928.38146                  23916405.9484
        24.5004         22.2504
  23084222.8154    9769448.58647   7612560.69646                  23084228.5814
        26.0004         24.5004
 02  7  2 19 40 30.0070000  0  8G31G 3G 9G14G15G17G18G21
  24812178.7924    4357246.93346   3389791.12246                  24812186.2964
        14.5004         13.5004
  23750692.9014   10691720.00447   8286432.60446                  23750699.6284
        24.2504         23.0004
  25633277.1044    6171215.07246   4694443.51546                  25633284.6444
        12.2504         12.0004
  23261278.3624    2418177.79447   1890676.90546                  23261284.3974
        24.2504         25.5004
  24070023.1834   15530131.73747  12101399.69346                  24070030.1714
        20.0004         19.2504
  24861932.3704   16392313.93545  12766144.28746                  24861939.6984
        11.7504         12.2504
  23934517.2294   15035674.57047  11716111.25346                  23934522.3864
        25.0004         22.2504
  23096944.0584    9836299.33247   7664652.19246                  23096950.0224
        26.0004         24.2504
 02  7  2 19 40 45.0070000  0  8G31G 3G 9G14G15G17G18G21
  24820342.0894    4400147.08046   3423219.80446                  24820350.4134
        14.0004         13.7504
  23765865.4484   10771451.61847   8348561.11346                  23765872.2454
        24.7504         22.7504
  25644339.2924    6229343.00346   4739738.00745                  25644346.3974
        12.5004         11.2504
  23267006.7224    2448279.30347   1914132.66047                  23267012.6404
        24.7504         25.7504
  24089290.9954   15631383.47847  12180297.12346                  24089298.0194
        20.5004         19.0004
  24881980.9954   16497676.10945  12848244.61546                  24881988.9334
        11.2504         12.0004
  23952649.9794   15130961.77947  11790361.01446                  23952654.6904
        25.5004         22.2504
  23109683.4724    9903245.98847   7716818.42346                  23109689.3314
        26.0004         24.2504
 02  7  2 19 41  0.0070000  0  8G31G 3G 9G14G15G17G18G21
  24828540.7454    4443229.59646   3456790.60746                  24828547.6404
        15.0004         14.0004
  23781071.7294   10851363.28847   8410829.93246                  23781078.6364
        24.2504         22.5004
  25655436.2224    6287659.02746   4785179.08245                  25655443.2924
        12.7504         11.7504
  23272765.3154    2478542.19847   1937714.16646                  23272771.1404
        24.5004         25.5004
  24108582.3704   15732759.31047  12259291.22746                  24108589.3704
        20.2504         19.0004
  24902053.7844   16603154.43545  12930435.45545                  24902061.4404
        11.0004         11.2504
  23970798.3004   15226332.86447  11864676.13046                  23970803.1634
        25.2504         22.0004
  23122440.8624    9970286.57647   7769057.84846                  23122446.5224
        26.2504         24.5004
 02  7  2 19 41 15.0070000  0  8G31G 3G 9G14G15G17G18G21
  24836773.2924    4486489.87546   3490499.92246                  24836780.6674
        16.0004         14.2504
  23796312.2224   10931450.19547   8473235.29246                  23796319.2454
        24.5004         22.7504
  25666568.6984    6346158.55546   4830763.09545                  25666576.0614
        12.7504         11.5004
  23278554.6284    2508961.94547   1961417.88847                  23278560.2064
        25.2504         25.7504
  24127896.2764   15834254.44747  12338378.31346                  24127903.4874
        20.2504         19.0004
  24922147.3314   16708744.14945  13012713.08945                  24922154.3904
        11.5004         11.7504
  23988961.5034   15321782.87347  11939052.74146                  23988966.6944
        24.2504         21.7504
  23135215.4174   10037416.22447   7821366.67046                  23135221.1714
        26.2504         24.5004
 02  7  2 19 41 30.0070000  0  8G31G 3G 9G14G15G17G18G21
  24845039.5654    4529928.64246   3524348.32446                  24845046.3864
        16.2504         14.5004
  23811585.6204   11011712.74847   8535777.52646                  23811592.4054
        24.7504         23.0004
  25677735.6204    6404842.12746   4876490.58246                  25677743.4174
        13.0004         12.0004
  23284373.3154    2539539.17447   1985244.33147                  23284378.6944
        25.5004         25.7504
  24147232.9174   15935869.25747  12417558.64346                  24147240.3044
        20.0004         19.2504
  24942261.4484   16814445.57946  13095077.78245                  24942269.2334
        12.0004         11.7504
  24007140.5194   15417312.27747  12013491.22246                  24007145.6284
        24.5004         21.7504
  23148006.5504   10104635.37147   7873745.22846                  23148012.1864
        26.2504         24.7504
 02  7  2 19 41 45.0070000  0  8G31G 3G 9G14G15G17G18G21
  24853339.2924    4573548.75446   3558338.01546                  24853346.1364
        16.0004         14.5004
  23826893.3084   11092153.53247   8598458.64346                  23826899.8704
        25.5004         23.0004
  25688938.2844    6463712.76146   4922363.78145                  25688945.1044
        12.5004         11.7504
  23290222.1904    2570276.85147   2009195.80147                  23290227.7334
        25.2504         25.7504
  24166592.9644   16037606.44547  12496834.33346                  24166600.2224
        20.0004         18.7504
  24962398.0264   16920261.45245  13177531.66046                  24962405.8234
        11.5004         12.0004
  24025334.3704   15512923.58747  12087993.52946                  24025339.4214
        23.7504         21.5004
  23160815.5114   10171946.79347   7926195.69746                  23160821.3354
        25.5004         24.2504
 02  7  2 19 42  0.0070000  0  8G31G 3G 9G14G15G17G18G21
  24861674.6754    4617346.72346   3592466.31246                  24861681.6404
        16.7504         14.7504
  23842233.7764   11172768.54647   8661275.51546                  23842240.2334
        25.5004         23.2504
  25700175.9174    6522766.92346   4968380.04245                  25700182.6904
        12.7504         11.2504
  23296100.8004    2601171.48447   2033269.57347                  23296106.4834
        25.5004         26.0004
  24185975.1444   16139462.25246  12576202.44446                  24185982.0854
        19.5004         19.0004
  24982554.4334   17026187.95445  13260071.72445                  24982562.9684
        11.5004         11.5004
  24043543.3234   15608613.09147  12162556.77146                  24043549.1014
        23.2504         21.2504
  23173641.0654   10239346.87347   7978715.24346                  23173647.0544
        25.0004         24.2504
 02  7  2 19 42 15.0070000  0  8G31G 3G 9G14G15G17G18G21
  24870042.8314    4661326.94646   3626736.61246                  24870051.4724
        15.2504         14.7504
  23857607.8624   11253561.86047   8724231.32546                  23857614.4834
        25.0004         23.0004
  25711448.6364    6582008.96346   5014542.64445                  25711456.1754
        12.2504         11.2504
  23302011.2694    2632227.53547   2057469.11847                  23302016.8354
        26.2504         26.2504
  24205381.1044   16241440.81046  12655666.22146                  24205388.3274
        19.2504         19.0004
  25002732.7614   17132229.27845  13342701.27845                  25002741.3084
        11.0004         11.5004
  24061768.3944   15704384.87647  12237184.12046                  24061773.8784
        23.5004         21.5004
  23186484.1834   10306839.77747   8031307.11746                  23186490.2764
        24.7504         24.0004
 02  7  2 19 42 30.0070000  0  8G31G 3G 9G14G15G17G18G21
  24878444.9874    4705484.06546   3661144.75346                  24878454.0034
        14.7504         14.5004
  23873015.8544   11334527.82047   8787321.67046                  23873022.4644
        25.7504         23.5004
  25722756.7614    6641433.53945   5060847.52645                  25722763.2654
        11.7504         10.5004
  23307950.3944    2663439.58847   2081790.23147                  23307955.7724
        26.2504         26.2504
  24224809.4724   16343536.52346  12735221.28246                  24224816.6944
        19.7504         19.0004
  25022932.9724   17238379.73245  13425415.84845                  25022941.2614
        11.0004         11.0004
  24080007.6514   15800233.27647  12311871.17146                  24080013.2764
        23.7504         21.5004
  23199344.8394   10374419.96347   8083967.00946                  23199350.8154
        25.5004         24.0004
 02  7  2 19 42 45.0070000  0  8G31G 3G 9G14G15G17G18G21
  24886882.4404    4749818.35846   3695690.97346                  24886890.3194
        16.0004         14.5004
  23888455.4724   11415666.37947   8850546.49646                  23888462.0224
        25.0004         23.0004
  25734100.4644    6701041.00846   5107294.88345                  25734107.8044
        12.7504         10.5004
  23313920.2224    2694808.11247   2106233.26047                  23313925.4724
        27.2504         26.7504
  24244260.0584   16445749.46246  12814867.67646                  24244267.1284
        19.5004         19.0004
  25043153.3944   17344639.42845  13508215.55845                  25043161.0974
        11.5004         11.5004
  24098262.0264   15896158.39947  12386618.00846                  24098267.5584
        24.5004         21.2504
  23212221.3624   10442087.46647   8136694.92946                  23212227.3514
        25.5004         24.2504
 02  7  2 19 43  0.0070000  0  8G31G 3G 9G14G15G17G18G21
  24895352.6594    4794330.65946   3730375.87246                  24895360.7144
        15.2504         14.7504
  23903928.8234   11496978.04447   8913906.21546                  23903935.7654
        24.5004         23.0004
  25745477.8544    6760832.09046   5153885.35545                  25745486.2614
        12.7504         11.0004
  23319919.2144    2726334.00147   2130798.91547                  23319924.4644
        26.7504         26.7504
  24263732.8474   16548080.24446  12894605.89246                  24263740.2454
        19.5004         19.0004
  25063396.7144   17451009.01046  13591100.87445                  25063404.2654
        12.5004         11.2504
  24116530.1984   15992160.75747  12461425.01846                  24116535.6474
        24.0004         21.5004
  23225115.1674   10509843.06847   8189491.50646                  23225121.1204
        26.0004         24.5004
 02  7  2 19 43 15.0070000  0  8G31G 3G 9G14G15G17G18G21
  24903856.8704    4839021.78446   3765200.12646                  24903864.7964
        16.0004         14.5004
  23919434.9404   11578463.22947   8977401.14846                  23919441.5854
        24.5004         22.7504
  25756890.3154    6820807.56646   5200619.47645                  25756898.3354
        12.2504         11.2504
  23325948.2764    2758018.00247   2155487.77147                  23325953.5154
        26.7504         26.5004
  24283228.1674   16650529.30946  12974436.28546                  24283235.4014
        18.7504         19.0004
  25083658.5504   17557488.90346  13674072.18745                  25083666.5224
        12.5004         11.0004
  24134814.1124   16088240.81147  12536292.57946                  24134819.1634
        24.2504         21.7504
  23238025.4094   10577687.17647   8242357.04546                  23238031.3274
        25.7504         24.5004
 02  7  2 19 43 30.0070000  0  8G31G 3G 9G14G15G17G18G21
  24912396.0894    4883891.42646   3800163.50046                  24912404.1794
        16.7504         14.7504
  23934973.8004   11660121.28147   9041030.78246                  23934980.5264
        23.7504         22.2504
  25768338.4404    6880967.13946   5247497.07645                  25768344.9094
        12.5004         11.0004
  23332007.4644    2789859.93947   2180299.70447                  23332012.6794
        26.7504         26.5004
  24302746.1834   16753096.14146  13054358.44446                  24302753.2294
        19.2504         19.0004
  25103941.3084   17664078.62946  13757129.02346                  25103949.7494
        12.2504         12.0004
  24153111.9724   16184397.99847  12611220.24446                  24153117.2574
        23.7504         21.5004
  23250952.1594   10645619.24347   8295291.12746                  23250958.0654
        25.5004         24.2504
 02  7  2 19 43 45.0070000  0  8G31G 3G 9G14G15G17G18G21
  24920967.7844    4928940.62746   3835266.76546                  24920976.2144
        15.2504         15.0004
  23950545.8084   11741952.94747   9104795.69546                  23950552.3584
        23.7504         22.5004
  25779822.3944    6941311.79146   5294518.86045                  25779829.1324
        13.2504         11.0004
  23338096.6904    2821860.77947   2205235.45647                  23338102.2104
        26.2504         26.5004
  24322286.5734   16855781.59546  13134373.04746                  24322293.6674
        19.2504         19.0004
  25124245.6514   17770778.96046  13840272.07245                  25124253.1904
        12.2504         11.5004
  24171424.9874   16280633.20547  12686208.70246                  24171430.4014
        24.2504         21.7504
  23263896.2844   10713640.22647   8348294.49446                  23263902.1204
        25.5004         24.2504
 02  7  2 19 44  0.0070000  0  8G31G 3G 9G14G15G17G18G21
  24929573.7454    4974166.50246   3870507.71946                  24929581.7764
        15.7504         15.2504
  23966150.1514   11823954.89247   9168693.29346                  23966157.0224
        23.5004         22.5004
  25791339.8474    7001838.60246   5341682.61345                  25791346.4564
        12.7504         11.0004
  23344216.4174    2854017.71547   2230292.84747                  23344221.9954
        26.7504         26.7504
  24341848.7294   16958582.56746  13214477.65646                  24341855.8944
        18.7504         19.0004
  25144572.0654   17877586.78246  13923498.89545                  25144580.1674
        12.7504         11.7504
  24189752.2764   16376943.22647  12761255.45746                  24189757.7264
        23.7504         21.5004
  23276856.4954   10781746.97747   8401364.69446                  23276862.4014
        25.5004         24.0004
 02  7  2 19 44 15.0070000  0  8G31G 3G 9G14G15G17G18G21
  24938214.7764    5019571.22446   3905888.03946                  24938222.5154
        16.5004         15.2504
  23981787.6124   11906129.01947   9232725.05546                  23981794.6944
        23.7504         22.5004
  25802893.0194    7062549.74946   5388990.02145                  25802900.7574
        13.0004         11.5004
  23350365.5034    2886332.95247   2255473.57447                  23350371.1634
        26.7504         26.7504
  24361433.5504   17061501.02246  13294673.81246                  24361440.5854
        19.2504         19.0004
  25164918.1124   17984503.90346  14006810.88246                  25164925.6044
        13.0004         12.2504
  24208093.7374   16473329.98447  12836362.00146                  24208099.5034
        23.5004         21.2504
  23289833.5974   10849941.27947   8454503.11646                  23289839.3974
        25.7504         24.0004
 02  7  2 19 44 30.0070000  0  8G31G 3G 9G14G15G17G18G21
  24946888.8864    5065152.02146   3941405.55546                  24946896.6474
        17.0004         15.5004
  23997456.8944   11988472.24247   9296888.57946                  23997463.9404
        23.7504         22.5004
  25814481.0114    7123442.44046   5436438.86345                  25814488.7144
        13.2504         11.7504
  23356544.3624    2918803.75847   2280775.53647                  23356550.0694
        26.7504         27.0004
  24381040.3154   17164533.92546  13374959.13646                  24381047.3154
        19.7504         18.7504
  25185283.2614   18091527.39346  14090205.74246                  25185291.4094
        12.5004         12.0004
  24226449.7764   16569790.39047  12911525.94246                  24226455.5544
        24.2504         21.2504
  23302826.6364   10918220.17747   8507707.45346                  23302832.5424
        25.5004         24.0004
 02  7  2 19 44 45.0070000  0  8G31G 3G 9G14G15G17G18G21
  24955594.4644    5110908.80246   3977060.17846                  24955601.7924
        15.0004         15.0004
  24013158.2064   12070984.09747   9361183.51446                  24013165.4874
        23.7504         22.7504
  25826102.6984    7184516.53046   5484029.06046                  25826110.4604
        14.0004         12.0004
  23362752.7844    2951430.09747   2306198.70147                  23362758.6204
        25.5004         26.5004
  24400668.5894   17267680.88946  13455333.35246                  24400675.0694
        19.7504         19.0004
  25205669.7144   18198656.97046  14173683.27646                  25205677.8274
        12.5004         12.0004
  24244819.8704   16666324.07147  12986746.98046                  24244825.1204
        25.0004         21.5004
  23315835.6514   10986583.27747   8560977.40446                  23315841.6164
        26.2504         24.0004
 02  7  2 19 45  0.0070000  0  8G31G 3G 9G14G15G17G18G21
  24964335.5504    5156839.74946   4012850.52746                  24964343.0544
        16.0004         14.7504
  24028891.4334   12153662.53847   9425608.25046                  24028898.5854
        23.2504         22.7504
  25837758.2374    7245770.24346   5531759.22346                  25837765.6244
        13.5004         12.5004
  23368990.8624    2984210.26647   2331741.72047                  23368996.8044
        25.5004         26.0004
  24420318.1674   17370939.96046  13535794.93046                  24420324.5774
        19.5004         18.7504
  25226074.9014   18305890.57845  14257241.88746                  25226082.5224
        11.7504         12.0004
  24263203.6834   16762929.04847  13062023.57446                  24263208.5114
        26.0004         21.5004
  23328860.5344   11055028.92847   8614311.68246                  23328866.2414
        26.2504         24.2504
 02  7  2 19 45 15.0080000  0  8G31G 3G 9G14G15G17G18G21
  24973109.8444    5202946.92746   4048778.22246                  24973116.7504
        16.5004         14.2504
  24044657.3054   12236511.61147   9490165.94946                  24044664.4344
        23.2504         22.7504
  25849450.0554    7307206.68046   5579631.77145                  25849456.2424
        13.7504         11.0004
  23375257.6564    3017145.45047   2357405.53946                  23375263.4924
        24.7504         25.5004
  24439990.0004   17474316.75446  13616348.22546                  24439996.8714
        18.7504         18.7504
  25246501.4774   18413234.00445  14340886.04346                  25246509.3204
        11.7504         12.0004
  24281601.5784   16859610.46347  13137359.72746                  24281606.3364
        25.5004         21.7504
  23341901.7344   11123560.29047   8667712.74446                  23341907.2424
        26.2504         24.5004
 02  7  2 19 45 30.0080000  0  8G31G 3G 9G14G15G17G18G21
  24981917.1414    5249227.27646   4084840.82746                  24981923.7384
        17.2504         14.7504
  24060453.9454   12319522.95347   9554850.09146                  24060460.5784
        24.0004         22.7504
  25861173.9304    7368820.62046   5627642.64745                  25861180.2814
        12.7504         10.2504
  23381554.5784    3050234.27547   2383189.06047                  23381560.2504
        25.2504         25.7504
  24459682.3124   17577800.23846  13696984.65946                  24459689.4304
        19.0004         18.2504
  25266946.7504   18520675.85945  14424606.89746                  25266955.4964
        11.2504         12.2504
  24300011.5704   16956358.18447  13212747.54046                  24300016.3404
        25.0004         21.7504
  23354957.4534   11192171.06347   8721175.68246                  23354963.4064
        25.2504         24.0004
 02  7  2 19 45 45.0080000  0  8G31G 3G 9G14G15G17G18G21
  24990757.4924    5295686.02446   4121042.46146                  24990764.3754
        17.2504         15.0004
  24076282.9844   12402703.97247   9619666.45146                  24076289.3594
        24.5004         22.7504
  25872933.8594    7430618.42946   5675796.77445                  25872939.7194
        12.7504         10.5004
  23387881.3204    3083481.24347   2409095.81946                  23387886.7814
        25.5004         25.5004
  24479396.4924   17681399.32746  13777711.17646                  24479403.4574
        19.0004         18.7504
  25287413.9144   18628225.28045  14508411.56646                  25287422.5784
        11.5004         12.0004
  24318436.1254   17053180.64447  13288193.59846                  24318441.3984
        24.0004         21.2504
  23368029.9304   11260867.99847   8774705.76646                  23368035.9884
        25.2504         23.7504
 02  7  2 19 46  0.0080000  0  8G31G 3G 9G14G15G17G18G21
  24999630.8124    5342317.50446   4157378.69346                  24999637.4694
        16.5004         14.7504
  24092143.2504   12486048.62747   9684610.32046                  24092149.7304
        25.2504         22.7504
  25884727.9304    7492594.28046   5724089.63545                  25884734.6684
        13.2504         11.0004
  23394237.1174    3116880.68047   2435121.39047                  23394242.3204
        25.2504         25.7504
  24499131.9374   17785108.08846  13858523.14746                  24499139.1134
        19.2504         18.5004
  25307898.8444   18735876.07845  14592295.26346                  25307908.0704
        11.2504         12.2504
  24336873.7424   17150071.84047  13363693.21446                  24336879.1564
        23.5004         21.2504
  23381118.1804   11329645.09547   8828298.31046                  23381123.9454
        26.2504         24.2504
 02  7  2 19 46 15.0080000  0  8G31G 3G 9G14G15G17G18G21
  25008537.9844    5389123.24146   4193850.69446                  25008544.5944
        16.2504         15.0004
  24108034.4694   12569558.18747   9749682.67946                  24108040.9374
        25.0004         23.0004
  25896556.1484    7554749.77246   5772522.51845                  25896563.2304
        13.7504         11.0004
  23400622.2664    3150434.19847   2461267.01446                  23400627.7154
        25.5004         25.5004
  24518887.7734   17888927.85446  13939421.61646                  24518895.1604
        18.2504         18.2504
  25328403.4534   18843629.80245  14676259.11846                  25328412.5864
        11.2504         12.0004
  24355324.4304   17247033.13147  13439247.44446                  24355330.0194
        22.7504         21.2504
  23394221.4374   11398503.74947   8881954.40646                  23394227.4964
        25.5004         24.0004
 02  7  2 19 46 30.0080000  0  8G31G 3G 9G14G15G17G18G21
  25017477.9614    5436104.30846   4230459.32846                  25017485.1484
        15.7504         14.5004
  24123957.2344   12653233.34447   9814884.07546                  24123964.0194
        25.0004         23.2504
  25908417.8204    7617085.94246   5821096.17845                  25908425.4064
        13.2504         11.2504
  23407036.6024    3184142.91947   2487533.58347                  23407041.8164
        25.2504         25.7504
  24538665.7504   17992859.37946  14020407.18246                  24538673.0314
        18.7504         18.2504
  25348927.6564   18951487.22745  14760303.80645                  25348935.7234
        11.0004         11.7504
  24373789.3524   17344065.28947  13514856.90546                  24373795.0704
        23.0004         21.0004
  23407340.2664   11467444.76147   8935674.67846                  23407346.1954
        25.5004         23.7504
 02  7  2 19 46 45.0080000  0  8G31G 3G 9G14G15G17G18G21
  25026451.7344    5483261.59146   4267205.24746                  25026459.0984
        16.2504         15.0004
  24139911.9614   12737074.61547   9880214.91446                  24139918.6414
        25.5004         23.2504
  25920313.8124    7679603.60646   5869811.23645                  25920321.0124
        12.5004         11.2504
  23413481.0474    3218007.73647   2513921.77747                  23413486.1334
        25.5004         26.2504
  24558464.6874   18096903.35246  14101480.34746                  24558472.0744
        19.2504         18.2504
  25369472.2894   19059448.95945  14844429.76945                  25369480.2384
        11.0004         11.5004
  24392267.5394   17441169.01747  13590522.13246                  24392273.3404
        23.2504         20.7504
  23420475.1644   11536468.91947   8989459.73646                  23420481.1644
        25.5004         24.0004
 02  7  2 19 47  0.0080000  0  8G31G 3G 9G14G15G17G18G21
  25035458.1724    5530593.55346   4304087.29846                  25035465.4064
        15.5004         14.7504
  24155897.4144   12821080.10847   9945673.71946                  24155903.9304
        25.0004         23.2504
  25932244.2974    7742301.30745   5918666.61145                  25932251.8834
        11.7504         11.2504
  23419954.3444    3252027.19447   2540430.47847                  23419959.7694
        25.0004         26.0004
  24578284.9064   18201058.03546  14182639.79446                  24578292.0354
        19.5004         18.2504
  25390036.1254   19167513.27745  14928635.65745                  25390044.8714
        10.0004         11.0004
  24410759.5004   17538342.49447  13666241.70846                  24410765.1254
        23.5004         20.7504
  23433625.5624   11605574.42047   9043308.17946                  23433631.4574
        25.5004         23.7504
 02  7  2 19 47 15.0080000  0  8G31G 3G 9G14G15G17G18G21
  25044498.6644    5578098.71446   4341104.29046                  25044506.1684
        16.5004         15.2504
  24171913.4694   12905247.98247  10011259.05446                  24171920.2194
        24.0004         23.0004
  25944208.9694    7805177.45945   5967661.00245                  25944217.0824
        11.5004         11.0004
  23426457.3594    3286199.82047   2567058.52647                  23426462.6804
        25.2504         26.2504
  24598125.4694   18305321.69646  14263884.16246                  24598132.7274
        19.0004         18.5004
  25410619.7894   19275678.36945  15012920.07745                  25410627.4924
        11.0004         11.2504
  24429264.0314   17635583.92447  13742014.23746                  24429269.1764
        23.7504         21.0004
  23446791.3284   11674759.48147   9097218.61146                  23446797.0944
        26.5004         24.2504
 02  7  2 19 47 30.0080000  0  8G31G 3G 9G14G15G17G18G21
  25053571.6724    5625778.58746   4378257.45446                  25053579.6564
        16.2504         15.5004
  24187961.5704   12989579.42447  10076971.83946                  24187968.1684
        24.5004         23.0004
  25956208.3984    7868233.56345   6016795.62845                  25956215.6444
        10.7504         11.2504
  23432989.7504    3320527.12047   2593807.09347                  23432995.2114
        25.5004         26.7504
  24617986.8754   18409695.59246  14345214.42146                  24617994.2384
        18.7504         18.2504
  25431221.8984   19383945.65745  15097284.11145                  25431231.2774
        11.2504         11.0004
  24447781.7504   17732894.78847  13817840.85546                  24447786.6724
        23.7504         21.0004
  23459971.9694   11744025.55547   9151192.17246                  23459977.9574
        25.7504         24.0004
 02  7  2 19 47 45.0080000  0  8G31G 3G 9G14G15G17G18G21
  25062677.9614    5673634.10946   4415547.48046                  25062685.9344
        15.7504         15.5004
  24204040.3284   13074075.01047  10142812.53646                  24204047.2344
        24.5004         23.0004
  25968244.0864    7931470.54946   6066071.16745                  25968251.4844
        12.5004         11.5004
  23439551.4924    3355010.08347   2620676.96847                  23439556.8834
        25.5004         26.5004
  24637870.2114   18514180.46346  14426631.16446                  24637877.4104
        18.7504         18.0004
  25451843.9224   19492315.77745  15181728.29645                  25451852.1994
        11.0004         11.0004
  24466312.5704   17830275.60147  13893721.99646                  24466317.4454
        23.5004         20.7504
  23473168.2894   11813373.45147   9205229.49946                  23473174.2664
        25.2504         23.7504
 02  7  2 19 48  0.0080000  0  8G31G 3G 9G14G15G17G18G21
  25071818.1954    5721666.27446   4452975.14346                  25071825.9454
        16.2504         16.0004
  24220151.0474   13158735.42547  10208781.66046                  24220158.0004
        24.7504         23.2504
  25980310.6414    7994889.30446   6115488.39945                  25980318.0624
        12.5004         11.7504
  23446143.4374    3389649.75047   2647668.93947                  23446148.5474
        26.2504         26.5004
  24657773.9454   18618777.01246  14508134.92146                  24657781.1444
        19.2504         18.0004
  25472487.1874   19600789.36045  15266253.11045                  25472495.7694
        11.5004         11.2504
  24484856.9774   17927727.22847  13969658.30946                  24484861.7814
        23.5004         20.7504
  23486380.2584   11882803.88647   9259331.13746                  23486386.2344
        25.2504         23.7504
 02  7  2 19 48 15.0080000  0  8G31G 3G 9G14G15G17G18G21
  25080993.1414    5769873.29146   4490539.05446                  25081000.6804
        17.5004         15.5004
  24236292.1174   13243558.48447  10274877.52846                  24236298.8324
        24.5004         22.7504
  25992413.7274    8058488.02146   6165045.87845                  25992420.9734
        13.2504         11.5004
  23452764.5084    3424444.41047   2674781.68847                  23452769.4654
        25.5004         26.2504
  24677699.0554   18723483.23646  14589724.14246                  24677706.1134
        19.2504         18.0004
  25493147.2974   19709364.49645  15350857.02845                  25493155.7504
        11.7504         11.2504
  24503414.0234   18025247.52347  14045648.12846                  24503419.1334
        23.0004         20.7504
  23499607.6174   11952314.72647   9313495.42946                  23499613.6294
        25.2504         24.0004
 02  7  2 19 48 30.0080000  0  8G31G 3G 9G14G15G17G18G21
  25090199.8754    5818257.33246   4528240.89546                  25090207.0624
        17.0004         15.5004
  24252464.9614   13328546.00447  10341101.55246                  24252471.7114
        25.0004         23.2504
  26004550.4614    8122268.90645   6214745.27645                  26004558.5514
        11.5004         11.5004
  23459415.3444    3459396.24647   2702016.92247                  23459420.6994
        25.2504         26.5004
  24697645.8054   18828301.15246  14671400.39646                  24697652.8984
        19.7504         17.7504
  25513828.8914   19818043.19046  15435541.65645                  25513836.7694
        12.0004         11.0004
  24521985.3284   18122838.41747  14121692.95846                  24521990.3324
        23.5004         20.7504
  23512851.0864   12021907.93547   9367723.89846                  23512857.1094
        26.0004         24.2504
 02  7  2 19 48 45.0080000  0  8G31G 3G 9G14G15G17G18G21
  25099439.0624    5866815.40846   4566078.34646                  25099445.9694
        15.7504         15.2504
  24268667.9454   13413694.89847  10407451.31346                  24268674.5784
        24.7504         23.2504
  26016721.4304    8186228.93345   6264584.28145                  26016730.3284
        11.7504         11.2504
  23466095.9374    3494502.42347   2729372.41147                  23466101.5164
        26.0004         26.7504
  24717612.0394   18933227.62246  14753161.23046                  24717618.9454
        18.7504         18.0004
  25534528.7734   19926822.18946  15520304.43945                  25534536.9454
        12.5004         11.2504
  24540569.1564   18220496.71547  14197790.32346                  24540574.3714
        23.5004         20.2504
  23526109.7274   12091580.74047   9422014.39946                  23526115.7034
        26.5004         24.5004
 02  7  2 19 49  0.0080000  0  8G31G 3G 9G14G15G17G18G21
  25108713.6024    5915549.03346   4604052.59446                  25108720.8124
        17.0004         15.5004
  24284902.4454   13499006.13647  10473927.58046                  24284909.1484
        24.7504         23.0004
  26028926.8524    8250369.55945   6314563.98145                  26028934.8944
        11.2504         11.0004
  23472806.2974    3529764.34447   2756849.25747                  23472811.6294
        26.2504         27.2504
  24737600.0234   19038263.72146  14835007.49946                  24737607.6214
        19.2504         18.0004
  25555248.2664   20035702.63546  15605146.25445                  25555255.7584
        12.7504         11.2504
  24559166.1254   18318223.70547  14273941.20646                  24559171.2584
        23.2504         20.2504
  23539383.2424   12161334.40947   9476367.90546                  23539389.0664
        26.2504         24.2504
 02  7  2 19 49 15.0080000  0  8G31G 3G 9G14G15G17G18G21
  25118020.6644    5964456.42146   4642162.27446                  25118027.8284
        16.5004         15.2504
  24301166.9924   13584477.56247  10540528.66246                  24301173.8754
        24.7504         23.2504
  26041167.4304    8314689.10145   6364683.10245                  26041175.4844
        11.5004         11.2504
  23479545.5864    3565180.34047   2784446.17547                  23479551.0474
        26.5004         27.5004
  24757608.4534   19143407.60546  14916937.75046                  24757615.6524
        19.2504         17.7504
  25575986.4374   20144682.66346  15690065.68845                  25575994.1414
        12.5004         11.7504
  24577775.6644   18416017.42647  14350144.08246                  24577780.8554
        23.5004         20.5004
  23552672.0164   12231167.04447   9530782.94246                  23552677.9804
        26.0004         24.0004
 02  7  2 19 49 30.0080000  0  8G31G 3G 9G14G15G17G18G21
  25127360.1874    6013539.01246   4680408.47046                  25127367.2584
        16.2504         15.2504
  24317462.5084   13670110.26247  10607255.42346                  24317469.6254
        25.0004         23.5004
  26053440.9534    8379188.91045   6414942.70945                  26053446.7544
        11.7504         10.5004
  23486314.6564    3600751.89747   2812164.30347                  23486319.7544
        27.0004         28.0004
  24777637.1954   19248660.39046  14998952.86746                  24777644.6174
        18.7504         17.2504
  25596743.1564   20253763.38845  15775063.57445                  25596750.6374
        11.2504         11.7504
  24596397.9774   18513879.08747  14426399.90246                  24596402.7814
        23.2504         20.2504
  23565975.7194   12301079.67947   9585260.32146                  23565981.6844
        25.2504         24.0004
 02  7  2 19 49 45.0080000  0  8G31G 3G 9G14G15G17G18G21
  25136733.0864    6062797.65846   4718791.84346                  25136740.1444
        15.7504         15.5004
  24333788.7894   13755904.82047  10674108.29446                  24333795.8834
        25.0004         23.5004
  26065749.3124    8443869.73346   6465343.33045                  26065755.3244
        12.2504         10.0004
  23493113.4064    3636479.91547   2840004.34447                  23493118.5984
        26.7504         28.0004
  24797687.3754   19354022.76746  15081053.37946                  24797694.5394
        19.0004         17.2504
  25617520.0554   20362945.52645  15860140.49545                  25617530.2304
        11.2504         10.7504
  24615033.5624   18611809.23147  14502709.09246                  24615038.6724
        23.0004         19.7504
  23579295.1174   12371073.03447   9639800.59946                  23579301.1644
        26.2504         24.2504
 02  7  2 19 50  0.0080000  0  8G31G 3G 9G14G15G17G18G21
  25146140.8284    6112232.36946   4757312.40546                  25146148.6844
        16.2504         15.5004
  24350145.8594   13841861.07147  10741087.16246                  24350152.9774
        25.2504         23.7504
  26078091.7504    8508731.79045   6515885.19445                  26078097.1414
        11.7504         10.0004
  23499941.9374    3672364.59547   2867966.46647                  23499947.3754
        26.2504         27.7504
  24817757.7114   19459494.64546  15163239.21846                  24817765.1214
        18.2504         17.2504
  25638315.8674   20472228.90545  15945296.27845                  25638326.0314
        10.7504         11.2504
  24633682.3444   18709807.85747  14579071.63746                  24633687.3014
        23.5004         20.0004
  23592630.0164   12441147.03747   9694403.71546                  23592635.9454
        26.5004         24.5004
 02  7  2 19 50 15.0080000  0  8G31G 3G 9G14G15G17G18G21
  25155580.8984    6161839.13346   4795967.02846                  25155587.8164
        17.5004         15.5004
  24366532.8914   13927974.35047  10808188.39646                  24366539.6174
        26.0004         23.7504
  26090468.2114    8573770.78745   6566564.95745                  26090475.8094
        11.2504          9.5004
  23506799.5944    3708401.72747   2896047.38047                  23506805.2544
        26.2504         27.2504
  24837847.9774   19565071.58846  15245506.91446                  24837854.9184
        18.2504         17.5004
  25659130.8834   20581609.05545  16030527.46945                  25659139.9224
        10.7504         11.0004
  24652342.5314   18807870.44847  14655484.03446                  24652347.4884
        22.7504         19.5004
  23605979.0234   12511297.31047   9749066.26846                  23605985.0354
        26.2504         24.5004
 02  7  2 19 50 30.0080000  0  8G31G 3G 9G14G15G17G18G21
  25165053.8364    6211618.02046   4834755.75246                  25165060.1874
        18.2504         16.0004
  24382949.3594   14014244.53947  10875411.89046                  24382956.0044
        25.7504         23.5004
  26102878.8284    8638986.89445   6617382.66745                  26102886.5784
        11.2504         10.5004
  23513685.9694    3744591.56647   2924247.29047                  23513691.4064
        26.0004         27.5004
  24857958.5944   19670753.48446  15327856.40346                  24857965.6524
        17.7504         17.0004
  25679963.4534   20691085.89945  16115834.05945                  25679971.9774
        10.7504         10.7504
  24671015.4374   18905997.00447  14731946.26246                  24671020.7114
        21.7504         19.2504
  23619342.4924   12581523.79347   9803788.20546                  23619348.5044
        26.0004         24.2504
 02  7  2 19 50 45.0080000  0  8G31G 3G 9G14G15G17G18G21
  25174559.6954    6261574.86846   4873683.17246                  25174566.2234
        17.5004         15.7504
  24399397.0864   14100677.11647  10942761.93246                  24399403.7194
        25.2504         23.0004
  26115322.4774    8704385.87545   6668342.92045                  26115331.3634
        11.0004         11.0004
  23520602.7344    3780939.94247   2952570.72947                  23520608.2304
        26.0004         27.7504
  24878090.4614   19776545.97346  15410292.06046                  24878097.8714
        17.7504         16.7504
  25700815.9374   20800665.16945  16201220.43945                  25700824.7074
        10.7504         11.0004
  24689701.3674   19004193.15547  14808462.73246                  24689706.5234
        22.0004         19.5004
  23632721.7504   12651832.35847   9858574.10146                  23632727.6914
        26.2504         24.5004
 02  7  2 19 51  0.0080000  0  8G31G 3G 9G14G15G17G18G21
  25184098.9224    6311704.58046   4912745.28546                  25184105.6024
        16.7504         15.7504
  24415874.1414   14187266.65247  11010234.26846                  24415880.7384
        25.0004         23.0004
  26127803.0234    8769962.66446   6719441.70945                  26127810.8204
        12.2504         11.0004
  23527549.1644    3817441.83147   2981013.78447                  23527554.5554
        26.5004         27.7504
  24898242.3984   19882443.74846  15492809.76646                  24898249.8094
        18.0004         17.5004
  25721687.0234   20910341.48745  16286682.43045                  25721696.0044
        11.0004         11.0004
  24708400.1414   19102453.55747  14885029.25846                  24708405.5434
        22.5004         19.2504
  23646115.5164   12722217.84047   9913419.93346                  23646121.5394
        25.7504         24.2504
 02  7  2 19 51 15.0090000  0  8G31G 3G 9G14G15G17G18G21
  25193671.6224    6362009.64346   4951944.05046                  25193679.0094
        16.5004         16.0004
  24432382.5054   14274017.51347  11077832.31546                  24432389.4234
        25.0004         22.7504
  26140315.3884    8835720.70145   6770681.74945                  26140322.6454
        11.2504         10.2504
  23534524.8414    3854098.73247   3009577.63247                  23534530.1024
        26.7504         27.5004
  24918415.6924   19988452.76946  15575414.15146                  24918423.0674
        18.7504         17.2504
  25742577.3884   21020120.92145  16372224.78645                  25742587.0714
        10.5004         11.2504
  24727111.7244   19200783.54747  14961650.01446                  24727116.9624
        23.0004         19.5004
  23659524.8564   12792683.78647   9968328.46046                  23659530.7744
        25.5004         24.2504
 02  7  2 19 51 30.0090000  0  8G31G 3G 9G14G15G17G18G21
  25203276.8644    6412487.28946   4991277.27346                  25203285.0364
        16.0004         15.7504
  24448919.5834   14360921.96847  11145550.04546                  24448926.6304
        24.7504         22.7504
  26152863.3254    8901655.17046   6822059.26445                  26152869.3134
        12.5004         10.5004
  23541529.8254    3890909.91747   3038261.70847                  23541535.0054
        26.2504         27.2504
  24938607.4584   20094562.71546  15658097.17646                  24938614.4234
        18.7504         16.7504
  25763485.8024   21129992.76245  16457839.13345                  25763493.9034
        10.5004         11.2504
  24745834.7084   19299173.91547  15038317.81746                  24745839.7244
        22.7504         19.2504
  23672948.3724   12863224.49447  10023295.24646                  23672954.3724
        26.0004         24.2504
 02  7  2 19 51 45.0090000  0  8G31G 3G 9G14G15G17G18G21
  25212915.3024    6463137.93046   5030745.30946                  25212922.9114
        16.0004         15.7504
  24465486.8954   14447982.50347  11213389.40146                  24465493.7674
        24.5004         22.7504
  26165443.2554    8967767.40245   6873575.27445                  26165451.0524
        11.5004         10.0004
  23548563.4114    3927874.94247   3067065.65347                  23548568.6854
        25.2504         27.0004
  24958820.1534   20200777.40546  15740861.83346                  24958826.8684
        19.2504         17.0004
  25784412.3334   21239961.12245  16543528.68045                  25784420.6224
        10.7504         11.0004
  24764569.6144   19397628.07447  15115035.33246                  24764575.3214
        21.5004         19.5004
  23686386.6454   12933841.55247  10078321.52746                  23686392.5524
        26.5004         24.5004
 02  7  2 19 52  0.0090000  0  8G31G 3G 9G14G15G17G18G21
  25222586.7944    6513962.46746   5070348.84646                  25222594.0174
        16.0004         15.7504
  24482083.9504   14535199.62247  11281350.76646                  24482090.8804
        25.2504         22.7504
  26178057.7314    9034058.27145   6925230.52245                  26178065.0134
        10.7504         10.7504
  23555626.9354    3964994.59647   3095990.08847                  23555632.7244
        25.0004         26.7504
  24979051.3644   20307097.53946  15823708.64546                  24979058.3884
        18.7504         17.0004
  25805356.5204   21350026.63945  16629293.93145                  25805363.6964
        11.0004         10.5004
  24783317.0134   19496146.66847  15191803.05446                  24783322.9074
        21.2504         19.0004
  23699839.2314   13004535.83947  10133407.98446                  23699845.0674
        26.7504         24.7504
 02  7  2 19 52 15.0090000  0  8G31G 3G 9G14G15G17G18G21
  25232289.4974    6564953.06246   5110081.79446                  25232296.4034
        16.2504         15.2504
  24498708.9584   14622565.24547  11349427.84546                  24498715.6494
        23.7504         22.2504
  26190705.3494    9100520.03845   6977018.90845                  26190713.0874
        10.7504         10.7504
  23562718.7244    4002261.24947   3125029.06447                  23562724.1734
        25.5004         27.0004
  24999301.6854   20413515.17346  15906631.44746                  24999308.7554
        18.2504         17.0004
  25826318.4814   21460181.25845  16715128.60845                  25826327.0174
        11.2504         11.0004
  24802075.0604   19594721.74347  15268614.79046                  24802081.0014
        21.2504         19.0004
  23713305.4274   13075299.28547  10188548.33446                  23713311.2864
        27.2504         24.7504
 02  7  2 19 52 30.0090000  0  8G31G 3G 9G14G15G17G18G21
  25242027.8644    6616118.45446   5149950.94446                  25242034.6024
        18.0004         15.7504
  24515363.8414   14710087.65547  11417627.10346                  24515370.8764
        23.2504         22.0004
  26203386.2004    9167161.31145   7028947.12545                  26203393.2474
        10.7504         10.7504
  23569840.2244    4039683.62647   3154189.39147                  23569845.3684
        26.0004         27.0004
  25019572.6924   20520038.81246  15989636.82246                  25019579.9384
        18.5004         17.0004
  25847298.3174   21570433.59145  16801039.45045                  25847306.5484
        10.5004         10.2504
  24820845.5134   19693361.70747  15345477.07546                  24820851.5014
        20.7504         18.5004
  23726785.8884   13146140.54547  10243749.32246                  23726791.7944
        27.0004         25.0004
 02  7  2 19 52 45.0090000  0  8G31G 3G 9G14G15G17G18G21
  25251796.8174    6667455.94946   5189954.19846                  25251803.9814
        17.7504         15.7504
  24532047.7084   14797763.92847  11485946.24046                  24532054.6964
        22.7504         21.5004
  26216101.5204    9233979.36345   7081013.16845                  26216108.8024
        11.2504         11.5004
  23576990.8494    4077259.09947   3183469.01147                  23576995.9234
        26.2504         27.5004
  25039863.2474   20626665.47746  16072722.48946                  25039870.2944
        18.2504         17.5004
  25868297.3024   21680780.60345  16887024.06145                  25868306.3064
        10.7504         11.0004
  24839628.5914   19792063.51747  15422387.56646                  24839634.1924
        21.7504         18.7504
  23740280.1384   13217056.54447  10299008.54446                  23740286.1144
        26.0004         24.7504
 02  7  2 19 53  0.0090000  0  8G31G 3G 9G14G15G17G18G21
  25261598.4354    6718966.09046   5230091.95846                  25261605.7514
        16.5004         16.2504
  24548761.3024   14885594.21447  11554385.39546                  24548768.0404
        22.0004         21.2504
  26228850.1924    9300974.80145   7133217.39545                  26228856.5094
        11.2504         11.2504
  23584170.5054    4114988.30347   3212868.41747                  23584175.6144
        26.7504         27.5004
  25060173.7164   20733395.45646  16155888.67946                  25060180.7164
        19.0004         17.7504
  25889312.9504   21791222.65545  16973082.71545                  25889322.1184
        10.7504         11.0004
  24858422.8334   19890827.74647  15499346.69546                  24858428.2704
        22.7504         19.0004
  23753789.3564   13288047.83647  10354326.43546                  23753795.3564
        26.0004         24.2504
 02  7  2 19 53 15.0090000  0  8G31G 3G 9G14G15G17G18G21
  25271432.5054    6770647.42146   5270363.11746                  25271440.1854
        16.2504         16.0004
  24565503.9194   14973576.71847  11622943.16546                  24565510.6924
        21.7504         21.5004
  26241633.2784    9368146.14946   7185558.70945                  26241640.3724
        12.2504         11.7504
  23591378.3174    4152869.77447   3242386.47447                  23591383.6494
        25.5004         27.5004
  25080502.5364   20840227.20246  16239134.14746                  25080509.9354
        18.7504         18.0004
  25910348.0674   21901758.04545  17059214.11345                  25910357.3294
        10.7504         11.0004
  24877228.3104   19989652.65547  15576353.10046                  24877233.1264
        23.0004         19.2504
  23767312.7394   13359112.96347  10409701.86246                  23767318.6574
        26.5004         24.7504
 02  7  2 19 53 30.0090000  0  8G31G 3G 9G14G15G17G18G21
  25281300.1144    6822496.81946   5310765.23946                  25281307.4774
        17.2504         16.0004
  24582274.7944   15061708.00347  11691616.86746                  24582282.0174
        22.0004         21.5004
  26254449.0834    9435490.25245   7238034.61645                  26254456.2354
        11.7504         11.5004
  23598615.4504    4190900.48547   3272020.82247                  23598620.9584
        25.2504         27.2504
  25100851.0134   20947157.39646  16322456.33446                  25100858.3764
        17.7504         17.2504
  25931398.2394   22012383.45145  17145415.62545                  25931408.3564
        10.0004         10.7504
  24896045.0364   20088534.96347  15653404.24746                  24896050.1224
        22.7504         19.5004
  23780849.9894   13430248.46547  10465132.11846                  23780855.7434
        27.2504         25.0004
 02  7  2 19 53 45.0090000  0  8G31G 3G 9G14G15G17G18G21
  25291199.0524    6874516.81146   5351300.30446                  25291206.5674
        17.5004         16.0004
  24599074.7244   15149990.32147  11760408.25446                  24599081.7594
        22.2504         21.2504
  26267296.6534    9503009.63945   7290647.13645                  26267304.2984
        11.5004         10.7504
  23605881.2394    4229082.89547   3301773.38247                  23605886.9584
        25.2504         27.2504
  25121218.1924   21054188.25746  16405856.96846                  25121225.4504
        18.0004         17.2504
  25952467.1454   22123101.20545  17231689.09545                  25952476.9704
        10.0004         10.7504
  24914873.7554   20187477.06447  15730501.96746                  24914878.6884
        24.5004         19.7504
  23794400.0914   13501456.70547  10520619.06046                  23794405.8684
        27.2504         25.0004
 02  7  2 19 54  0.0090000  0  8G31G 3G 9G14G15G17G18G21
  25301129.6224    6926702.66146   5391964.60646                  25301136.6104
        17.5004         16.0004
  24615902.2554   15238418.46647  11829313.27146                  24615909.3724
        22.7504         21.5004
  26280176.9584    9570699.46745   7343392.46045                  26280184.5914
        10.7504         11.5004
  23613175.2314    4267412.42047   3331640.57847                  23613180.5994
        26.0004         27.5004
  25141603.1224   21161314.88046  16489332.21446                  25141610.3804
        17.2504         17.5004
  25973552.7004   22233906.56945  17318030.82345                  25973562.4424
         9.5004         10.7504
  24933712.6144   20286473.91847  15807642.35846                  24933716.9274
        24.7504         19.7504
  23807963.4504   13572732.83347  10576158.90446                  23807969.4504
        27.0004         25.0004
 02  7  2 19 54 15.0090000  0  8G31G 3G 9G14G15G17G18G21
  25311092.1454    6979060.12846   5432762.62246                  25311099.2274
        17.0004         15.7504
  24632758.1694   15326997.82247  11898336.11346                  24632765.5444
        22.2504         21.5004
  26293092.8644    9638565.39145   7396274.99445                  26293099.6734
        11.7504         10.7504
  23620498.4034    4305894.73147   3361626.82547                  23620503.6424
        26.7504         28.0004
  25162008.3804   21268542.77146  16572886.37046                  25162015.6854
        17.0004         17.0004
  25994656.0444   22344804.70745  17404444.89045                  25994664.5794
         9.2504         10.0004
  24952562.5054   20385531.14247  15884829.78846                  24952566.8064
        25.0004         19.5004
  23821540.9584   13644082.50747  10631756.05846                  23821546.8644
        27.2504         25.0004
 02  7  2 19 54 30.0090000  0  8G31G 3G 9G14G15G17G18G21
  25321088.3954    7031586.17946   5473692.04146                  25321095.6654
        17.7504         16.2504
  24649642.7634   15415725.17247  11967474.28346                  24649650.2904
        22.2504         21.7504
  26306039.0444    9706604.55845   7449292.56145                  26306046.6884
        11.0004         11.2504
  23627849.6144    4344526.98347   3391729.89947                  23627854.8644
        26.5004         28.0004
  25182431.6614   21375868.76646  16656516.96946                  25182439.4704
        17.0004         17.0004
  26015776.0284   22455792.60445  17490928.89345                  26015785.1264
         9.2504          9.7504
  24971423.3024   20484645.47947  15962061.72246                  24971427.4854
        25.0004         20.0004
  23835131.7704   13715502.65447  10687408.12146                  23835137.6654
        27.2504         24.7504
 02  7  2 19 54 45.0090000  0  8G31G 3G 9G14G15G17G18G21
  25331114.4664    7084276.19446   5514749.20046                  25331122.1224
        17.7504         16.5004
  24666553.4194   15504595.51847  12036723.88046                  24666560.7004
        21.5004         21.7504
  26319019.0524    9774812.09445   7502441.26745                  26319026.1924
        11.2504         11.2504
  23635228.7004    4383304.58747   3421946.23947                  23635233.9034
        26.5004         28.2504
  25202872.8174   21483288.01946  16740220.24246                  25202880.9894
        17.0004         16.7504
  26036913.8724   22566865.37245  17577479.01945                  26036922.5834
         9.5004         10.0004
  24990294.0524   20583812.03647  16039334.35246                  24990298.2594
        24.5004         20.0004
  23848735.1304   13786988.21947  10743111.15646                  23848740.8134
        27.7504         25.0004
 02  7  2 19 55  0.0090000  0  8G31G 3G 9G14G15G17G18G21
  25341173.0994    7137134.87346   5555937.78046                  25341181.0714
        17.5004         16.7504
  24683493.2314   15593613.31647  12106088.37646                  24683500.2434
        21.5004         21.5004
  26332029.5054    9843192.84445   7555724.96445                  26332037.6534
        10.2504         11.2504
  23642636.6854    4422232.41947   3452279.64447                  23642641.9814
        27.0004         28.0004
  25223332.5284   21590805.19446  16823999.82846                  25223340.0674
        17.0004         16.7504
  26058066.8254   22678027.57945  17664098.84445                  26058074.0244
         9.5004         10.2504
  25009174.9274   20683035.57447  16116651.38446                  25009179.9424
        23.0004         19.2504
  23862351.6614   13858544.12947  10798869.01746                  23862357.6264
        27.0004         24.7504
 02  7  2 19 55 15.0090000  0  8G31G 3G 9G14G15G17G18G21
  25351264.2164    7190163.35346   5597258.67846                  25351271.4744
        18.5004         16.5004
  24700461.0054   15682779.13847  12175568.21146                  24700467.8644
        21.7504         21.0004
  26345076.8334    9911747.75745   7609144.35945                  26345084.1024
        11.2504         11.5004
  23650072.9274    4461311.44747   3482730.86247                  23650078.3174
        26.2504         28.0004
  25243811.9744   21698421.03846  16907856.28346                  25243819.3844
        17.7504         16.7504
  26079237.2394   22789279.98245  17750788.91845                  26079245.5874
         9.5004          9.7504
  25028067.7244   20782316.85747  16194013.41046                  25028072.7634
        23.2504         19.5004
  23875981.9814   13930171.17147  10854682.29346                  23875987.7944
        27.5004         25.0004
 02  7  2 19 55 30.0090000  0  8G31G 3G 9G14G15G17G18G21
  25361387.8174    7243360.70946   5638711.16246                  25361394.8524
        19.5004         16.7504
  24717456.5994   15772091.88147  12245162.52146                  24717463.0564
        22.0004         21.0004
  26358154.9034    9980476.04245   7662698.86445                  26358162.5134
        11.0004         10.5004
  23657538.0204    4500540.97347   3513299.35347                  23657543.3524
        26.2504         28.0004
  25264309.0284   21806134.53246  16991788.83846                  25264316.4504
        17.5004         16.7504
  26100426.4034   22900621.51245  17837548.47645                  26100435.0324
        10.0004         10.0004
  25046971.3804   20881654.84347  16271419.61646                  25046976.2084
        23.2504         19.5004
  23889625.6224   14001868.49347  10910550.33746                  23889630.9774
        27.7504         25.0004
 02  7  2 19 55 45.0090000  0  8G31G 3G 9G14G15G17G18G21
  25371543.2784    7296725.82946   5680294.39146                  25371549.8644
        19.7504         17.0004
  24734480.3174   15861549.91447  12314870.06646                  24734486.7514
        22.2504         20.7504
  26371266.5444   10049376.38045   7716387.43345                  26371274.0714
        11.5004         11.0004
  23665031.4664    4539919.76247   3543984.14847                  23665036.8564
        26.2504         28.0004
  25284824.7084   21913944.20146  17075796.32646                  25284832.2594
        17.5004         16.2504
  26121629.4744   23012050.92645  17924376.50045                  26121638.4074
         9.7504         10.2504
  25065885.3104   20981048.13547  16348868.92346                  25065889.9624
        23.5004         19.5004
  23903282.0994   14073634.68547  10966472.04146                  23903287.8884
        27.0004         25.0004
 02  7  2 19 56  0.0090000  0  8G31G 3G 9G14G15G17G18G21
  25381729.5834    7350257.64046   5722007.48446                  25381735.7944
        19.0004         16.5004
  24751530.3954   15951151.91447  12384689.77746                  24751537.0524
        21.5004         21.2504
  26384411.0994   10118447.85145   7770209.32345                  26384416.8764
        11.7504         10.7504
  23672553.2244    4579446.91547   3574784.55447                  23672558.6734
        26.0004         28.0004
  25305358.5994   22021848.90946  17159877.85446                  25305366.0094
        17.2504         16.2504
  26142851.1304   23123566.80345  18011271.88745                  26142859.4194
        10.5004         10.5004
  25084809.6224   21080495.55347  16426360.39646                  25084814.4384
        23.2504         19.2504
  23916951.2004   14145468.65547  11022446.56646                  23916957.2004
        26.2504         25.0004
 02  7  2 19 56 15.0090000  0  8G31G 3G 9G14G15G17G18G21
  25391946.6454    7403954.35346   5763849.09046                  25391953.2204
        17.5004         16.2504
  24768608.0444   16040895.79947  12454620.05546                  24768615.3374
        21.5004         21.2504
  26397586.6144   10187688.49845   7824163.05445                  26397592.2514
        11.7504         10.7504
  23680103.1304    4619120.67247   3605699.19847                  23680108.6734
        26.5004         27.7504
  25325909.7394   22129846.58546  17244031.84146                  25325917.1264
        16.7504         16.2504
  26164088.0994   23235167.25145  18098233.21345                  26164096.2124
        10.0004         10.2504
  25103743.9894   21179995.12547  16503892.50146                  25103748.6064
        23.5004         19.5004
  23930633.3494   14217368.25647  11078472.23546                  23930639.3494
        27.0004         24.5004
 02  7  2 19 56 30.0090000  0  8G31G 3G 9G14G15G17G18G21
  25402197.2244    7457816.11246   5805819.31546                  25402204.4814
        18.2504         16.2504
  24785713.0914   16130781.39047  12524660.73246                  24785720.8174
        21.2504         21.2504
  26410796.4194   10257098.47146   7878248.75145                  26410803.8524
        13.0004         11.2504
  23687680.2394    4658941.25747   3636728.25747                  23687685.7474
        25.5004         27.5004
  25346478.6534   22237937.30946  17328258.33246                  25346485.9814
        16.7504         16.0004
  26185341.6774   23346852.24845  18185260.38145                  26185349.5914
         9.5004         10.2504
  25122687.5834   21279546.88747  16581465.27946                  25122692.6814
        22.7504         19.2504
  23944328.0364   14289333.79847  11134549.27746                  23944333.9194
        27.0004         24.7504
 02  7  2 19 56 45.0090000  0  8G31G 3G 9G14G15G17G18G21
  25412479.0674    7511846.45746   5847920.88846                  25412485.8644
        18.7504         16.5004
  24802845.1304   16220811.86247  12594814.32546                  24802852.6814
        21.7504         21.7504
  26424035.6454   10326681.25645   7932469.07645                  26424042.8804
        11.5004         10.5004
  23695286.7704    4698912.23947   3667874.49647                  23695292.3494
        25.5004         27.5004
  25367066.0604   22346124.42946  17412559.93846                  25367073.3644
        16.2504         16.0004
  26206610.7004   23458625.20145  18272356.10245                  26206620.2554
         9.2504         10.2504
  25141642.2634   21379154.12947  16659081.29646                  25141647.3724
        23.2504         19.5004
  23958035.8884   14361368.65347  11190680.33746                  23958041.7824
        27.0004         24.7504
 02  7  2 19 57  0.0090000  0  8G31G 3G 9G14G15G17G18G21
  25422791.8024    7566043.45846   5890152.32546                  25422798.7084
        17.0004         16.5004
  24820004.6854   16310984.93347  12665079.03346                  24820011.7204
        22.0004         21.5004
  26437310.0364   10396434.88245   7986822.55245                  26437316.0834
        11.5004         11.0004
  23702920.7634    4739031.76547   3699136.49147                  23702926.3294
        24.7504         27.2504
  25387671.3564   22454405.77046  17496934.97046                  25387678.2394
        16.5004         15.7504
  26227895.7864   23570483.71445  18359518.49045                  26227905.7394
         9.2504          9.7504
  25160606.6224   21478814.68347  16736738.85746                  25160611.5674
        22.2504         19.2504
  23971756.5364   14433470.59647  11246863.66946                  23971762.2554
        27.2504         25.0004
 02  7  2 19 57 15.0100000  0  8G31G 3G 9G14G15G17G18G21
  25433137.5254    7620413.07346   5932518.26946                  25433145.1114
        17.0004         17.0004
  24837192.6894   16401308.72047  12735461.17146                  24837199.6314
        22.0004         21.5004
  26450617.8144   10466366.43846   8041314.69245                  26450624.4944
        12.5004         11.0004
  23710584.7914    4779304.90147   3730518.18247                  23710590.2524
        25.2504         27.2504
  25408296.1354   22562790.72946  17581390.72846                  25408303.4984
        16.5004         15.5004
  26249200.4244   23682437.59845  18446755.19745                  26249209.4754
         9.5004          9.7504
  25179583.3304   21578537.56647  16814444.98646                  25179588.8614
        22.2504         19.2504
  23985491.0494   14505646.76447  11303104.84246                  23985496.7914
        27.0004         25.0004
 02  7  2 19 57 30.0100000  0  8G31G 3G 9G14G15G17G18G21
  25443514.5574    7674943.52146   5975009.52246                  25443522.1544
        18.0004         17.2504
  24854406.4004   16491766.25947  12805947.54646                  24854413.4474
        22.0004         21.5004
  26463956.7754   10536461.95546   8095934.55645                  26463963.4904
        12.7504         10.7504
  23718275.8774    4819721.70647   3762011.83047                  23718281.4204
        25.2504         27.2504
  25428937.6434   22671260.00146  17665912.18646                  25428944.5964
        17.5004         16.0004
  26270518.8144   23794467.08245  18534050.79345                  26270527.8074
         9.5004         10.0004
  25198568.2914   21678304.62147  16892185.52446                  25198573.6704
        22.2504         19.2504
  23999236.9634   14577882.88147  11359392.73546                  23999242.9984
        26.7504         25.0004
 02  7  2 19 57 45.0100000  0  8G31G 3G 9G14G15G17G18G21
  25453923.5724    7729639.90946   6017630.09646                  25453931.0064
        18.2504         16.7504
  24871646.8774   16582364.84347  12876543.80646                  24871653.9594
        22.2504         21.5004
  26477328.3694   10606727.65746   8150687.04945                  26477334.3934
        13.5004         11.5004
  23725995.5964    4860286.54547   3793620.82347                  23726000.7754
        26.2504         27.5004
  25449596.7914   22779822.22946  17750506.08846                  25449604.2254
        18.0004         16.2504
  26291853.7364   23906580.90645  18621412.13245                  26291862.3074
         8.7504          9.2504
  25217563.7914   21778123.89847  16969966.76346                  25217568.8774
        22.5004         19.0004
  24012995.7214   14650185.21347  11415732.21746                  24013001.7564
        26.7504         24.7504
 02  7  2 19 58  0.0100000  0  8G31G 3G 9G14G15G17G18G21
  25464365.1434    7784508.37546   6060384.72946                  25464372.2834
        18.7504         16.7504
  24888915.3614   16673110.15347  12947254.41946                  24888922.4554
        22.2504         21.2504
  26490732.2754   10677169.52146   8205576.80745                  26490738.6974
        12.5004         11.0004
  23733743.8224    4901005.51447   3825349.91447                  23733748.9674
        26.0004         28.0004
  25470273.7214   22888483.19546  17835176.91746                  25470280.8264
        17.0004         16.2504
  26313205.8224   24018785.04345  18708843.82445                  26313214.5924
         9.0004          9.5004
  25236569.6354   21878001.24647  17047793.24646                  25236575.2834
        22.2504         19.2504
  24026768.1974   14722559.58047  11472127.82846                  24026774.1624
        27.2504         24.7504
 02  7  2 19 58 15.0100000  0  8G31G 3G 9G14G15G17G18G21
  25474836.3384    7839540.33046   6103266.75746                  25474844.0764
        17.5004         17.0004
  24906209.4634   16763993.28047  13018072.40746                  24906216.3814
        21.5004         20.7504
  26504168.2284   10747778.90745   8260597.12145                  26504175.7324
        11.7504         11.5004
  23741520.2214    4941870.12347   3857192.48547                  23741525.1314
        26.5004         28.0004
  25490968.0494   22997234.17746  17919917.90646                  25490974.9674
        17.5004         16.0004
  26334573.1664   24131070.70745  18796339.07245                  26334579.8814
         9.0004          8.7504
  25255585.1744   21977927.97247  17125658.21046                  25255590.6824
        22.2504         19.5004
  24040552.5334   14794997.21447  11528572.73946                  24040558.5684
        27.0004         25.0004
 02  7  2 19 58 30.0100000  0  8G31G 3G 9G14G15G17G18G21
  25485338.4004    7894730.64146   6146272.18746                  25485346.2444
        16.5004         16.7504
  24923529.3694   16855008.81847  13088993.58146                  24923536.1664
        21.5004         21.0004
  26517635.6194   10818550.73745   8315743.99745                  26517643.1934
        11.5004         11.0004
  23749323.3144    4982875.37247   3889144.65447                  23749328.1544
        26.2504         28.0004
  25511678.9324   23106070.02346  18004725.00046                  25511685.8854
        17.7504         16.2504
  26355954.6274   24243432.74745  18883893.78145                  26355962.8694
         8.7504          8.7504
  25274609.1274   22077898.87847  17203557.59446                  25274614.5644
        22.7504         19.2504
  24054348.0644   14867493.24447  11585063.15446                  24054353.9244
        27.2504         25.0004
 02  7  2 19 58 45.0100000  0  8G31G 3G 9G14G15G17G18G21
  25495872.8614    7950086.59746   6189406.70746                  25495881.2214
        17.0004         16.5004
  24940875.1894   16946163.67247  13160023.31246                  24940882.5884
        20.7504         20.7504
  26531134.9004   10889492.24345   8371023.07545                  26531142.4394
        11.2504         11.5004
  23757154.7054    5024028.48547   3921212.04047                  23757159.1704
        26.7504         28.0004
  25532407.7684   23214997.69746  18089603.65946                  25532415.2834
        18.0004         16.5004
  26377352.3854   24355877.94245  18971513.32345                  26377361.6824
         9.0004          8.7504
  25293642.9004   22177920.94647  17281496.85246                  25293647.9394
        23.0004         19.5004
  24068155.9554   14940054.71747  11641604.56446                  24068161.8504
        27.0004         25.0004
 02  7  2 19 59  0.0100000  0  8G31G 3G 9G14G15G17G18G21
  25506437.8614    8005607.55246   6232669.76946                  25506446.1154
        16.5004         16.2504
  24958247.7524   17037456.75747  13231160.74746                  24958255.4554
        20.0004         20.5004
  26544667.1354   10960602.69245   8426433.78545                  26544674.1824
        11.0004         10.7504
  23765013.6274    5065328.88247   3953394.19147                  23765018.1034
        26.2504         27.7504
  25553153.5574   23324016.35446  18174553.20146                  25553161.1544
        18.5004         16.7504
  26398765.6114   24468405.75845  19059197.24045                  26398774.6504
         8.7504          9.2504
  25312685.7134   22277993.46747  17359475.41546                  25312690.8344
        22.2504         19.2504
  24081976.4084   15012680.77747  11698196.30446                  24081982.3964
        27.0004         25.0004
 02  7  2 19 59 15.0100000  0  8G31G 3G 9G14G15G17G18G21
  25517034.4474    8061292.12746   6276060.34246                  25517042.6544
        16.7504         16.7504
  24975646.2134   17128886.44547  13302404.61846                  24975653.9514
        20.5004         20.7504
  26558231.1974   11031880.66045   8481975.06945                  26558238.7134
        11.5004         11.0004
  23772900.6274    5106775.24347   3985690.08047                  23772905.3034
        26.2504         28.0004
  25573916.0104   23433124.43946  18259572.44046                  25573923.7954
        18.2504         16.5004
  26420195.1434   24581014.39745  19146944.13345                  26420204.8264
         8.5004          9.0004
  25331737.8934   22378114.87647  17437492.08246                  25331743.1434
        21.5004         18.7504
  24095808.7604   15085369.92747  11754837.20446                  24095814.8074
        27.2504         25.0004
 02  7  2 19 59 30.0100000  0  8G31G 3G 9G14G15G17G18G21
  25527661.8074    8117141.21046   6319579.10946                  25527669.0064
        17.7504         16.5004
  24993071.0644   17220453.31747  13373755.40346                  24993078.5684
        20.5004         20.5004
  26571827.3074   11103327.09445   8537647.60745                  26571834.4594
        11.7504         11.2504
  23780815.6894    5148368.53747   4018100.46847                  23780820.6584
        26.2504         27.7504
  25594695.3854   23542322.74446  18344661.97846                  25594703.1704
        18.0004         16.5004
  26441638.6114   24693704.59845  19234754.55745                  26441646.4434
         8.2504          8.5004
  25350799.7994   22478285.92547  17515547.42246                  25350805.4124
        21.0004         18.7504
  24109653.1034   15158123.12947  11811528.01246                  24109659.0334
        27.7504         25.2504
 02  7  2 19 59 45.0100000  0  8G31G 3G 9G14G15G17G18G21
  25538321.2914    8173154.88346   6363226.14146                  25538328.1354
        18.0004         16.0004
  25010521.7364   17312157.18547  13445212.93146                  25010528.8654
        21.0004         20.2504
  26585455.2444   11174941.99345   8593451.39945                  26585462.7484
        11.5004         11.0004
  23788758.5334    5190108.98947   4050625.52047                  23788763.5374
        26.0004         27.7504
  25615492.2524   23651611.14646  18429821.72746                  25615499.6034
        17.7504         16.2504
  26463098.7364   24806476.28645  19322628.48045                  26463105.7484
         8.5004          8.7504
  25369871.0254   22578506.63247  17593641.45746                  25369876.5574
        21.0004         18.5004
  24123509.6584   15230940.51047  11868268.82846                  24123515.7524
        27.7504         25.2504
 02  7  2 20  0  0.0100000  0  8G31G 3G 9G14G15G17G18G21
  25549012.5644    8229333.94046   6407002.03346                  25549019.7174
        18.7504         16.0004
  25027998.2524   17403998.50547  13516777.57246                  25028005.1584
        20.5004         20.2504
  26599114.6744   11246726.16145   8649387.14845                  26599121.2834
        10.7504         11.0004
  23796729.5254    5231997.43147   4083265.89347                  23796734.5644
        25.7504         27.5004
  25636306.4164   23760990.15046  18515052.06146                  25636314.2604
        17.0004         16.2504
  26484574.7684   24919330.10345  19410566.47445                  26484584.8384
         8.7504          9.2504
  25388952.0724   22678777.48247  17671774.57846                  25388957.4394
        21.2504         18.5004
  24137378.9864   15303822.46448  11925059.96446                  24137384.6934
        28.0004         25.5004
 02  7  2 20  0 15.0100000  0  8G31G 3G 9G14G15G17G18G21
  25559734.7364    8285681.78346   6450909.44646                  25559741.7954
        18.0004         16.2504
  25045502.2284   17495980.35047  13588451.70146                  25045509.1004
        21.0004         20.0004
  26612807.3694   11318682.96845   8705457.34545                  26612813.9434
        10.0004         10.7504
  23804729.4864    5274037.13047   4116024.12347                  23804734.4204
        26.2504         27.7504
  25657138.9394   23870462.94846  18600355.49046                  25657146.4084
        17.7504         16.2504
  26506066.0644   25032269.00245  19498570.69745                  26506075.3384
         8.5004          9.2504
  25408043.1194   22779101.73147  17749949.28846                  25408049.1074
        20.7504         18.5004
  24151260.6824   15376772.29447  11981903.97946                  24151266.6464
        27.5004         25.2504
 02  7  2 20  0 30.0100000  0  8G31G 3G 9G14G15G17G18G21
  25570487.7214    8342192.31646   6494943.63246                  25570494.4354
        17.5004         16.2504
  25063031.2134   17588096.25247  13660230.30246                  25063038.2254
        21.0004         20.2504
  26626531.0494   11390806.31845   8761657.36745                  26626539.5604
         9.5004         11.0004
  23812756.5334    5316222.17947   4148895.61747                  23812761.6664
        25.2504         28.0004
  25677987.0254   23980023.38046  18685727.20646                  25677995.1854
        16.5004         16.0004
  26527571.4864   25145287.06745  19586636.64545                  26527580.8074
         7.7504          9.7504
  25427143.3694   22879473.31847  17828160.89646                  25427149.2644
        21.0004         18.5004
  24165154.4714   15449783.83647  12038796.10246                  24165160.5064
        27.5004         25.2504
 02  7  2 20  0 45.0100000  0  8G31G 3G 9G14G15G17G18G21
  25581272.1354    8398868.11746   6539106.59646                  25581279.0644
        17.2504         16.2504
  25080586.7364   17680348.45247  13732115.11146                  25080593.4984
        21.7504         20.5004
  26640289.2284   11463098.59945   8817989.03345                  26640296.6154
        11.0004         11.2504
  23820812.6034    5358555.20547   4181882.41147                  23820817.7604
        26.2504         28.0004
  25698852.4554   24089673.83546  18771169.07046                  25698860.7794
        16.0004         15.7504
  26549094.1194   25258386.45345  19674765.97345                  26549105.6664
         8.0004          9.2504
  25446252.5724   22979894.48047  17906411.14446                  25446258.8424
        20.5004         18.5004
  24179060.2214   15522859.63747  12095738.28046                  24179066.1504
        27.7504         25.5004
 02  7  2 20  1  0.0100000  0  8G31G 3G 9G14G15G17G18G21
  25592089.2604    8455708.38446   6583397.72046                  25592096.8224
        17.7504         16.2504
  25098167.2754   17772735.89747  13804105.29646                  25098174.5214
        21.5004         20.5004
  26654078.3074   11535559.16045   8874451.82445                  26654085.5644
        11.2504         11.0004
  23828896.0104    5401035.55347   4214984.01047                  23828901.0374
        26.0004         27.7504
  25719735.6824   24199413.29946  18856680.29646                  25719744.0884
        16.0004         15.7504
  26570632.5254   25371566.37945  19762958.00745                  26570642.6074
         8.7504          9.2504
  25465371.7214   23080364.38747  17984699.35646                  25465377.1114
        21.5004         18.7504
  24192978.3224   15595998.82248  12152729.86147                  24192984.2754
        28.0004         25.7504
 02  7  2 20  1 15.0100000  0  8G31G 3G 9G14G15G17G18G21
  25602938.6034    8512716.43446   6627819.59746                  25602945.5574
        18.7504         16.5004
  25115774.3774   17865261.49347  13876203.13446                  25115781.4714
        21.2504         20.0004
  26667900.0644   11608191.16146   8931048.18745                  26667907.7914
        12.2504         11.0004
  23837008.5254    5443666.47747   4248202.93747                  23837013.4354
        26.2504         28.0004
  25740635.7524   24309244.95846  18942263.35646                  25740644.2754
        15.5004         15.5004
  26592185.9554   25484829.72445  19851215.06445                  26592195.6974
         9.0004         10.0004
  25484500.5184   23180886.16847  18063027.99546                  25484506.0024
        21.5004         18.5004
  24206909.0804   15669204.63948  12209773.35247                  24206915.0924
        28.2504         26.0004
 02  7  2 20  1 30.0100000  0  8G31G 3G 9G14G15G17G18G21
  25613816.6824    8569887.16546   6672368.21846                  25613823.4084
        17.7504         16.0004
  25133406.1894   17957919.84547  13948404.41746                  25133413.5184
        20.5004         20.2504
  26681752.4784   11680989.50745   8987774.19645                  26681759.4434
        11.7504         11.0004
  23845148.4244    5486443.03947   4281535.34747                  23845153.1704
        26.5004         28.0004
  25761553.0104   24419163.57046  19027914.16246                  25761561.2644
        16.0004         15.2504
  26613753.9244   25598171.42045  19939533.14445                  26613764.8614
         8.7504          9.7504
  25503638.0494   23281454.66547  18141393.03646                  25503643.8264
        21.5004         18.2504
  24220851.3384   15742471.85548  12266864.68747                  24220857.2794
        28.7504         26.2504
 02  7  2 20  1 45.0100000  0  8G31G 3G 9G14G15G17G18G21
  25624728.3384    8627227.76846   6717049.20646                  25624735.1004
        17.7504         16.2504
  25151065.2524   18050717.82647  14020714.50246                  25151072.7794
        20.7504         20.2504
  26695638.9324   11753961.32445   9044635.33245                  26695645.8504
        11.5004         10.5004
  23853318.0804    5529372.42747   4314986.83547                  23853322.9084
        26.7504         27.7504
  25782488.4554   24529176.14346  19113638.20546                  25782496.6274
        17.0004         15.2504
  26635339.7994   25711598.34545  20027917.66145                  26635350.3854
         9.5004          9.7504
  25522785.6034   23382076.83047  18219799.90246                  25522791.0644
        21.5004         18.5004
  24234806.8074   15815807.50848  12324009.35147                  24234812.7834
        28.5004         26.2504
 02  7  2 20  2  0.0100000  0  8G31G 3G 9G14G15G17G18G21
  25635670.9394    8684734.34546   6761859.51246                  25635678.1854
        17.2504         16.5004
  25168750.1664   18143651.27447  14093130.15646                  25168757.4594
        21.5004         20.5004
  26709556.0494   11827102.64845   9101628.59445                  26709562.9434
        10.7504         10.5004
  23861515.3074    5572450.76547   4348554.39647                  23861519.9354
        26.5004         28.0004
  25803439.9004   24639278.58446  19199432.24446                  25803447.3574
        16.7504         15.2504
  26656937.5104   25825106.45845  20116365.44645                  26656948.7284
         9.0004          9.2504
  25541943.2914   23482748.66647  18298245.46246                  25541948.9394
        22.0004         18.7504
  24248774.3464   15889207.60848  12381204.23747                  24248780.2284
        28.7504         26.2504
 02  7  2 20  2 15.0100000  0  8G31G 3G 9G14G15G17G18G21
  25646646.0574    8742407.51846   6806799.65946                  25646653.0334
        18.0004         16.5004
  25186460.4004   18236720.37847  14165651.50146                  25186467.8694
        21.2504         20.7504
  26723505.6894   11900414.09145   9158754.36445                  26723512.9824
        10.0004          9.5004
  23869741.5644    5615678.76547   4382238.57547                  23869746.2644
        27.0004         28.5004
  25824409.1354   24749471.30546  19285296.66046                  25824416.5334
        17.0004         15.2504
  26678553.1584   25938696.06645  20204876.75145                  26678564.2484
         8.7504          9.2504
  25561110.1434   23583470.69947  18376730.14646                  25561115.6154
        22.2504         18.7504
  24262754.2444   15962672.74048  12438449.79347                  24262759.9284
        28.7504         25.7504
 02  7  2 20  2 30.0100000  0  8G31G 3G 9G14G15G17G18G21
  25657652.9634    8800245.78146   6851868.42746                  25657660.0454
        18.2504         16.0004
  25204196.5884   18329923.31647  14238277.13446                  25204204.1394
        21.2504         20.5004
  26737490.3384   11973894.17845   9216011.65746                  26737498.9554
        10.7504         13.7504
  23877995.9554    5659055.05647   4416038.30847                  23878000.5024
        27.2504         28.5004
  25845394.6744   24859752.67846  19371230.14646                  25845402.2364
        16.5004         15.2504
  26700183.6114   26052365.68745  20293450.38345                  26700195.4284
         8.7504          9.2504
  25580286.1114   23684241.32247  18455252.68646                  25580291.4784
        22.2504         18.7504
  24276746.1504   16036201.31648  12495744.78547                  24276751.7874
        28.2504         26.2504
 02  7  2 20  2 45.0100000  0  8G31G 3G 9G14G15G17G18G21
  25668690.4864    8858248.39646   6897065.26546                  25668697.4634
        18.7504         16.7504
  25221957.5414   18423259.01647  14311006.21546                  25221964.9514
        21.2504         20.7504
  26751505.0964   12047542.02045   9273399.59045                  26751512.0604
        10.7504         10.2504
  23886277.9004    5702578.87347   4449952.99247                  23886282.6234
        26.5004         28.5004
  25866396.9554   24970121.70546  19457231.93846                  25866404.7284
        16.0004         15.0004
  26721830.1584   26166114.37945  20382085.64745                  26721838.3654
         9.0004          8.7504
  25599471.2754   23785059.51947  18533812.29246                  25599476.2794
        22.2504         19.2504
  24290750.0024   16109792.49348  12553088.56546                  24290755.8614
        28.0004         25.5004
 02  7  2 20  3  0.0110000  0  8G31G 3G 9G14G15G17G18G21
  25679760.1324    8916420.02846   6942393.82246                  25679767.2724
        18.7504         16.2504
  25239745.3744   18516734.29847  14383844.07146                  25239753.0544
        21.0004         20.7504
  26765553.4054   12121363.47045   9330922.74445                  26765561.0034
        11.5004         10.7504
  23894588.8974    5746254.08947   4483985.65047                  23894593.7724
        26.5004         28.5004
  25887417.7494   25080586.44346  19543308.31046                  25887425.9214
        16.0004         15.2504
  26743492.5854   26279950.24145  20470788.81245                  26743501.3434
         9.0004          8.0004
  25618667.0464   23885932.75147  18612414.78746                  25618672.1434
        22.2504         18.7504
  24304767.0854   16183451.96148  12610485.55247                  24304772.8744
        28.2504         26.0004
 02  7  2 20  3 15.0110000  0  8G31G 3G 9G14G15G17G18G21
  25690860.7654    8974754.86946   6987849.56246                  25690867.4444
        18.7504         16.2504
  25257557.6474   18610338.18947  14456782.14446                  25257564.9874
        21.2504         20.5004
  26779631.9294   12195350.41845   9388574.98345                  26779638.6554
        11.0004         10.5004
  23902928.0694    5790076.77347   4518133.22447                  23902933.2494
        26.5004         28.5004
  25908454.0854   25191133.86946  19629449.11446                  25908461.8234
        15.7504         15.0004
  26765169.6554   26393859.90845  20559549.49445                  26765177.5224
         9.7504          8.0004
  25637870.4294   23986849.41447  18691051.12746                  25637875.8434
        21.5004         18.7504
  24318795.2574   16257171.74047  12667929.53447                  24318801.2334
        27.7504         26.0004
 02  7  2 20  3 30.0110000  0  8G31G 3G 9G14G15G17G18G21
  25701993.7804    9033258.75446   7033437.01446                  25702000.7684
        18.7504         17.0004
  25275395.7724   18704078.63947  14529826.61446                  25275403.4994
        21.0004         20.7504
  26793744.5154   12269509.88345   9446361.61345                  26793752.3584
        11.0004         10.7504
  23911296.5544    5834051.83147   4552399.52847                  23911301.4994
        26.5004         28.7504
  25929508.1474   25301773.26846  19715661.57846                  25929516.0854
        16.0004         15.0004
  26786861.4834   26507852.81645  20648375.03145                  26786870.0074
         9.5004          8.7504
  25657083.8584   24087818.07347  18769727.99046                  25657089.8234
        21.0004         18.5004
  24332836.0544   16330958.65847  12725425.83946                  24332841.9484
        27.5004         25.5004
 02  7  2 20  3 45.0110000  0  8G31G 3G 9G14G15G17G18G21
  25713157.8274    9091927.26646   7079152.73346                  25713165.0734
        18.5004         17.0004
  25293259.6944   18797950.84447  14602973.75646                  25293267.6084
        21.7504         20.7504
  26807888.7654   12343837.21345   9504279.03945                  26807896.8434
        10.7504         10.2504
  23919692.6634    5878175.00047   4586781.23747                  23919697.4684
        26.2504         28.7504
  25950579.2104   25412499.89146  19801942.01346                  25950587.0774
        16.2504         15.0004
  26808567.6324   26621924.27145  20737261.75945                  26808576.8824
         9.2504          8.2504
  25676306.4604   24188834.17247  18848441.81046                  25676312.0854
        20.5004         18.2504
  24346889.3354   16404808.21747  12782970.94847                  24346895.3004
        27.7504         25.7504
 02  7  2 20  4  0.0110000  0  8G31G 3G 9G14G15G17G18G21
  25724353.2654    9150759.41546   7124995.95946                  25724360.3474
        19.0004         17.2504
  25311146.9764   18891953.65747  14676222.66846                  25311154.5154
        20.2504         21.0004
  26822064.1404   12418331.46645   9562326.52745                  26822072.8864
        10.7504         10.0004
  23928117.0544    5922445.36647   4621277.65247                  23928122.0814
        26.2504         28.5004
  25971666.3974   25523312.74746  19888289.63746                  25971673.6554
        17.0004         14.7504
  26830289.9054   26736073.15845  20826208.82945                  26830300.5734
         9.2504          8.2504
  25695538.4444   24289896.62347  18927191.75746                  25695544.1404
        21.5004         18.5004
  24360954.5154   16478719.40447  12840564.08047                  24360960.5734
        27.7504         25.7504
 02  7  2 20  4 15.0110000  0  8G31G 3G 9G14G15G17G18G21
  25735580.9134    9209755.84846   7170967.19646                  25735587.4874
        19.2504         17.0004
  25329060.8114   18986087.29547  14749573.53746                  25329068.1864
        22.0004         21.0004
  26836271.5774   12492993.31545   9620504.60545                  26836278.6364
        10.5004          9.7504
  23936569.6014    5966863.59847   4655889.29547                  23936574.6864
        26.2504         29.0004
  25992769.8904   25634212.28446  19974704.79546                  25992777.5694
        17.2504         15.0004
  26852026.7104   26850299.91545  20915216.62945                  26852036.9794
         9.5004          8.7504
  25714778.8194   24391005.96947  19005978.22846                  25714784.8544
        20.5004         18.2504
  24375030.9834   16552692.75947  12898205.65547                  24375036.9254
        27.7504         26.0004
 02  7  2 20  4 30.0110000  0  8G31G 3G 9G14G15G17G18G21
  25746837.5774    9268913.35246   7217063.94946                  25746844.5074
        18.7504         16.7504
  25346997.5934   19080348.30947  14823023.64746                  25347004.8744
        20.7504         20.7504
  26850510.5544   12567819.48645   9678810.76045                  26850517.5894
        10.5004         10.0004
  23945049.6554    6011426.58747   4690613.72447                  23945054.3784
        26.7504         29.0004
  26013889.5154   25745195.10346  20061184.85846                  26013897.0184
        17.2504         14.7504
  26873777.9054   26964601.13145  21004282.39345                  26873788.6674
        10.0004          9.2504
  25734027.1014   24492158.90146  19084798.69046                  25734032.9254
        19.7504         18.2504
  24389118.9134   16626725.15247  12955893.23546                  24389124.7494
        27.5004         25.5004
 02  7  2 20  4 45.0110000  0  8G31G 3G 9G14G15G17G18G21
  25758125.7104    9328234.78946   7263288.47846                  25758132.4134
        18.7504         16.5004
  25364959.8904   19174739.21847  14896574.98446                  25364967.4294
        21.0004         20.7504
  26864780.6554   12642812.72245   9737247.10245                  26864788.3934
         9.7504          9.2504
  23953557.9684    6056137.20747   4725453.18547                  23953562.4684
        27.2504         29.0004
  26035024.9524   25856263.94246  20147731.94546                  26035032.2574
        17.0004         14.7504
  26895544.1944   27078979.55045  21093408.34545                  26895553.7264
         9.7504          9.2504
  25753284.3904   24593358.09746  19163655.17246                  25753290.3084
        19.2504         17.7504
  24403218.6404   16700819.14547  13013628.81646                  24403224.5694
        27.7504         25.5004
 02  7  2 20  5  0.0110000  0  8G31G 3G 9G14G15G17G18G21
  25769445.3194    9387718.98446   7309639.79246                  25769451.7534
        18.7504         16.7504
  25382946.5384   19269258.54047  14970226.37046                  25382953.9134
        21.5004         21.0004
  26879084.2494   12717971.97045   9795812.72045                  26879090.6474
        10.0004          9.0004
  23962093.8824    6100994.37147   4760406.84347                  23962098.6984
        26.7504         29.0004
  26056176.3824   25967417.42146  20234344.98546                  26056183.6044
        16.2504         15.0004
  26917324.0074   27193433.82245  21182593.37345                  26917334.1244
         9.5004          9.5004
  25772550.8514   24694602.31346  19242546.75946                  25772556.5694
        19.5004         17.7504
  24417329.3904   16774973.64547  13071411.54346                  24417335.3434
        27.2504         25.2504
 02  7  2 20  5 15.0110000  0  8G31G 3G 9G14G15G17G18G21
  25780795.2264    9447361.62646   7356114.59646                  25780801.7064
        19.2504         16.7504
  25400956.2414   19363901.60847  15043974.18546                  25400963.5224
        20.2504         20.5004
  26893416.7654   12793292.76345   9854504.29545                  26893425.2294
        10.2504          9.7504
  23970656.8434    6145993.80247   4795471.36247                  23970661.8234
        26.0004         28.5004
  26077343.1554   26078651.07846  20321020.50946                  26077350.1324
        15.7504         15.0004
  26939116.5074   27307959.56045  21271834.10445                  26939125.5224
         9.0004          8.7504
  25791825.1554   24795887.24047  19321470.06146                  25791830.4404
        20.2504         17.7504
  24431451.1634   16849184.30247  13129238.03246                  24431457.1514
        27.0004         25.2504
 02  7  2 20  5 30.0110000  0  8G31G 3G 9G14G15G17G18G21
  25792174.3354    9507162.37646   7402712.59346                  25792181.3114
        18.5004         17.0004
  25418989.5544   19458667.62847  15117817.80746                  25418996.8114
        20.5004         20.2504
  26907780.2104   12868774.59945   9913321.30645                  26907787.7264
         9.7504          9.7504
  23979246.2724    6191135.14847   4830646.45747                  23979251.6634
        25.0004         28.2504
  26098525.8744   26189964.27646  20407758.00546                  26098532.6944
        16.0004         14.5004
  26960924.1324   27422556.02445  21361129.97845                  26960933.7224
         8.7504          9.0004
  25811106.9214   24897212.13747  19400424.50146                  25811112.5224
        21.0004         18.0004
  24445583.9364   16923450.53147  13187107.81646                  24445589.7844
        27.7504         25.2504
 02  7  2 20  5 45.0110000  0  8G31G 3G 9G14G15G17G18G21
  25803583.6014    9567122.16846   7449434.50546                  25803590.9764
        17.0004         17.5004
  25437046.6554   19553557.37847  15191757.82846                  25437054.2764
        20.0004         20.0004
  26922175.1554   12944418.51845   9972264.65745                  26922182.3434
        10.5004         10.7504
  23987864.0154    6236419.55747   4865933.03147                  23987869.4994
        25.7504         28.5004
  26119723.3824   26301357.93046  20494558.19546                  26119730.8514
        16.0004         14.2504
  26982745.0074   27537224.20245  21450481.71245                  26982754.5384
         8.2504          9.2504
  25830395.7804   24998578.01846  19479410.88946                  25830401.4404
        19.5004         17.2504
  24459727.3114   16997773.41148  13245021.74446                  24459732.9364
        28.2504         25.5004
 02  7  2 20  6  0.0110000  0  8G31G 3G 9G14G15G17G18G21
  25815024.3194    9627243.54346   7496282.32446                  25815032.9134
        17.0004         17.2504
  25455127.1864   19648573.01747  15265795.95846                  25455134.4914
        20.2504         20.2504
  26936600.7574   13020227.12145  10031336.32345                  26936610.2654
        10.7504         10.0004
  23996508.9914    6281849.54047   4901333.03947                  23996514.4994
        26.0004         28.2504
  26140937.4364   26412834.41646  20581422.95646                  26140945.5384
        16.0004         14.5004
  27004579.8354   27651966.42445  21539891.15345                  27004591.0304
         8.0004          8.5004
  25849693.7264   25099987.31746  19558431.09646                  25849699.8664
        19.7504         17.2504
  24473881.6714   17072155.44348  13302981.77146                  24473887.2144
        28.0004         25.5004
 02  7  2 20  6 15.0110000  0  8G31G 3G 9G14G15G17G18G21
  25826494.9054    9687520.92646   7543251.72246                  25826502.7374
        17.7504         17.5004
  25473230.6324   19743708.61346  15339927.56446                  25473238.0424
        19.5004         20.2504
  26951056.9294   13096194.70745  10090531.89645                  26951064.3624
        11.2504         11.0004
  24005180.9294    6327419.62347   4936842.21647                  24005185.8514
        26.2504         28.7504
  26162164.3274   26524387.93946  20668347.71046                  26162172.0774
        15.0004         14.5004
  27026426.9524   27766776.83344  21629353.70645                  27026438.3234
         7.2504          8.7504
  25868998.0464   25201434.33346  19637480.69746                  25869003.8934
        18.7504         17.0004
  24488045.7334   17146590.80647  13360983.35346                  24488051.6044
        27.2504         25.5004
 02  7  2 20  6 30.0110000  0  8G31G 3G 9G14G15G17G18G21
  25837996.0074    9747956.76246   7590344.58946                  25838003.8974
        18.0004         17.0004
  25491358.3824   19838966.48547  15414154.44946                  25491366.2844
        20.0004         19.5004
  26965543.9834   13172323.82245  10149853.29145                  26965551.1244
        11.7504         10.2504
  24013879.8044    6373132.49247   4972462.65547                  24013884.4334
        26.5004         28.7504
  26183408.3584   26636020.89846  20755334.36146                  26183416.2614
        15.7504         14.5004
  27048288.2184   27881657.96044  21718871.33845                  27048298.7334
         7.2504          8.5004
  25888310.8744   25302921.55246  19716561.61646                  25888316.3934
        19.5004         17.0004
  24502221.3354   17221082.02447  13419028.45146                  24502227.3824
        27.2504         25.0004
 02  7  2 20  6 45.0110000  0  8G31G 3G 9G14G15G17G18G21
  25849527.4054    9808556.90846   7637565.48546                  25849534.2024
        17.5004         16.5004
  25509509.2884   19934351.99646  15488480.77846                  25509517.1084
        19.5004         19.5004
  26980062.4834   13248620.19845  10209305.05745                  26980069.7184
        11.5004         10.0004
  24022607.0854    6418993.89847   5008198.83947                  24022611.5974
        26.7504         29.0004
  26204666.5074   26747738.98146  20842387.37446                  26204674.1864
        14.2504         13.7504
  27070163.5774   27996615.21244  21808448.31245                  27070176.1434
         7.0004          8.0004
  25907631.4604   25404454.50546  19795678.20046                  25907637.7064
        18.7504         16.7504
  24516407.9444   17295634.74647  13477121.47846                  24516413.8624
        27.0004         25.2504
 02  7  2 20  7  0.0110000  0  8G31G 3G 9G14G15G17G18G21
  25861089.5614    9869312.41746   7684907.43246                  25861096.4054
        17.7504         16.5004
  25527683.1084   20029855.93746  15562899.40946                  25527690.8824
        19.2504         19.2504
  26994611.2884   13325074.76245  10268880.06245                  26994618.5464
        11.7504         10.7504
  24031360.8664    6464994.99947   5044043.87147                  24031365.4724
        27.2504         29.2504
  26225940.8514   26859533.09046  20929499.59946                  26225948.9404
        14.0004         13.5004
  27092053.2334   28111639.57545  21898077.55745                  27092065.1084
         7.7504          8.7504
  25926959.2804   25506024.35346  19874823.51146                  25926965.0114
        18.7504         17.0004
  24530605.1404   17370240.20147  13535255.59946                  24530610.9994
        27.5004         25.0004
 02  7  2 20  7 15.0110000  0  8G31G 3G 9G14G15G17G18G21
  25872679.7964    9930223.26046   7732370.42246                  25872686.3584
        17.2504         16.5004
  25545879.4524   20125478.07146  15637410.13246                  25545886.8974
        19.5004         19.2504
  27009189.7184   13401687.47645  10328578.30745                  27009196.9644
        11.2504         10.7504
  24040140.9524    6511135.79747   5079997.76347                  24040145.6984
        26.5004         29.2504
  26247228.9444   26971403.10646  21016670.98646                  26247236.7294
        14.2504         13.7504
  27113954.2804   28226731.00745  21987759.07345                  27113965.2414
         8.0004          8.5004
  25946294.6794   25607630.81246  19953997.35546                  25946300.5264
        19.0004         17.2504
  24544811.9604   17444898.31647  13593430.75046                  24544818.0074
        26.7504         25.0004
 02  7  2 20  7 30.0110000  0  8G31G 3G 9G14G15G17G18G21
  25884301.4834    9991295.09646   7779958.86746                  25884308.1634
        17.5004         16.7504
  25564099.2024   20221223.74246  15712017.11746                  25564106.7184
        19.2504         19.2504
  27023800.4914   13478464.02745  10388404.19345                  27023807.8084
        11.2504         10.2504
  24048948.7964    6557422.06647   5116064.99847                  24048953.7184
        26.5004         29.0004
  26268532.6244   27083354.51146  21103905.77546                  26268540.3864
        14.5004         13.5004
  27135868.2724   28341894.75745  22077496.91745                  27135877.0894
         7.5004          8.0004
  25965637.8194   25709279.48446  20033204.10046                  25965643.5384
        19.5004         17.0004
  24559029.7104   17519614.77147  13651651.36346                  24559035.7454
        26.2504         25.0004
 02  7  2 20  7 45.0110000  0  8G31G 3G 9G14G15G17G18G21
  25895953.5384   10052525.01846   7827670.49346                  25895960.6554
        18.2504         17.0004
  25582342.2884   20317089.70147  15786717.82146                  25582349.6284
        20.2504         19.5004
  27038441.0614   13555401.39545  10448355.42445                  27038448.0264
        11.2504         10.5004
  24057783.8584    6603850.87347   5152243.30447                  24057788.9564
        26.5004         29.2504
  26289851.3194   27195384.12946  21191201.52946                  26289859.6554
        14.7504         13.5004
  27157796.9604   28457127.93845  22167288.89545                  27157808.0614
         8.0004          8.7504
  25984988.5854   25810967.43146  20112441.44946                  25984994.2574
        19.0004         16.7504
  24573259.1164   17594386.56548  13709915.09246                  24573265.0344
        28.0004         25.2504
 02  7  2 20  8  0.0110000  0  8G31G 3G 9G14G15G17G18G21
  25907635.6324   10113916.50546   7875508.01446                  25907642.8784
        18.2504         17.2504
  25600608.6864   20413079.01947  15861514.67046                  25600615.5304
        20.5004         19.7504
  27053112.6794   13632503.10345  10508434.68445                  27053120.0774
        10.5004         10.7504
  24066646.8274    6650425.90647   5188535.56747                  24066651.9364
        26.5004         29.0004
  26311185.7884   27307495.42446  21278560.90946                  26311193.6324
        15.2504         14.0004
  27179738.7494   28572433.81945  22257137.47645                  27179747.6474
         7.7504          8.2504
  26004347.6474   25912698.04046  20191712.03946                  26004352.9914
        19.5004         17.0004
  24587498.8114   17669217.11147  13768224.60247                  24587504.7294
        27.7504         25.7504
 02  7  2 20  8 15.0110000  0  8G31G 3G 9G14G15G17G18G21
  25919350.0774   10175474.13846   7923474.99546                  25919357.1364
        18.7504         17.5004
  25618899.2494   20509195.99647  15936410.98546                  25618905.8704
        21.2504         19.7504
  27067817.0694   13709773.60145  10568645.48345                  27067824.7144
        10.5004         10.5004
  24075538.5224    6697151.76847   5224945.35847                  24075543.8084
        26.7504         29.0004
  26332536.1404   27419692.68746  21365987.29046                  26332544.2884
        15.0004         13.5004
  27201696.0304   28687816.80145  22347046.20645                  27201706.0184
         7.5004          8.0004
  26023714.5384   26014475.78246  20271019.34246                  26023720.5974
        18.5004         16.7504
  24601750.4604   17744110.89247  13826583.39646                  24601756.3194
        27.7504         25.5004
 02  7  2 20  8 30.0110000  0  8G31G 3G 9G14G15G17G18G21
  25931095.3584   10237194.92346   7971569.12046                  25931102.2764
        18.2504         17.2504
  25637213.3514   20605437.46247  16011404.29446                  25637220.2454
        21.2504         19.7504
  27082552.4294   13787209.88845  10628985.47045                  27082559.6984
        11.2504         10.0004
  24084458.6244    6744025.51047   5261470.37347                  24084463.5224
        27.0004         29.2504
  26353901.9444   27531972.81346  21453478.23946                  26353909.5654
        14.5004         13.5004
  27223667.0074   28803273.84645  22437012.60245                  27223678.3194
         7.5004          8.0004
  26043090.9604   26116297.62746  20350361.03546                  26043096.9254
        18.7504         16.7504
  24616013.6714   17819064.95048  13884989.15447                  24616019.5654
        28.0004         25.7504
 02  7  2 20  8 45.0110000  0  8G31G 3G 9G14G15G17G18G21
  25942870.7264   10299075.42346   8019787.68546                  25942877.3354
        18.2504         16.7504
  25655550.5384   20701799.58447  16086491.63546                  25655557.4564
        22.0004         19.7504
  27097318.8114   13864808.38845  10689451.84345                  27097327.0774
        11.0004          9.7504
  24093405.4764    6791043.59647   5298107.85447                  24093410.3744
        26.7504         29.0004
  26375283.2724   27644332.23746  21541030.96746                  26375292.2294
        14.2504         13.7504
  27245652.7024   28918801.27145  22527033.86045                  27245660.7924
         8.5004          8.2504
  26062474.9214   26218159.95946  20429734.25546                  26062480.4404
        19.7504         17.0004
  24630288.0154   17894075.69448  13943439.07147                  24630293.8044
        28.0004         25.7504
 02  7  2 20  9  0.0120000  0  8G31G 3G 9G14G15G17G18G21
  25954677.1134   10361120.42546   8068134.43046                  25954684.4064
        17.2504         16.7504
  25673911.5594   20798289.12247  16161678.26246                  25673918.6174
        21.7504         20.0004
  27112116.6054   13942575.04145  10750049.25545                  27112123.2034
        10.5004          9.7504
  24102381.2154    6838210.06147   5334860.96447                  24102386.1954
        27.2504         29.2504
  26396681.4804   27756778.97346  21628651.75646                  26396689.6414
        14.2504         13.7504
  27267650.4964   29034407.30945  22617116.36945                  27267659.5234
         7.5004          8.0004
  26081867.6444   26320070.19146  20509144.82146                  26081873.4574
        19.2504         16.5004
  24644573.6054   17969148.79047  14001937.59147                  24644579.5594
        27.5004         25.7504
 02  7  2 20  9 15.0120000  0  8G31G 3G 9G14G15G17G18G21
  25966513.0984   10423321.16846   8116602.55646                  25966520.7194
        17.2504         17.2504
  25692294.6604   20894892.44247  16236953.54446                  25692301.7894
        21.5004         20.2504
  27126945.2384   14020498.89945  10810769.16345                  27126952.2034
        11.0004          9.2504
  24111383.6214    6885518.22347   5371724.48347                  24111388.5194
        27.0004         28.7504
  26418092.9104   27869297.51746  21716328.49246                  26418101.3054
        14.2504         13.7504
  27289660.5044   29150075.86244  22707247.61945                  27289670.3404
         6.7504          7.7504
  26101266.8324   26422014.17446  20588581.66346                  26101272.7624
        18.7504         16.7504
  24658869.3094   18044273.83947  14060476.58846                  24658875.3094
        27.2504         25.5004
 02  7  2 20  9 30.0120000  0  8G31G 3G 9G14G15G17G18G21
  25978380.7234   10485684.63546   8165197.45546                  25978388.7544
        18.2504         17.5004
  25710700.9654   20991618.56047  16312324.50546                  25710708.3284
        21.5004         20.0004
  27141805.1214   14098587.96845  10871617.77145                  27141810.6414
        11.2504          9.5004
  24120413.8634    6932974.11147   5408703.11647                  24120418.7264
        26.5004         28.5004
  26439519.9964   27981897.96546  21804069.02346                  26439528.6484
        14.0004         13.2504
  27311685.2074   29265817.37444  22797435.70145                  27311696.5904
         6.2504          7.7504
  26120674.5354   26524001.48646  20668052.29246                  26120680.2544
        18.7504         16.7504
  24673176.3944   18119458.63447  14119062.13046                  24673182.4654
        26.7504         25.5004
 02  7  2 20  9 45.0120000  0  8G31G 3G 9G14G15G17G18G21
  25990278.4574   10548209.45446   8213918.09746                  25990286.3944
        18.0004         17.7504
  25729130.0514   21088465.75047  16387789.81646                  25729137.4374
        21.5004         20.2504
  27156696.4654   14176840.85446  10932594.06045                  27156702.0554
        12.2504          9.5004
  24129472.0594    6980576.45147   5445795.87047                  24129476.9804
        26.2504         28.0004
  26460962.0194   28094578.76346  21891872.17646                  26460970.2154
        13.0004         13.0004
  27333724.0514   29381630.43144  22887679.51045                  27333734.7304
         6.5004          7.0004
  26140089.9804   26626030.63746  20747555.50746                  26140095.7464
        18.5004         16.2504
  24687494.7074   18194701.48847  14177692.92446                  24687500.6954
        27.0004         25.5004
 02  7  2 20 10  0.0120000  0  8G31G 3G 9G14G15G17G18G21
  26002207.9184   10610896.16746   8262764.90246                  26002215.3874
        18.2504         17.2504
  25747583.1444   21185434.18747  16463349.60746                  25747590.3324
        21.5004         20.5004
  27171618.9884   14255258.01046  10993698.33045                  27171624.5784
        12.7504          9.5004
  24138558.4804    7028325.87847   5483003.23947                  24138563.4264
        26.2504         28.2504
  26482419.8634   28207340.41946  21979738.34446                  26482428.1764
        13.2504         13.0004
  27355776.9184   29497515.24744  22977979.33545                  27355787.1874
         7.2504          7.7504
  26159513.4804   26728102.13446  20827091.70846                  26159518.8834
        17.7504         16.0004
  24701824.6764   18270003.19847  14236369.57446                  24701830.6414
        27.7504         25.5004
 02  7  2 20 10 15.0120000  0  8G31G 3G 9G14G15G17G18G21
  26014166.1914   10673741.47246   8311735.25746                  26014173.5194
        17.5004         17.2504
  25766057.6914   21282520.28447  16539001.07646                  25766064.9494
        21.7504         20.5004
  27186572.0274   14333835.98246  11054927.89445                  27186577.4184
        13.0004         10.0004
  24147672.5274    7076219.01847   5520322.58947                  24147677.3674
        26.7504         28.2504
  26503893.2854   28320179.33746  22067664.70646                  26503901.0234
        13.5004         13.0004
  27377842.4024   29613468.45544  23068332.33245                  27377852.2034
         7.2504          7.7504
  26178943.9734   26830212.62346  20906658.31146                  26178950.1604
        16.7504         15.0004
  24716164.3484   18345360.33647  14295089.41446                  24716170.3244
        27.0004         25.5004
 02  7  2 20 10 30.0120000  0  8G31G 3G 9G14G15G17G18G21
  26026155.3714   10736743.83446   8360827.99546                  26026162.8164
        17.7504         17.5004
  25784554.9024   21379722.32447  16614742.89346                  25784562.0784
        21.7504         20.2504
  27201556.0664   14412573.43946  11116281.75945                  27201562.9104
        14.2504         10.5004
  24156813.1374    7124254.58947   5557752.92347                  24156818.0474
        26.2504         28.0004
  26525380.5124   28433093.93146  22155650.03646                  26525389.0354
        14.0004         13.5004
  27399921.1684   29729488.32645  23158737.33245                  27399931.8014
         8.0004          8.7504
  26198382.2464   26932360.51046  20986254.05246                  26198388.4574
        17.0004         15.2504
  24730514.6214   18420771.49347  14353851.35046                  24730520.6334
        27.2504         25.5004
 02  7  2 20 10 45.0120000  0  8G31G 3G 9G14G15G17G18G21
  26038175.5274   10799907.66146   8410046.55646                  26038182.8204
        18.7504         18.0004
  25803074.7074   21477044.30647  16690578.16846                  25803082.4454
        21.7504         20.5004
  27216570.0434   14491474.63846  11177763.21845                  27216576.1134
        14.0004         10.7504
  24165982.1764    7172436.89447   5595297.59447                  24165987.0624
        26.5004         28.0004
  26546882.3634   28546088.55646  22243697.73746                  26546891.1094
        13.2504         13.2504
  27422011.8944   29845579.16645  23249197.61845                  27422022.1874
         8.0004          8.7504
  26217828.6054   27034550.01146  21065882.21246                  26217834.0084
        17.7504         15.5004
  24744875.9884   18496240.99747  14412658.75646                  24744882.0004
        27.2504         25.5004
 02  7  2 20 11  0.0120000  0  8G31G 3G 9G14G15G17G18G21
  26050226.8634   10863231.81246   8459390.04846                  26050233.7814
        19.5004         18.0004
  25821616.6684   21574484.83747  16766505.81746                  25821624.1484
        21.5004         20.5004
  27231615.3404   14570538.51346  11239371.44745                  27231622.1254
        14.0004         11.5004
  24175178.2234    7220764.93547   5632955.83347                  24175183.0394
        26.0004         28.0004
  26568400.7234   28659161.98746  22331806.83046                  26568408.5434
        14.0004         13.0004
  27444116.0354   29961739.65845  23339712.18045                  27444127.2194
         7.5004          8.2504
  26237283.2934   27136780.10046  21145541.99846                  26237288.8944
        18.7504         16.0004
  24759248.0274   18571767.65147  14471510.68646                  24759253.9694
        27.0004         25.2504
 02  7  2 20 11 15.0120000  0  8G31G 3G 9G14G15G17G18G21
  26062306.0824   10926712.58247   8508855.58546                  26062313.0594
        20.0004         18.0004
  25840181.0044   21672039.96747  16842522.76446                  25840188.6134
        21.2504         20.2504
  27246690.2854   14649761.30546  11301103.49745                  27246696.6374
        12.5004         10.7504
  24184401.8164    7269235.11847   5670724.82047                  24184406.6334
        26.0004         27.7504
  26589931.2854   28772310.34446  22419974.32446                  26589939.9374
        13.7504         13.5004
  27466233.0434   30077965.92144  23430277.97445                  27466246.5124
         7.2504          8.2504
  26256743.5824   27239047.00946  21225230.49146                  26256749.0314
        18.5004         16.5004
  24773630.9024   18647347.82547  14530404.32746                  24773636.7384
        27.5004         25.2504
 02  7  2 20 11 30.0120000  0  7G31G 3G 9G14G15G18G21
  26074416.8404   10990353.08447   8558445.59146                  26074423.6134
        21.0004         17.7504
  25858767.8094   21769712.51047  16918631.20446                  25858775.2544
        21.0004         20.0004
  27261796.9884   14729145.98046  11362961.70745                  27261804.0824
        12.7504         11.2504
  24193653.4414    7317850.53547   5708606.99047                  24193658.2584
        26.2504         28.0004
  26611476.6374   28885536.45846  22508202.39546                  26611484.5744
        13.2504         13.2504
  26276211.8014   27341353.73346  21304949.99346                  26276217.0744
        19.5004         16.7504
  24788023.9654   18722984.51547  14589342.00746                  24788029.7664
        27.2504         25.5004
 02  7  2 20 11 45.0120000  0  7G31G 3G 9G14G15G18G21
  26086556.8554   11054151.07246   8608158.30746                  26086564.0784
        19.7504         17.7504
  25877375.9574   21867499.86747  16994829.11546                  25877383.6484
        21.0004         20.2504
  27276934.5044   14808690.21246  11424944.25845                  27276941.3014
        14.0004         11.2504
  24202931.9574    7366609.19647   5746600.76747                  24202936.5394
        26.5004         28.0004
  26633038.2384   28998838.00646  22596489.25546                  26633046.5864
        14.5004         13.7504
  26295687.6994   27443697.93346  21384698.69046                  26295692.9374
        19.5004         16.7504
  24802427.7074   18798675.52747  14648322.00947                  24802433.5664
        27.7504         25.7504
 02  7  2 20 12  0.0120000  0  7G31G 3G 9G14G15G18G21
  26098727.3094   11118109.58246   8657996.10646                  26098734.3094
        19.5004         18.0004
  25896006.2304   21965404.65447  17071118.52046                  25896014.0514
        20.0004         19.5004
  27292101.2694   14888397.00446  11487053.46945                  27292107.1414
        12.5004         11.2504
  24212237.8554    7415514.06247   5784708.47147                  24212242.4374
        26.0004         28.0004
  26654613.5664   29112217.86346  22684837.13546                  26654621.8324
        14.0004         14.0004
  26315170.7464   27546082.53446  21464478.88546                  26315176.6054
        19.2504         16.5004
  24816842.2234   18874423.82147  14707346.65047                  24816848.0944
        27.7504         25.7504
 02  7  2 20 12 15.0120000  0  7G31G 3G 9G14G15G18G21
  26110929.0744   11182228.65946   8707959.00546                  26110936.4964
        19.5004         17.7504
  25914659.0044   22063426.85446  17147499.42146                  25914666.9534
        19.7504         19.7504
  27307300.0744   14968266.43846  11549289.38345                  27307305.8984
        13.2504         11.2504
  24221572.1214    7464565.33647   5822930.26447                  24221576.6564
        25.5004         27.7504
  26676203.9024   29225676.03246  22773246.04246                  26676212.7074
        14.2504         13.7504
  26334661.4024   27648507.62646  21544290.61046                  26334666.9344
        19.0004         16.5004
  24831267.4024   18950229.53947  14766416.03446                  24831273.0274
        27.2504         25.2504
 02  7  2 20 12 30.0120000  0  7G31G 3G 9G14G15G18G21
  26123160.3944   11246504.39646   8758044.00046                  26123167.7584
        19.7504         18.0004
  25933333.9024   22161562.15446  17223968.45546                  25933341.9574
        19.7504         19.7504
  27322529.3324   15048294.55446  11611648.96345                  27322535.1564
        13.0004         11.5004
  24230933.1054    7513759.06147   5861263.05347                  24230937.7694
        25.7504         27.5004
  26697808.8944   29339208.45846  22861712.79446                  26697817.1254
        14.5004         14.0004
  26354158.6604   27750969.18646  21624130.75946                  26354164.4734
        18.2504         16.2504
  24845702.7624   19026088.75047  14825527.11046                  24845708.8094
        26.7504         25.2504
 02  7  2 20 12 45.0120000  0  7G31G 3G 9G14G15G18G21
  26135421.0274   11310934.45646   8808249.22946                  26135428.8594
        19.5004         17.7504
  25952030.0984   22259807.94047  17300523.56946                  25952037.5554
        21.5004         19.7504
  27337787.3944   15128479.00546  11674130.36345                  27337794.3244
        12.2504         11.5004
  24240321.2234    7563093.12047   5899705.19547                  24240325.8404
        25.2504         27.5004
  26719426.3554   29452812.69946  22950235.51446                  26719434.3054
        14.0004         14.2504
  26373662.8794   27853464.88146  21703997.50946                  26373668.8554
        18.0004         15.7504
  24860148.0274   19101999.10647  14884678.03546                  24860153.8404
        27.0004         25.2504
 02  7  2 20 13  0.0120000  0  7G31G 3G 9G14G15G18G21
  26147711.6764   11375525.65946   8858580.04346                  26147718.7584
        17.5004         17.5004
  25970747.8714   22358170.82247  17377169.93946                  25970754.8244
        21.2504         19.2504
  27353077.3794   15208826.56346  11736738.85645                  27353084.0824
        13.0004         11.5004
  24249737.4494    7612574.32547   5938261.99647                  24249742.0434
        25.5004         27.5004
  26741059.9964   29566495.37846  23038819.34946                  26741068.0394
        14.5004         14.0004
  26393174.5514   27956001.52346  21783896.17046                  26393180.1294
        17.2504         15.5004
  24874604.1764   19177967.42247  14943874.11846                  24874610.1764
        26.7504         25.0004
 02  7  2 20 13 15.0120000  0  7G31G 3G 9G14G15G18G21
  26160032.3554   11440275.04846   8909034.09846                  26160039.8014
        16.2504         17.0004
  25989487.3094   22456647.39047  17453904.90346                  25989494.2734
        21.5004         19.7504
  27368397.6764   15289334.11146  11799472.02346                  27368403.5824
        13.5004         12.0004
  24259180.6054    7662199.73647   5976931.16747                  24259185.3754
        25.2504         27.5004
  26762706.7624   29680253.42846  23127461.91646                  26762714.9344
        13.7504         14.0004
  26412694.3164   28058576.05046  21863824.35646                  26412700.3754
        18.0004         15.5004
  24889070.5044   19253990.64547  15003112.99446                  24889076.4694
        25.5004         25.0004
 02  7  2 20 13 30.0120000  0  7G31G 3G 9G14G15G18G21
  26172383.8634   11505178.81046   8959608.45446                  26172391.4374
        18.0004         17.2504
  26008247.3404   22555233.56247  17530725.25146                  26008254.7264
        21.0004         19.7504
  27383747.4104   15369997.93746  11862326.93145                  27383753.9844
        12.5004         11.7504
  24268650.6524    7711965.66447   6015709.83047                  24268655.5864
        25.0004         27.2504
  26784368.0824   29794082.90246  23216160.14646                  26784375.6684
        14.5004         13.7504
  26432220.4104   28161184.59946  21943779.04846                  26432225.7074
        18.7504         15.5004
  24903547.1374   19330065.17347  15062391.84846                  24903553.1134
        26.0004         25.0004
 02  7  2 20 13 45.0120000  0  7G31G 3G 9G14G15G18G21
  26184766.8324   11570244.59947   9010309.07246                  26184774.1014
        20.2504         17.2504
  26027030.5514   22653936.82247  17607636.84446                  26027037.9734
        22.0004         20.0004
  27399128.1604   15450825.63146  11925309.55646                  27399135.3484
        13.2504         12.0004
  24278148.9574    7761879.95047   6054604.09947                  24278153.6444
        24.7504         27.2504
  26806044.6054   29907991.39946  23304919.94146                  26806051.9924
        14.2504         13.5004
  26451754.6134   28263834.79346  22023766.17846                  26451759.7694
        19.5004         15.2504
  24918034.6764   19406198.58447  15121716.58046                  24918040.6414
        26.0004         24.7504
 02  7  2 20 14  0.0120000  0  7G31G 3G 9G14G15G18G21
  26197178.1374   11635468.81846   9061133.12546                  26197185.4184
        19.5004         17.2504
  26045834.4104   22752753.24447  17684636.61746                  26045841.7504
        22.0004         20.0004
  27414539.5514   15531813.52446  11988417.00345                  27414545.6804
        13.0004         11.5004
  24287674.9264    7811939.03147   6093611.19647                  24287679.6374
        25.0004         27.0004
  26827735.6134   30021975.16546  23393738.41746                  26827743.5514
        14.5004         13.5004
  26471295.6844   28366523.03346  22103782.97146                  26471300.5354
        19.5004         15.7504
  24932533.0274   19482387.10847  15181084.25646                  24932539.1094
        25.7504         24.7504
 02  7  2 20 14 15.0120000  0  7G31G 3G 9G14G15G18G21
  26209619.8484   11700854.10446   9112082.70446                  26209627.6804
        18.5004         17.5004
  26064660.3484   22851685.17447  17761726.39446                  26064667.6294
        21.5004         19.7504
  27429982.1054   15612964.26046  12051651.33745                  27429988.1644
        13.7504         11.5004
  24297229.1994    7862145.60347   6132733.21647                  24297233.9224
        25.2504         27.0004
  26849440.9494   30136036.74446  23482617.48546                  26849449.4144
        14.2504         13.5004
  26490844.1684   28469251.91746  22183831.42146                  26490849.9694
        18.2504         15.0004
  24947042.4734   19558633.58747  15240497.10246                  24947048.4614
        26.7504         25.2504
 02  7  2 20 14 30.0120000  0  7G31G 3G 9G14G15G18G21
  26222093.1214   11766400.44646   9163157.77446                  26222100.7894
        18.5004         17.5004
  26083507.9264   22950732.23247  17838905.88346                  26083514.8094
        21.2504         20.0004
  27445456.3014   15694277.82046  12115012.55745                  27445462.6764
        14.7504         11.2504
  24306811.0514    7912499.69047   6171970.18247                  24306815.5624
        24.7504         27.2504
  26871161.0194   30250175.96746  23571557.07446                  26871169.1564
        14.2504         13.5004
  26510399.7934   28572021.33546  22263911.46446                  26510405.5234
        17.7504         15.0004
  24961562.5194   19634938.06347  15299955.12746                  24961568.6484
        26.0004         25.0004
 02  7  2 20 14 45.0130000  0  7G31G 3G 9G14G15G18G21
  26234597.9544   11832114.06346   9214363.17446                  26234605.5054
        18.5004         17.0004
  26102379.6734   23049902.57447  17916181.44246                  26102387.2244
        21.0004         19.7504
  27460961.5014   15775761.37346  12178506.21745                  27460968.7124
        14.2504         11.5004
  24316422.3454    7963006.50147   6211326.15547                  24316427.1024
        25.0004         27.2504
  26892896.8844   30364402.12146  23660564.41046                  26892904.8684
        13.5004         13.0004
  26529965.4544   28674839.85246  22344029.76646                  26529971.4664
        17.0004         15.0004
  24976095.2274   19711307.38747  15359463.69646                  24976101.1924
        26.0004         25.0004
 02  7  2 20 15  0.0130000  0  7G31G 3G 9G14G15G18G21
  26247132.5174   11897981.03246   9265688.08346                  26247139.5054
        19.2504         17.7504
  26121271.6574   23149177.58447  17993538.54146                  26121279.1964
        21.5004         20.2504
  27476496.6734   15857398.95146  12242119.92345                  27476503.0364
        13.7504         11.0004
  24326060.0874    8013654.39947   6250792.06847                  24326064.5994
        25.0004         27.2504
  26914646.4624   30478694.80346  23749623.59446                  26914655.3844
        14.0004         13.2504
  26549537.1024   28777688.79846  22424171.77046                  26549542.8684
        17.2504         15.0004
  24990637.2204   19787726.23947  15419010.85946                  24990643.3494
        27.0004         25.0004
 02  7  2 20 15 15.0130000  0  7G31G 3G 9G14G15G18G21
  26259696.5564   11964006.65246   9317136.62346                  26259703.9664
        19.0004         17.2504
  26140184.0874   23248564.49947  18070982.85646                  26140192.0244
        21.5004         20.5004
  27492062.5564   15939196.78946  12305858.48246                  27492070.0364
        13.5004         12.2504
  24335726.0564    8064447.60847   6290371.20447                  24335730.6024
        25.2504         27.0004
  26936409.3764   30593062.35846  23838741.08146                  26936418.3564
        13.5004         13.2504
  26569115.7514   28880575.70446  22504343.36146                  26569121.6694
        16.7504         14.5004
  25005190.0714   19864200.59747  15478601.26646                  25005196.0364
        26.7504         25.2504
 02  7  2 20 15 30.0130000  0  7G31G 3G 9G14G15G18G21
  26272290.7044   12030191.89346   9368709.52446                  26272297.9624
        17.7504         16.7504
  26159118.3684   23348064.09947  18148514.96446                  26159126.2594
        21.5004         20.2504
  27507658.6654   16021155.78946  12369722.62245                  27507666.3214
        13.5004         11.7504
  24345419.2904    8115387.18047   6330064.39547                  24345423.6964
        25.0004         27.0004
  26958186.9464   30707505.65846  23927917.61946                  26958196.1384
        12.7504         12.7504
  26588702.0244   28983501.66746  22584545.37446                  26588707.8494
        17.0004         15.2504
  25019753.5404   19940731.64147  15538235.84746                  25019759.4814
        27.0004         25.0004
